     2              OBSERVATION DATA    GPS                 RINEX VERSION / TYPE
teqc 1998Mar9 19980312 00:55:57UTC                          PGM / RUN BY / DATE
                                                            COMMENT
Original Marker Name: unknown                               COMMENT
Campaign Name: Cholame 1989                                 COMMENT
4-Character Station Name: BLHL                              COMMENT
6-Character Antenna Code: TI4100                            COMMENT
Vertical Measurement Point: PAE                             COMMENT
Vertical Offset to Rinex Ref. Point: 0.0000                 COMMENT
Radial Measurement Point: PAE                               COMMENT
Radial Offset to Rinex Ref. Point: 0.0842                   COMMENT
Antenna Height from Field Measurement: 0.9020 m             COMMENT
Original XYZ: -2668599.3375 -4472001.8306 3670446.8411      COMMENT
New XYZ position is based on association with SCEC monument COMMENT
E1F1A0T5+0011. Position of that monument is believed to be  COMMENT
valid to within 1 m horizontally; vertical accuracy         COMMENT
should be no worse than 3-times this value.                 COMMENT
                                                            COMMENT
Revised Rinex header created by UCSD GPS archive for        COMMENT
GSAC on 17-Apr-1999 (1999:107) 03:13:40 GMT                 COMMENT
For assistance contact dagnew@ucsd.edu or hjohnson@ucsd.edu COMMENT
                                                            COMMENT
BLACK HILL                                                  MARKER NAME
unknown MASS INST. OF TECHNOLOGY                            OBSERVER / AGENCY
UN02 TI 4100 GESAR 1.9                                      REC # / TYPE / VERS
UN02 TI 4100                                                ANT # / TYPE
 -2669009.0000 -4471671.0000  3670491.0000                  APPROX POSITION XYZ
        0.8981        0.0000        0.0000                  ANTENNA: DELTA H/E/N
     1     1     0                                          WAVELENGTH FACT L1/2
     4    P1    P2    L1    L2                              # / TYPES OF OBSERV
     0                                                      INTERVAL
  1989    11     9    10    20   59.000000                  TIME OF FIRST OBS
  1989    11     9    17    12   59.000000                  TIME OF LAST OBS
     0                                                      # OF SATELLITES
                                                            END OF HEADER
 89 11  9 10 20 59.0800000  0  2G 6G11
  21878272.353    21878276.776     1601153.193 7  -3054081.436 6
  23794948.254    23794953.652      882205.990 6  -3486176.975 8
 89 11  9 10 21 29.0800000  0  3G 2G 6G11
  22678107.947    22678109.286      179345.429 9    214363.678 9
  21867891.549    21867896.760     1546606.189 9  -3096585.578 9
  23773930.857    23773935.813      771754.152 9  -3572243.361 9
 89 11  9 10 21 59.0800000  0  3G 2G 6G11
  22692827.045    22692830.257      256697.259 9    274638.278 9
  21857530.264    21857535.345     1492149.854 9  -3139019.062 8
  23752938.000    23752942.323      661436.586 9  -3658205.109 9
 89 11  9 10 22 29.0800000  0  3G 2G 6G11
  22707562.293    22707565.777      334137.882 8    334981.584 9
  21847184.947    21847189.742     1437785.382 9  -3181380.985 9
  23731970.637    23731975.658      551256.487 9  -3744059.708 9
 89 11  9 10 22 59.0800000  0  3G 2G 6G11
  22722315.371    22722320.128      411666.017 9    395393.092 9
  21836858.404    21836861.611     1383513.958 9  -3223670.389 9
  23711030.371    23711035.793      441216.659 8  -3829805.005 9
 89 11  9 10 23 29.0800000  0  3G 2G 6G11
  22737084.782    22737088.939      489280.426 9    455871.821 9
  21826549.060    21826551.780     1329337.012 9  -3265886.178 9
  23690117.892    23690123.690      331320.562 8  -3915438.284 9
 89 11  9 10 23 59.0800000  0  3G 2G 6G11
  22751871.230    22751874.879      566979.907 9    516416.834 9
  21816256.946    21816260.066     1275255.458 9  -3308027.653 8
  23669233.591    23669239.148      221570.666 9  -4000957.653 9
 89 11  9 10 24 29.0800000  0  3G 2G 6G11
  22766672.787    22766676.320      644763.466 9    577027.389 9
  21805983.145    21805986.367     1221270.127 8  -3350094.148 9
  23648377.346    23648383.122      111969.930 9  -4086360.778 9
 89 11  9 10 24 59.0800000  0  3G 2G 6G11
  22781490.227    22781494.041      722629.944 9    637702.551 9
  21795727.891    21795731.970     1167382.200 9  -3392084.745 8
  23627550.110    23627555.628        2521.610 9  -4171645.155 9
 89 11  9 10 25 29.0800000  0  3G 2G 6G11
  22796324.124    22796327.622      800577.444 9    698440.815 9
  21785492.841    21785497.163     1113592.976 9  -3433998.413 9
  23606753.296    23606757.811     -106771.518 9  -4256808.614 9
 89 11  9 10 25 59.0800000  0  3G 2G 6G11
  22811170.533    22811175.026      878605.040 9    759241.529 9
  21775277.109    21775280.845     1059903.684 9  -3475834.234 8
  23585984.465    23585990.305     -215906.228 9  -4341848.635 9
 89 11  9 10 26 29.0800000  0  3G 2G 6G11
  22826034.936    22826038.628      956712.441 9    820104.401 9
  21765080.206    21765082.598     1006315.427 9  -3517591.300 9
  23565248.253    23565252.480     -324879.633 9  -4426762.965 9
 89 11  9 10 26 59.0800000  0  3G 2G 6G11
  22840912.912    22840916.819     1034897.622 9    881027.904 9
  21754901.132    21754904.971      952829.393 9  -3559268.723 8
  23544541.997    23544547.555     -433688.838 9  -4511549.364 9
 89 11  9 10 27 29.0800000  0  3G 2G 6G11
  22855805.805    22855809.503     1113160.022 9    942011.552 9
  21744742.037    21744747.304      899446.702 9  -3600865.632 9
  23523868.024    23523873.373     -542330.739 9  -4596205.380 8
 89 11  9 10 27 59.0800000  0  3G 2G 6G11
  22870712.828    22870717.643     1191498.556 9   1003054.545 9
  21734603.689    21734607.109      846168.664 8  -3642380.966 8
  23503226.316    23503232.747     -650802.074 9  -4680728.470 9
 89 11  9 10 28 29.0800000  0  3G 2G 6G11
  22885634.832    22885639.040     1269912.189 9   1064156.046 9
  21724486.088    21724490.038      792996.374 9  -3683813.915 8
  23482618.101    23482623.857     -759100.086 9  -4765116.501 9
 89 11  9 10 28 59.0800000  0  3G 2G 6G11
  22900571.269    22900574.517     1348399.289 9   1125314.800 9
  21714387.719    21714391.469      739931.292 9  -3725163.330 9
  23462044.001    23462048.513     -867221.874 9  -4849367.224 9
 89 11  9 10 29 29.0800000  0  3G 2G 6G11
  22915520.560    22915523.673     1426959.264 9   1186530.340 9
  21704310.099    21704313.476      686974.466 9  -3766428.378 9
  23441502.534    23441507.185     -975164.400 9  -4933478.274 9
 89 11  9 10 29 59.0800000  0  3G 2G 6G11
  22930483.076    22930486.388     1505590.300 9   1247801.250 9
  21694254.085    21694256.448      634127.073 9  -3807608.152 8
  23420995.901    23421001.619    -1082924.417 9  -5017447.093 9
 89 11  9 10 30 29.0800000  0  4G 2G 6G11G 9
  22945459.396    22945462.924     1584291.384 9   1309126.746 9
  21684219.357    21684222.651      581390.083 9  -3848701.896 9
  23400524.902    23400530.364    -1190499.442 9  -5101271.754 9
                  24481302.796    -3336944.819 9
 89 11  9 10 30 59.0800000  0  4G 2G 6G11G 9
  22960449.159    22960453.003     1663061.745 9   1370506.224 9
  21674204.300    21674207.771      528765.202 9  -3889708.296 8
  23380091.238    23380095.456    -1297886.436 9  -5184949.912 9
  24465294.964    24465300.358    -3421281.823 9   4360039.623 8
 89 11  9 10 31 29.0800000  0  4G 2G 6G11G 9
  22975451.662    22975455.465     1741901.364 9   1431939.653 9
  21664212.817    21664214.861      476253.775 9  -3930626.273 8
  23359691.775    23359695.912    -1405082.127 9  -5268478.995 9
  24449237.992    24449242.382    -3505659.754 9   4294290.621 8
 89 11  9 10 31 59.0800000  0  4G 2G 6G11G 9
  22990467.071    22990470.887     1820808.067 9   1493425.370 9
  21654240.391    21654244.269      423856.763 9  -3971455.109 8
  23339330.240    23339335.165    -1512083.848 9  -5351856.961 8
  24433173.851    24433177.962    -3590078.909 8   4228509.502 8
 89 11  9 10 32 29.0800000  0  4G 2G 6G11G 9
  23005495.110    23005499.059     1899780.693 9   1554962.447 9
  21644292.237    21644295.836      371575.663 9  -4012193.619 8
  23319005.740    23319011.190    -1618888.593 9  -5435081.425 9
  24417101.449    24417104.636    -3674538.861 8   4162696.593 8
 89 11  9 10 32 59.0800000  0  4G 2G 6G11G 9
  23020535.907    23020539.375     1978818.671 9   1616550.453 9
  21634366.548    21634369.376      319411.894 8  -4052840.718 9
  23298719.371    23298725.584    -1725493.074 9  -5518149.849 8
  24401020.903    24401026.536    -3759038.904 9   4096852.399 7
 89 11  9 10 33 29.0800000  0  4G 2G 6G11G 9
  23035588.380    23035591.663     2057921.410 8   1678188.926 9
  21624462.869    21624466.081      267366.860 9  -4093395.283 9
  23278472.327    23278477.700    -1831894.321 9  -5601059.908 9
  24384934.736    24384938.842    -3843578.377 8   4030977.515 9
 89 11  9 10 33 59.0800000  0  4G 2G 6G11G 9
  23050653.089    23050656.714     2137086.973 9   1739876.346 8
  21614580.368    21614584.817      215441.661 9  -4133856.469 9
  23258263.695    23258269.017    -1938089.506 9  -5683809.377 9
  24368839.239    24368842.914    -3928156.936 8   3965072.158 8
 89 11  9 10 34 29.0800000  0  4G 2G 6G11G 9
  23065729.831    23065733.843     2216314.738 9   1801612.238 8
  21604723.107    21604726.422      163637.696 9  -4174223.177 9
  23238095.027    23238100.623    -2044075.772 9  -5766396.054 9
  24352738.262    24352741.357    -4012774.044 8   3899136.764 8
 89 11  9 10 34 59.0800000  0  4G 2G 6G11G 9
  23080816.265    23080822.590     2295603.891 9   1863395.960 9
  21594888.370    21594891.151      111956.448 9  -4214494.280 8
  23217966.149    23217972.205    -2149849.958 9  -5848817.459 9
  24336630.015    24336631.766    -4097428.845 8   3833172.002 8
 89 11  9 10 35 29.0800000  0  4G 2G 6G11G 9
  23095916.512    23095921.602     2374953.459 9   1925226.760 8
  21585076.817    21585080.355       60399.147 9  -4254668.798 8
  23197879.976    23197885.411    -2255409.001 9  -5931071.219 9
  24320512.289    24320515.238    -4182121.141 8   3767178.005 7
 89 11  9 10 35 59.0800000  0  4G 2G 6G11G 9
  23111028.221    23111032.653     2454362.357 9   1987103.793 9
  21575290.756    21575292.808        8967.160 9  -4294745.657 8
  23177834.121    23177839.291    -2360750.126 9  -6013155.194 9
  24304390.614    24304391.887    -4266850.000 9   3701155.536 8
 89 11  9 10 36 29.0800000  0  4G 2G 6G11G 9
  23126150.958    23126154.874     2533829.632 9   2049026.304 9
  21565528.479    21565530.359      -42338.031 9  -4334723.723 8
  23157830.409    23157835.261    -2465870.172 9  -6095066.896 9
  24288259.589    24288262.043    -4351615.077 9   3635104.831 8
 89 11  9 10 36 59.0800000  0  4G 2G 6G11G 9
  23141283.715    23141287.646     2613354.274 9   2110993.529 9
  21555789.499    21555791.277      -93515.057 9  -4374601.922 8
  23137869.211    23137874.146    -2570766.562 8  -6176804.320 9
  24272121.391    24272124.846    -4436415.561 8   3569026.529 8
 89 11  9 10 37 29.0800000  0  4G 2G 6G11G 9
  23156427.492    23156431.761     2692935.604 9   2173004.920 9
  21546075.248    21546077.596     -144562.489 9  -4414379.129 8
  23117951.036    23117956.385    -2675436.196 9  -6258365.041 9
  24255977.517    24255981.020    -4521250.977 8   3502920.982 8
 89 11  9 10 37 59.0800000  0  4G 2G 6G11G 9
  23171582.395    23171586.006     2772571.805 9   2235059.082 9
  21536385.633    21536387.849     -195478.858 9  -4454054.211 8
  23098076.718    23098081.991    -2779876.021 9  -6339746.685 9
  24239828.325    24239832.508    -4606120.676 8   3436788.742 8
 89 11  9 10 38 29.0800000  0  4G 2G 6G11G 9
  23186746.275    23186750.345     2852262.465 9   2297155.672 9
  21526720.976    21526724.429     -246262.909 9  -4493626.192 8
  23078246.971    23078252.165    -2884083.138 9  -6420947.001 9
  24223671.079    24223675.725    -4691024.136 8   3370630.207 9
 89 11  9 10 38 59.0800000  0  4G 2G 6G11G 9
  23201920.740    23201924.527     2932006.473 9   2359293.832 9
  21517083.528    21517086.327     -296913.160 9  -4533093.924 8
  23058462.139    23058466.334    -2988054.742 9  -6501963.811 9
  24207507.429    24207513.480    -4775960.431 7   3304446.091 9
 89 11  9 10 39 29.0800000  0  4G 2G 6G11G 9
  23217105.940    23217110.320     3011803.519 9   2421473.316 9
  21507470.699    21507474.570     -347428.246 9  -4572456.338 8
  23038722.305    23038726.697    -3091787.876 9  -6582794.814 9
  24191339.400    24191343.945    -4860929.035 8   3238236.797 9
 89 11  9 10 39 59.0800000  0  4G 2G 6G11G 9
  23232300.591    23232305.175     3091652.395 9   2483693.190 9
  21497884.029    21497886.865     -397806.272 9  -4611711.943 9
  23019028.450    23019033.712    -3195279.425 9  -6663437.574 8
  24175164.406    24175168.949    -4945929.146 8   3172002.948 9
 89 11  9 10 40 29.0800000  0  4G 2G 6G11G 9
  23247505.300    23247509.769     3171552.533 9   2545953.012 9
  21488323.855    21488326.663     -448046.097 9  -4650859.832 9
  22999380.827    22999385.502    -3298526.635 9  -6743889.940 9
  24158985.281    24158987.468    -5030960.177 9   3105744.991 9
 89 11  9 10 40 59.0800000  0  4G 2G 6G11G 9
  23262719.377    23262722.644     3251502.553 8   2608251.684 9
  21478790.041    21478792.983     -498146.068 9  -4689898.780 8
  22979780.514    22979785.711    -3401526.423 9  -6824149.493 9
  24142797.979    24142801.229    -5116021.220 9   3039463.646 8
 89 11  9 10 41 29.0800000  0  4G 2G 6G11G 9
  23277941.948    23277947.940     3331501.956 9   2670588.855 9
  21469282.665    21469286.751     -548104.661 9  -4728827.559 8
  22960228.015    22960233.263    -3504275.476 9  -6904213.669 8
  24126605.551    24126608.427    -5201111.561 9   2973159.471 9
 89 11  9 10 41 59.0800000  0  4G 2G 6G11G 9
  23293174.532    23293179.569     3411549.214 9   2732963.306 9
  21459802.908    21459806.664     -597920.579 9  -4767645.149 7
  22940723.678    22940728.943    -3606771.384 9  -6984080.581 9
  24110407.374    24110411.686    -5286230.589 8   2906832.967 9
 89 11  9 10 42 29.0800000  0  4G 2G 6G11G 9
  23308416.669    23308421.340     3491643.862 9   2795374.679 8
  21450351.885    21450354.384     -647592.231 9  -4806350.324 9
  22921268.127    22921273.212    -3709011.291 9  -7063748.003 9
  24094203.585    24094207.322    -5371377.624 7   2840484.648 8
 89 11  9 10 42 59.0800000  0  4G 2G 6G11G 9
  23323667.158    23323671.532     3571785.176 9   2857822.429 8
  21440927.453    21440930.046     -697118.400 9  -4844942.132 9
  22901862.168    22901867.150    -3810992.476 9  -7143213.837 9
  24077994.795    24078000.106    -5456552.147 9   2774114.907 9
 89 11  9 10 43 29.0800000  0  4G 2G 6G11G 9
  23338927.320    23338930.178     3651971.980 9   2920305.615 8
  21431530.802    21431533.712     -746497.293 9  -4883419.183 8
  22882506.016    22882510.734    -3912711.800 9  -7222475.618 9
  24061782.106    24061786.752    -5541753.130 9   2707724.554 9
 89 11  9 10 43 59.0800000  0  4G 2G 6G11G 9
  23354194.499    23354198.849     3732203.620 9   2982823.750 9
  21422162.085    21422165.088     -795727.427 9  -4921780.329 8
  22863199.671    22863203.161    -4014166.280 9  -7301531.047 9
  24045565.267    24045567.974    -5626979.976 9   2641314.036 9
 89 11  9 10 44 29.0800000  0  4G 2G 6G11G 9
  23369469.499    23369473.139     3812478.566 9   3045375.645 8
  21412822.278    21412824.998     -844807.402 9  -4960024.455 8
  22843943.946    22843948.164    -4115353.182 9  -7380377.952 9
  24029342.051    24029345.741    -5712232.028 9   2574883.875 8
 89 11  9 10 44 59.0800000  0  4G 2G 6G11G 9
  23384753.853    23384758.275     3892797.136 9   3107961.524 9
  21403511.081    21403514.751     -893735.449 9  -4998150.209 8
  22824740.908    22824744.705    -4216269.399 9  -7459013.942 8
  24013114.303    24013118.413    -5797508.125 8   2508434.989 8
 89 11  9 10 45 29.0800000  0  4G 2G 6G11G 9
  23400045.968    23400051.453     3973158.257 9   3170580.538 9
  21394229.711    21394234.080     -942509.969 9  -5036156.330 8
  22805588.988    22805593.204    -4316912.133 9  -7537436.836 8
  23996882.149    23996885.951    -5882807.685 9   2441967.801 9
 89 11  9 10 45 59.0800000  0  4G 2G 6G11G 9
  23415346.282    23415350.432     4053560.568 9   3233231.665 8
  21384978.672    21384981.184     -991129.486 9  -5074041.670 7
  22786489.904    22786493.323    -4417278.832 9  -7615644.636 9
  23980645.175    23980649.598    -5968129.881 9   2375482.970 9
 89 11  9 10 46 29.0800000  0  4G 2G 6G11G 9
  23430653.998    23430659.150     4134002.910 9   3295913.984 9
  21375756.225    21375759.119    -1039592.631 9  -5111805.149 8
  22767443.380    22767447.735    -4517366.889 9  -7693635.304 8
  23964404.881    23964409.121    -6053474.021 9   2308981.067 9
 89 11  9 10 46 59.0800000  0  4G 2G 6G11G 9
  23445969.017    23445973.553     4214485.456 9   3358627.625 8
  21366563.399    21366567.426    -1087897.597 9  -5149445.372 9
  22748450.738    22748455.393    -4617172.899 9  -7771406.200 8
  23948161.530    23948165.486    -6138839.203 9   2242462.743 9
 89 11  9 10 47 29.0800000  0  4G 2G 6G11G 9
  23461291.261    23461296.227     4295007.044 9   3421371.674 9
  21357401.877    21357405.063    -1136042.861 9  -5186961.148 9
  22729513.151    22729516.833    -4716694.176 9  -7848955.228 9
  23931913.681    23931916.535    -6224224.518 9   2175928.742 8
 89 11  9 10 47 59.0800000  0  4G 2G 6G11G 9
  23476621.543    23476625.989     4375566.415 9   3484145.175 9
  21348270.665    21348274.889    -1184026.854 9  -5224351.261 9
  22710629.433    22710633.066    -4815927.968 9  -7926280.226 9
  23915660.835    23915665.464    -6309629.303 9   2109379.586 7
 89 11  9 10 48 29.0800000  0  4G 2G 6G11G 9
  23491958.999    23491962.352     4456163.179 9   3546947.832 9
  21339170.246    21339174.019    -1231848.046 9  -5261614.521 9
  22691800.351    22691805.116    -4914871.580 9  -8003379.121 9
  23899405.332    23899409.055    -6395052.586 9   2042815.998 7
 89 11  9 10 48 59.0800000  0  4G 2G 6G11G 9
  23507303.852    23507306.347     4536796.734 9   3609779.143 9
  21330101.968    21330105.308    -1279504.878 9  -5298749.720 9
  22673027.763    22673033.247    -5013522.082 9  -8080249.642 9
  23883146.744    23883149.327    -6480493.663 9   1976238.537 8
 89 11  9 10 49 29.0800000  0  4G 2G 6G11G 9
  23522654.153    23522658.059     4617466.058 9   3672638.328 8
  21321063.880    21321068.591    -1326995.662 9  -5335755.523 9
  22654311.728    22654316.369    -5111876.835 9  -8156889.691 9
  23866884.402    23866887.695    -6565951.690 9   1909647.892 9
 89 11  9 10 49 59.0800000  0  4G 2G 6G11G 9
  23538011.121    23538015.028     4698170.538 9   3735524.891 8
  21312059.844    21312062.930    -1374318.650 9  -5372630.585 8
  22635651.227    22635657.698    -5209932.873 9  -8233296.967 9
  23850618.945    23850622.921    -6651425.473 9   1843044.958 9
 89 11  9 10 50 29.0800000  0  4G 2G 6G11G 9
  23553375.130    23553380.162     4778909.028 9   3798437.971 9
  21303086.607    21303090.247    -1421472.352 9  -5409373.717 9
  22617050.038    22617054.795    -5307687.320 9  -8309469.222 9
  23834351.054    23834354.739    -6736914.528 9   1776430.123 8
 89 11  9 10 50 59.0800000  0  4G 2G 6G11G 9
  23568745.229    23568750.038     4859681.052 9   3861377.185 8
  21294145.252    21294149.047    -1468455.001 9  -5445983.577 9
  22598505.997    22598510.495    -5405137.274 9  -8385404.213 9
  23818080.410    23818083.689    -6822417.543 9   1709804.428 8
 89 11  9 10 51 29.0800000  0  4G 2G 6G11G 9
  23584121.730    23584127.087     4940485.508 8   3924341.660 9
  21285238.207    21285241.260    -1515264.954 9  -5482458.842 8
  22580019.859    22580024.748    -5502280.071 9  -8461099.874 9
  23801806.508    23801810.720    -6907933.788 8   1643168.415 8
 89 11  9 10 51 59.0800000  0  4G 2G 6G11G 9
  23599504.808    23599509.211     5021322.046 9   3987331.125 8
  21276363.328    21276366.824    -1561900.649 9  -5518798.335 9
  22561593.679    22561598.699    -5599113.175 9  -8536554.226 9
  23785531.262    23785535.371    -6993462.372 9   1576522.780 9
 89 11  9 10 52 29.0800000  0  4G 2G 6G11G 9
  23614893.486    23614898.289     5102189.755 9   4050344.892 9
  21267522.680    21267526.634    -1608360.334 9  -5555000.684 8
  22543226.819    22543231.186    -5695633.726 9  -8611765.034 9
  23769253.762    23769256.690    -7079002.275 8   1509868.342 8
 89 11  9 10 52 59.0800000  0  4G 2G 6G11G 9
  23630288.407    23630293.883     5183088.115 9   4113382.525 9
  21258716.623    21258718.937    -1654642.386 9  -5591064.626 9
  22524918.404    22524924.426    -5791838.794 9  -8686730.017 9
  23752973.235    23752978.358    -7164552.563 9   1443205.802 8
 89 11  9 10 53 29.0800000  0  4G 2G 6G11G 9
  23645688.608    23645694.142     5264016.435 9   4176443.534 9
  21249942.001    21249946.786    -1700745.065 9  -5626988.789 9
  22506672.113    22506676.478    -5887725.591 9  -8761446.960 9
  23736691.704    23736697.113    -7250112.105 9   1376536.051 9
 89 11  9 10 53 59.0800000  0  4G 2G 6G11G 9
  23661094.690    23661099.132     5344973.805 9   4239527.168 9
  21241204.344    21241207.686    -1746666.551 9  -5662771.773 9
  22488487.202    22488492.237    -5983291.587 9  -8835913.933 9
  23720408.642    23720413.757    -7335680.178 9   1309859.656 9
 89 11  9 10 54 29.0800000  0  4G 2G 6G11G 9
  23676505.800    23676510.265     5425959.575 9   4302632.940 9
  21232499.234    21232502.863    -1792405.259 9  -5698412.306 9
  22470363.238    22470367.037    -6078533.809 9  -8910128.635 9
  23704125.041    23704129.444    -7421255.508 9   1243177.601 9
 89 11  9 10 54 59.0800000  0  4G 2G 6G11G 9
  23691922.233    23691926.121     5506972.841 9   4365760.138 9
  21223831.096    21223834.324    -1837959.570 9  -5733909.163 8
  22452300.814    22452305.369    -6173449.732 9  -8984089.069 8
  23687838.543    23687842.590    -7506837.472 8   1176490.395 9
 89 11  9 10 55 29.0800000  0  4G 2G 6G11G 9
  23707343.335    23707347.204     5588013.437 9   4428908.614 9
  21215197.986    21215200.611    -1883327.823 9  -5769261.042 8
  22434301.682    22434306.495    -6268036.789 9  -9057793.248 8
  23671552.629    23671557.172    -7592424.899 9   1109798.929 8
 89 11  9 10 55 59.0800000  0  4G 2G 6G11G 9
  23722770.409    23722774.278     5669080.464 9   4492077.716 8
  21206601.309    21206603.960    -1928507.908 9  -5804466.284 9
  22416364.510    22416369.382    -6362292.040 9  -9131238.870 9
  23655266.021    23655269.419    -7678016.760 8   1043104.001 8
 89 11  9 10 56 29.0800000  0  4G 2G 6G11G 9
  23738201.967    23738205.321     5750173.533 9   4555267.094 9
  21198039.574    21198043.055    -1973498.268 9  -5839523.710 9
  22398492.617    22398496.555    -6456212.950 9  -9204423.980 8
  23638978.089    23638981.064    -7763611.915 8    976406.522 9
 89 11  9 10 56 59.0800000  0  4G 2G 6G11G 9
  23753637.698    23753641.991     5831291.258 9   4618475.686 9
  21189514.727    21189517.411    -2018297.189 9  -5874431.955 9
  22380684.753    22380688.798    -6549796.662 9  -9277346.338 8
  23622689.626    23622692.402    -7849209.394 8    909707.218 9
 89 11  9 10 57 29.0800000  0  4G 2G 6G11G 9
  23769078.462    23769083.422     5912433.472 9   4681703.348 8
  21181025.654    21181030.125    -2062902.731 9  -5909189.505 9
  22362940.778    22362945.497    -6643040.444 9  -9350003.817 9
  23606399.214    23606402.326    -7934807.945 9    843007.077 9
 89 11  9 10 57 59.0800000  0  4G 2G 6G11G 9
  23784523.312    23784528.832     5993600.312 9   4744950.189 9
  21172574.958    21172578.870    -2107312.840 9  -5943794.776 9
  22345262.305    22345266.706    -6735941.461 9  -9422394.205 9
  23590111.693    23590114.504    -8020406.074 9    776307.251 9
 89 11  9 10 58 29.0800000  0  4G 2G 6G11G 9
  23799974.182    23799978.914     6074790.675 9   4808215.363 9
  21164161.124    21164165.162    -2151525.795 9  -5978246.419 8
  22327650.054    22327654.711    -6828496.622 9  -9494515.100 9
  23573822.387    23573825.389    -8106002.879 9    709608.460 9
 89 11  9 10 58 59.0800000  0  4G 2G 6G11G 9
  23815428.263    23815433.605     6156003.988 9   4871498.422 9
  21155786.465    21155790.504    -2195539.893 9  -6012543.119 8
  22310103.323    22310107.112    -6920703.845 9  -9566364.876 8
  23557534.239    23557536.905    -8191597.516 9    642911.336 8
 89 11  9 10 59 29.0800000  0  4G 2G 6G11G 9
  23830886.897    23830891.205     6237239.192 9   4934798.533 8
  21147447.839    21147451.737    -2239353.411 9  -6046683.521 9
  22292623.690    22292628.458    -7012560.436 9  -9637941.416 9
  23541245.934    23541250.136    -8277188.471 9    576217.102 8
 89 11  9 10 59 59.0800000  0  4G 2G 6G11G 9
  23846349.067    23846354.119     6318496.128 9   4998115.583 8
  21139149.592    21139152.548    -2282964.574 9  -6080666.245 9
  22275211.228    22275215.683    -7104063.799 9  -9709242.721 9
  23524959.451    23524963.378    -8362775.045 9    509526.294 9
 89 11  9 11  0 29.0800000  0  4G 2G 6G11G 9
  23861816.331    23861820.781     6399774.209 9   5061449.131 9
  21130889.123    21130892.664    -2326371.618 9  -6114489.912 8
  22257865.169    22257870.399    -7195211.257 9  -9780266.692 9
  23508674.829    23508678.780    -8448356.064 8    442839.816 9
 89 11  9 11  0 59.0800000  0  4G 2G 6G11G 9
  23877287.191    23877290.994     6481072.135 9   5124798.130 9
  21122668.288    21122671.802    -2369572.807 9  -6148153.180 8
  22240589.230    22240594.220    -7285999.912 9  -9851011.080 8
  23492390.177    23492393.334    -8533930.428 8    376158.543 9
 89 11  9 11  1 29.0800000  0  4G 2G 6G11G 9
  23892761.848    23892765.450     6562389.500 9   5188162.276 9
  21114487.750    21114490.348    -2412566.244 9  -6181654.554 9
  22223381.163    22223386.562    -7376427.564 9  -9921474.159 9
  23476107.107    23476111.138    -8619496.764 9    309483.506 9
 89 11  9 11  1 59.0800000  0  4G 2G 6G11G 9
  23908240.130    23908243.780     6643726.037 9   5251541.371 9
  21106346.162    21106348.818    -2455350.237 9  -6214992.716 9
  22206242.814    22206247.849    -7466491.536 9  -9991653.865 9
  23459826.173    23459830.717    -8705054.120 9    242815.461 8
 89 11  9 11  2 29.0800000  0  4G 2G 6G11G 9
  23923721.135    23923725.534     6725081.134 9   5314934.925 8
  21098245.007    21098248.268    -2497922.814 9  -6248166.141 9
  22189174.537    22189179.293    -7556189.524 9 -10061548.394 9
  23443547.552    23443551.080    -8790601.266 9    176155.373 9
 89 11  9 11  2 59.0800000  0  4G 2G 6G11G 9
  23939205.799    23939209.453     6806454.173 9   5378342.452 9
  21090184.526    21090187.497    -2540282.283 8  -6281173.525 8
  22172175.703    22172180.479    -7645518.887 9 -10131155.694 9
  23427270.310    23427274.586    -8876137.075 9    109504.125 8
 89 11  9 11  3 29.0800000  0  4G 2G 6G11G 9
  23954693.244    23954698.028     6887844.125 9   5441763.168 9
  21082163.877    21082167.448    -2582426.663 9  -6314013.292 9
  22155247.260    22155251.474    -7734476.909 9 -10200473.623 8
  23410994.896    23410999.597    -8961660.316 9     42862.662 9
 89 11  9 11  3 59.0800000  0  4G 2G 6G11G 9
  23970185.067    23970190.171     6969250.783 8   5505196.886 9
  21074185.443    21074189.296    -2624354.354 9  -6346684.207 8
  22138390.079    22138394.828    -7823061.161 9 -10269500.282 9
  23394722.695    23394728.109    -9047169.838 9    -23768.117 8
 89 11  9 11  4 29.0800000  0  4G 2G 6G11G 9
  23985678.573    23985683.840     7050673.715 8   5568643.282 9
  21066249.418    21066253.004    -2666063.407 9  -6379184.764 9
  22121604.630    22121609.316    -7911268.990 9 -10338233.615 9
  23378454.235    23378457.942    -9132664.365 9    -90387.213 7
 89 11  9 11  4 59.0800000  0  4G 2G 6G11G 9
  24001175.786    24001180.542     7132112.498 9   5632102.029 9
  21058354.209    21058356.848    -2707551.976 9  -6411513.517 9
  22104891.969    22104896.036    -7999098.091 9 -10406671.868 9
  23362188.441    23362192.604    -9218142.561 8   -156993.576 9
 89 11  9 11  5 29.0800000  0  4G 2G 6G11G 9
  24016676.491    24016680.898     7213565.708 8   5695572.041 8
  21050500.405    21050503.957    -2748818.194 9  -6443669.002 9
  22088249.853    22088256.125    -8086545.947 9 -10474813.034 8
  23345924.858    23345929.375    -9303603.460 8   -223586.460 9
 89 11  9 11  5 59.0800000  0  4G 2G 6G11G 9
  24032178.587    24032183.038     7295033.604 9   5759053.485 9
  21042691.758    21042694.368    -2789860.299 8  -6475649.844 8
  22071682.305    22071687.692    -8173610.148 9 -10542655.261 8
  23329667.135    23329670.153    -9389045.784 8   -290164.865 9
 89 11  9 11  6 29.0800000  0  4G 2G 6G11G 9
  24047684.682    24047689.109     7376515.383 9   5822545.745 9
  21034924.700    21034926.854    -2830676.260 9  -6507454.482 9
  22055187.894    22055193.064    -8260288.015 9 -10610196.428 8
  23313411.602    23313415.032    -9474467.967 9   -356727.580 8
 89 11  9 11  6 59.0800000  0  4G 2G 6G11G 9
  24063192.817    24063197.755     7458010.609 9   5886048.475 8
  21027199.705    21027204.322    -2871264.223 9  -6539081.452 8
  22038767.611    22038772.882    -8346576.887 9 -10677434.486 8
  23297159.479    23297163.293    -9559869.089 9   -423273.893 8
 89 11  9 11  7 29.0800000  0  4G 2G 6G11G 9
  24078703.305    24078707.659     7539518.190 9   5949560.837 9
  21019520.763    21019523.145    -2911622.547 9  -6570529.498 9
  22022421.930    22022426.698    -8432474.989 9 -10744368.062 9
  23280912.947    23280916.197    -9645247.700 9   -489802.670 8
 89 11  9 11  7 59.0800000  0  4G 2G 6G11G 9
  24094215.843    24094220.074     7621038.357 8   6013082.997 8
  21011883.663    21011888.231    -2951749.353 8  -6601797.119 9
  22006151.471    22006156.406    -8517979.633 9 -10810995.058 9
  23264669.922    23264673.952    -9730602.605 9   -556312.969 9
 89 11  9 11  8 29.0800000  0  4G 2G 6G11G 9
  24109729.873    24109736.390     7702570.208 9   6076614.272 9
  21004292.031    21004296.685    -2991642.689 9  -6632882.840 8
  21989955.401    21989960.097    -8603088.445 9 -10877313.610 8
  23248432.246    23248436.847    -9815932.606 9   -622803.859 9
 89 11  9 11  8 59.0800000  0  4G 2G 6G11G 9
  24125246.579    24125252.361     7784113.362 8   6140154.341 8
  20996745.735    20996749.577    -3031300.776 9  -6663785.252 9
  21973835.239    21973840.501    -8687799.034 9 -10943321.830 9
  23232200.016    23232203.898    -9901236.168 9   -689274.148 9
 89 11  9 11  9 29.0800000  0  4G 2G 6G11G 9
  24140767.141    24140771.835     7865667.556 8   6203703.024 9
  20989244.251    20989248.665    -3070721.162 9  -6694502.429 9
  21957791.922    21957796.585    -8772108.415 9 -11009017.444 9
  23215972.395    23215976.084    -9986511.877 9   -755722.733 9
 89 11  9 11  9 59.0800000  0  4G 2G 6G11G 9
  24156288.713    24156293.226     7947232.321 9   6267259.944 8
  20981788.671    20981792.343    -3109902.195 9  -6725033.089 9
  21941825.400    21941830.965    -8856014.436 9 -11074398.760 9
  23199750.457    23199753.603   -10071758.413 9   -822148.576 9
 89 11  9 11 10 29.0800000  0  4G 2G 6G11G 9
  24171812.007    24171816.648     8028807.191 9   6330824.745 9
  20974379.428    20974383.086    -3148841.824 9  -6755375.639 9
  21925935.329    21925940.950    -8939514.648 9 -11139463.837 9
  23183535.171    23183537.930   -10156974.044 9   -888550.346 7
 89 11  9 11 10 59.0800000  0  4G 2G 6G11G 9
  24187336.993    24187341.349     8110391.539 8   6394396.922 9
  20967015.660    20967017.854    -3187538.073 9  -6785528.548 9
  21910123.123    21910128.160    -9022606.651 9 -11204210.823 9
  23167324.755    23167327.595   -10242157.578 9   -954927.108 8
 89 11  9 11 11 29.0800000  0  4G 2G 6G11G 9
  24202863.908    24202868.720     8191984.866 8   6457976.106 9
  20959698.422    20959701.216    -3225988.888 9  -6815490.233 9
  21894390.094    21894395.358    -9105287.993 8 -11268637.815 9
  23151120.615    23151124.517   -10327307.570 9  -1021277.736 8
 89 11  9 11 11 59.0800000  0  4G 2G 6G11G 9
  24218392.501    24218395.625     8273586.942 9   6521562.109 9
  20952428.258    20952431.057    -3264192.698 9  -6845259.449 9
  21878735.420    21878738.150    -9187556.523 9 -11332743.159 8
  23134922.552    23134927.480   -10412422.803 8  -1087601.278 8
 89 11  9 11 12 29.0800000  0  4G 2G 6G11G 9
  24233922.281    24233927.624     8355197.641 9   6585154.810 9
  20945205.524    20945209.232    -3302147.526 9  -6874834.632 9
  21863157.988    21863163.174    -9269410.172 9 -11396525.212 8
  23118733.493    23118737.625   -10497501.666 9  -1153896.466 8
 89 11  9 11 12 59.0800000  0  4G 2G 6G11G 9
  24249452.906    24249457.667     8436815.861 9   6648753.380 9
  20938030.604    20938034.330    -3339851.476 9  -6904214.333 9
  21847662.056    21847666.401    -9350846.324 9 -11459981.933 9
  23102550.736    23102555.398   -10582543.062 8  -1220162.473 8
 89 11  9 11 13 29.0800000  0  4G 2G 6G11G 9
  24264986.264    24264990.466     8518441.323 8   6712357.594 9
  20930904.398    20930907.951    -3377302.445 9  -6933396.892 9
  21832245.213    21832249.182    -9431863.027 9 -11523111.808 8
  23086375.084    23086380.087   -10667545.202 8  -1286397.889 8
 89 11  9 11 13 59.0800000  0  4G 2G 6G11G 9
  24280520.738    24280523.848     8600074.017 9   6775967.442 9
  20923826.298    20923829.205    -3414498.476 9  -6962380.817 9
  21816908.331    21816912.884    -9512457.637 9 -11585912.786 9
  23070207.206    23070213.042   -10752506.778 9  -1352601.703 8
 89 11  9 11 14 29.0800000  0  4G 2G 6G11G 9
  24296056.003    24296060.225     8681712.871 9   6839582.090 9
  20916796.812    20916799.770    -3451437.685 9  -6991164.604 9
  21801652.753    21801656.991    -9592628.005 9 -11648383.183 9
  23054048.696    23054052.577   -10837426.485 8  -1418772.889 8
 89 11  9 11 14 59.0800000  0  4G 2G 6G11G 9
  24311592.424    24311597.328     8763357.786 9   6903201.468 9
  20909816.101    20909819.517    -3488118.089 9  -7019746.727 9
  21786477.226    21786482.248    -9672371.788 9 -11710521.199 9
  23037896.139    23037901.024   -10922302.494 9  -1484910.034 9
 89 11  9 11 15 29.0800000  0  4G 2G 6G11G 9
  24327129.502    24327134.182     8845008.620 8   6966825.444 9
  20902886.214    20902890.212    -3524537.740 9  -7048125.685 8
  21771383.794    21771388.679    -9751686.783 9 -11772325.084 9
  23021754.335    23021758.807   -11007133.588 9  -1551012.175 9
 89 11  9 11 15 59.0800000  0  4G 2G 6G11G 9
  24342668.102    24342673.287     8926664.630 9   7030453.474 8
  20896006.980    20896008.891    -3560694.509 9  -7076299.789 9
  21756371.696    21756378.540    -9830570.763 9 -11833793.076 9
  23005619.321    23005624.935   -11091917.930 9  -1617077.876 9
 89 11  9 11 16 29.0800000  0  4G 2G 6G11G 9
  24358207.837    24358212.745     9008325.425 9   7094085.218 8
  20889176.973    20889178.748    -3596586.511 9  -7104267.580 9
  21741443.455    21741449.273    -9909021.623 9 -11894923.588 9
  22989494.550    22989499.688   -11176654.432 9  -1683106.284 9
 89 11  9 11 16 59.0800000  0  4G 2G 6G11G 9
  24373748.354    24373753.167     9089990.459 9   7157720.273 8
  20882396.873    20882399.984    -3632211.904 9  -7132027.612 9
  21726597.630    21726602.885    -9987037.298 9 -11955715.000 9
  22973380.578    22973384.756   -11261341.320 9  -1749096.036 9
 89 11  9 11 17 29.0800000  0  4G 2G 6G11G 9
  24389289.134    24389293.656     9171659.495 9   7221358.443 9
  20875668.720    20875671.258    -3667568.792 9  -7159578.432 9
  21711835.004    21711839.781   -10064615.554 9 -12016165.579 9
  22957274.471    22957277.712   -11345977.214 9  -1815046.070 9
 89 11  9 11 17 59.0800000  0  4G 2G 6G11G 9
  24404831.397    24404835.347     9253332.334 9   7284999.584 8
  20868991.988    20868994.545    -3702654.866 9  -7186918.219 8
  21697155.959    21697160.548   -10141754.061 9 -12076273.496 8
  22941179.222    22941181.891   -11430560.359 9  -1880954.998 8
 89 11  9 11 18 29.0800000  0  4G 2G 6G11G 9
  24420374.157    24420378.556     9335008.784 9   7348643.537 9
  20862367.389    20862370.897    -3737468.220 9  -7214045.506 9
  21682562.493    21682566.230   -10218450.683 9 -12136037.081 9
  22925093.173    22925096.618   -11515089.196 9  -1946821.615 8
 89 11  9 11 18 59.0800000  0  3G 6G11G 9
  20855795.482    20855798.414    -3772006.967 9  -7240958.814 8
  21668051.363    21668055.506   -10294703.184 9 -12195454.620 9
  22909018.146    22909022.553   -11599562.254 9  -2012644.788 9
 89 11  9 11 19 29.0800000  0  3G 6G11G 9
  20849274.833    20849277.625    -3806269.278 9  -7267656.720 9
  21653626.324    21653630.521   -10370509.476 9 -12254524.461 8
  22892954.792    22892958.845   -11683978.104 9  -2078423.356 7
 89 11  9 11 19 59.0800000  0  3G 6G11G 9
  20842807.617    20842811.352    -3840252.952 9  -7294137.512 9
  21639285.190    21639289.910   -10445867.747 9 -12313245.189 8
  22876902.139    22876906.546   -11768335.053 9  -2144156.049 8
 89 11  9 11 20 29.0800000  0  3G 6G11G 9
  20836392.488    20836397.126    -3873956.026 9  -7320399.636 9
  21625030.728    21625034.753   -10520775.684 9 -12371614.994 8
  22860861.191    22860865.020   -11852631.273 9  -2209841.395 9
 89 11  9 11 20 59.0800000  0  3G 6G11G 9
  20830034.398    20830037.985    -3907376.688 9  -7346441.722 9
  21610863.687    21610867.408   -10595231.538 9 -12429632.526 9
  22844831.881    22844835.577   -11936865.323 9  -2275478.292 9
 89 11  9 11 21 29.0800000  0  3G 6G11G 9
  20823728.593    20823732.022    -3940512.818 9  -7372262.069 9
  21596781.561    21596785.053   -10669233.020 9 -12487296.005 9
  22828815.659    22828817.987   -12021035.540 9  -2341065.448 9
 89 11  9 11 21 59.0800000  0  3G 6G11G 9
  20817479.359    20817480.403    -3973362.434 9  -7397859.173 9
  21582785.483    21582790.586   -10742778.323 9 -12544604.006 9
  22812810.970    22812814.238   -12105140.451 9  -2406601.714 9
 89 11  9 11 22 29.0800000  0  3G 6G11G 9
  20811282.674    20811285.163    -4005923.556 9  -7423231.481 9
  21568877.099    21568882.525   -10815865.243 9 -12601554.836 8
  22796818.875    22796821.588   -12189178.260 9  -2472085.695 9
 89 11  9 11 22 59.0800000  0  3G 6G11G 9
  20805140.967    20805145.104    -4038193.998 9  -7448377.276 8
  21555057.629    21555060.996   -10888491.749 9 -12658146.906 9
  22780839.227    22780842.617   -12273147.158 9  -2537515.990 9
 89 11  9 11 23 29.0800000  0  3G 6G11G 9
  20799055.690    20799059.023    -4070171.927 9  -7473295.139 9
  21541325.208    21541329.333   -10960655.930 9 -12714378.727 9
  22764874.096    22764877.947   -12357045.630 9  -2602891.415 9
 89 11  9 11 23 59.0800000  0  3G 6G11G 9
  20793026.824    20793029.285    -4101855.286 9  -7497983.465 8
  21527681.205    21527685.571   -11032355.815 9 -12770248.762 9
  22748922.678    22748925.558   -12440871.857 9  -2668210.535 8
 89 11  9 11 24 29.0800000  0  3G 6G11G 9
  20787052.878    20787057.440    -4133241.885 9  -7522440.553 8
  21514125.195    21514131.669   -11103589.190 9 -12825755.269 8
  22732985.376    22732988.323   -12524624.134 9  -2733472.057 8
 89 11  9 11 24 59.0800000  0  3G 6G11G 9
  20781138.083    20781141.269    -4164329.813 9  -7546664.889 9
  21500659.743    21500664.000   -11174354.322 9 -12880896.931 8
  22717061.667    22717064.955   -12608300.887 9  -2798674.714 8
 89 11  9 11 25 29.0800000  0  3G 6G11G 9
  20775279.435    20775281.995    -4195117.203 9  -7570655.062 8
  21487283.453    21487286.196   -11244649.541 9 -12935672.417 9
  22701153.701    22701157.143   -12691900.379 9  -2863817.156 8
 89 11  9 11 25 59.0800000  0  3G 6G11G 9
  20769477.516    20769481.418    -4225601.988 9  -7594409.440 9
  21473996.035    21474000.988   -11314472.828 9 -12990080.154 9
  22685260.289    22685262.898   -12775420.653 9  -2928897.864 9
 89 11  9 11 26 29.0800000  0  3G 6G11G 9
  20763735.684    20763739.092    -4255782.015 9  -7617926.356 9
  21460798.810    21460804.231   -11383822.164 9 -13044118.574 9
  22669381.732    22669384.692   -12858860.026 9  -2993915.545 9
 89 11  9 11 26 59.0800000  0  3G 6G11G 9
  20758049.954    20758053.601    -4285655.384 9  -7641204.304 9
  21447692.935    21447698.566   -11452695.698 9 -13097786.250 9
  22653520.841    22653522.524   -12942216.806 9  -3058868.865 8
 89 11  9 11 27 29.0800000  0  3G 6G11G 9
  20752424.001    20752426.578    -4315220.051 9  -7664241.699 9
  21434677.122    21434682.490   -11521091.553 9 -13151081.710 8
  22637674.573    22637676.672   -13025489.214 9  -3123756.427 9
 89 11  9 11 27 59.0800000  0  3G 6G11G 9
  20746857.865    20746861.228    -4344473.892 9  -7687036.883 9
  21421753.415    21421758.301   -11589008.066 9 -13204003.655 9
  22621843.846    22621846.975   -13108675.280 9  -3188576.730 9
 89 11  9 11 28 29.0800000  0  3G 6G11G 9
  20741350.825    20741353.248    -4373415.101 9  -7709588.476 8
  21408920.706    21408926.404   -11656443.518 9 -13256550.751 8
  22606031.407    22606034.340   -13191773.359 9  -3253328.476 9
 89 11  9 11 28 59.0800000  0  3G 6G11G 9
  20735902.026    20735905.815    -4402041.334 9  -7731894.620 8
  21396179.695    21396184.614   -11723395.961 9 -13308721.480 8
  22590234.878    22590238.160   -13274781.679 9  -3318010.275 8
 89 11  9 11 29 29.0800000  0  3G 6G11G 9
  20730515.183    20730518.086    -4430350.854 9  -7753953.990 8
  21383531.698    21383536.445   -11789863.696 9 -13360514.513 8
  22574455.807    22574459.526   -13357698.335 9  -3382620.641 9
 89 11  9 11 29 59.0800000  0  3G 6G11G 9
  20725189.098    20725191.899    -4458341.567 9  -7775764.952 8
  21370975.864    21370980.492   -11855844.784 9 -13411928.335 8
  22558695.234    22558699.374   -13440521.436 8  -3447158.101 8
 89 11  9 11 30 29.0800000  0  3G 6G11G 9
  20719924.622    20719927.198    -4486011.406 9  -7797325.845 9
  21358512.632    21358517.865   -11921337.803 9 -13462961.847 8
  22542952.557    22542957.457   -13523249.221 9  -3511621.292 8
 89 11  9 11 30 59.0800000  0  3G 6G11G 9
  20714720.857    20714722.901    -4513358.469 9  -7818635.237 9
  21346142.825    21346148.529   -11986340.681 9 -13513613.440 8
  22527229.367    22527232.820   -13605879.982 9  -3576008.874 9
 89 11  9 11 31 29.0800000  0  3G 6G11G 9
  20709578.580    20709580.928    -4540380.801 9  -7839691.602 8
  21333866.683    21333871.530   -12050852.022 8 -13563882.004 9
  22511525.028    22511526.660   -13688411.752 9  -3640319.334 8
 89 11  9 11 31 59.0800000  0  3G 6G11G 9
  20704497.700    20704500.754    -4567076.329 9  -7860493.314 9
  21321683.694    21321689.898   -12114870.238 9 -13613766.322 8
  22495838.108    22495841.322   -13770842.500 9  -3704551.082 8
 89 11  9 11 32 29.0800000  0  3G 6G11G 9
  20699481.008    20699483.217    -4593442.991 9  -7881038.770 8
  21309596.028    21309602.099   -12178393.758 9 -13663265.149 9
  22480170.906    22480174.427   -13853170.551 9  -3768702.788 8
 89 11  9 11 32 59.0800000  0  3G 6G11G 9
  20694525.929    20694528.755    -4619478.685 9  -7901326.315 9
  21297601.949    21297607.378   -12241420.604 9 -13712376.980 8
  22464525.006    22464528.350   -13935393.643 9  -3832772.731 9
 89 11  9 11 33 29.0800000  0  3G 6G11G 9
  20689635.760    20689637.017    -4645181.514 9  -7921354.499 9
  21285702.964    21285710.205   -12303949.284 9 -13761100.625 9
  22448897.776    22448902.564   -14017510.190 8  -3896759.622 8
 89 11  9 11 33 59.0800000  0  3G 6G11G 9
  20684808.173    20684810.126    -4670549.487 9  -7941121.755 8
  21273899.953    21273905.824   -12365978.174 9 -13809434.805 8
  22433292.418    22433295.781   -14099518.281 9  -3960661.999 8
 89 11  9 11 34 29.0800000  0  3G 6G11G 9
  20680043.930    20680046.126    -4695580.538 9  -7960626.456 8
  21262192.896    21262198.337   -12427505.586 9 -13857378.236 8
  22417707.886    22417711.796   -14181415.902 9  -4024478.316 9
 89 11  9 11 34 59.0800000  0  3G 6G11G 9
  20675346.074    20675348.606    -4720272.668 9  -7979867.072 8
  21250580.115    21250585.118   -12488530.160 9 -13904929.854 9
  22402144.654    22402148.231   -14263201.224 9  -4088207.135 7
 89 11  9 11 35 29.0800000  0  3G 6G11G 9
  20670712.202    20670714.596    -4744623.936 9  -7998842.100 9
  21239063.338    21239068.979   -12549050.451 9 -13952088.490 9
  22386603.420    22386606.989   -14344871.914 9  -4151846.640 9
 89 11  9 11 35 59.0800000  0  3G 6G11G 9
  20666142.881    20666146.222    -4768632.543 9  -8017550.116 9
  21227642.235    21227648.470   -12609064.945 9 -13998853.007 8
  22371083.577    22371087.991   -14426426.593 9  -4215395.747 9
 89 11  9 11 36 29.0800000  0  3G 6G11G 9
  20661639.830    20661642.588    -4792296.353 9  -8035989.448 9
  21216319.576    21216324.383   -12668572.224 9 -14045222.297 9
  22355586.186    22355591.347   -14507862.966 9  -4278852.633 9
 89 11  9 11 36 59.0800000  0  3G 6G11G 9
  20657202.968    20657205.883    -4815613.287 9  -8054158.479 8
  21205092.800    21205096.972   -12727570.719 9 -14091195.141 8
  22340112.913    22340117.114   -14589179.222 9  -4342215.938 8
 89 11  9 11 37 29.0800000  0  3G 6G11G 9
  20652832.504    20652834.753    -4838581.394 9  -8072055.702 8
  21193962.244    21193966.465   -12786059.025 9 -14136770.440 9
  22324662.780    22324666.977   -14670373.078 9  -4405483.846 9
 89 11  9 11 37 59.0800000  0  3G 6G11G 9
  20648528.902    20648531.302    -4861198.702 9  -8089679.586 9
  21182930.036    21182934.116   -12844035.921 9 -14181947.218 8
  22309235.736    22309239.607   -14751442.702 9  -4468654.965 8
 89 11  9 11 38 29.0800000  0  3G 6G11G 9
  20644290.432    20644294.108    -4883463.058 9  -8107028.425 9
  21171994.134    21171999.876   -12901499.531 9 -14226724.051 9
  22293832.462    22293836.420   -14832385.980 9  -4531727.628 9
 89 11  9 11 38 59.0800000  0  3G 6G11G 9
  20640121.640    20640124.785    -4905372.508 9  -8124100.722 9
  21161157.537    21161161.999   -12958448.799 9 -14271100.097 9
  22278454.306    22278457.405   -14913200.785 9  -4594700.183 8
 89 11  9 11 39 29.0800000  0  3G 6G11G 9
  20636020.104    20636023.395    -4926925.110 9  -8140894.960 8
  21150418.627    21150423.977   -13014882.158 9 -14315074.116 9
  22263100.724    22263104.066   -14993885.120 9  -4657571.084 8
 89 11  9 11 39 59.0800000  0  3G 6G11G 9
  20631987.425    20631990.614    -4948118.729 9  -8157409.475 9
  21139778.103    21139782.613   -13070798.372 9 -14358645.182 8
  22247773.126    22247774.701   -15074436.746 9  -4720338.567 8
 89 11  9 11 40 29.0800000  0  3G 6G11G 9
  20628023.490    20628025.606    -4968951.449 9  -8173642.778 8
  21129236.235    21129240.238   -13126196.146 9 -14401812.263 9
  22232470.218    22232471.892   -15154853.646 9  -4783001.069 8
 89 11  9 11 40 59.0800000  0  3G 6G11G 9
  20624127.176    20624131.446    -4989421.462 9  -8189593.424 7
  21118793.121    21118798.193   -13181073.977 9 -14444574.206 9
  22217192.131    22217195.359   -15235134.027 9  -4845557.185 9
 89 11  9 11 41 29.0800000  0  3G 6G11G 9
  20620303.098    20620303.464    -5009526.640 9  -8205259.775 9
  21108448.953    21108453.397   -13235430.777 9 -14486930.126 9
  22201941.623    22201944.351   -15315275.600 9  -4908005.145 7
 89 11  9 11 41 59.0800000  0  3G 6G11G 9
  20616545.698    20616550.089    -5029265.230 9  -8220640.484 8
  21098205.218    21098208.541   -13289265.429 9 -14528879.192 8
  22186717.901    22186721.187   -15395276.466 9  -4970343.461 8
 89 11  9 11 42 29.0800000  0  3G 6G11G 9
  20612858.960    20612863.577    -5048635.324 9  -8235734.072 9
  21088059.977    21088063.852   -13342576.578 9 -14570420.322 8
  22171520.631    22171524.804   -15475134.638 9  -5032570.595 9
 89 11  9 11 42 59.0800000  0  3G 6G11G 9
  20609244.054    20609247.800    -5067634.920 9  -8250538.962 9
  21078014.417    21078020.406   -13395363.173 9 -14611552.717 9
  22156352.391    22156356.257   -15554847.714 9  -5094684.667 8
 89 11  9 11 43 29.0800000  0  3G 6G11G 9
  20605700.176    20605704.011    -5086261.935 9  -8265053.512 9
  21068071.069    21068075.563   -13447623.731 8 -14652275.199 8
  22141211.960    22141214.902   -15634413.545 9  -5156684.006 9
 89 11  9 11 43 59.0800000  0  3G 6G11G 9
  20602226.867    20602230.016    -5104514.702 9  -8279276.451 9
  21058226.280    21058229.726   -13499357.393 9 -14692587.127 8
  22126099.573    22126102.618   -15713830.325 9  -5218567.188 8
 89 11  9 11 44 29.0800000  0  3G 6G11G 9
  20598825.260    20598828.324    -5122391.000 9  -8293206.027 9
  21048481.699    21048486.327   -13550562.753 9 -14732487.406 8
  22111016.051    22111019.013   -15793095.634 9  -5280332.365 8
 89 11  9 11 44 59.0800000  0  3G 6G11G 9
  20595495.069    20595497.767    -5139888.944 9  -8306840.790 9
  21038838.608    21038842.261   -13601238.834 9 -14771975.261 9
  22095961.255    22095964.408   -15872207.211 9  -5341977.752 9
 89 11  9 11 45 29.0800000  0  3G 6G11G 9
  20592237.952    20592240.569    -5157006.693 9  -8320179.298 9
  21029295.444    21029300.354   -13651384.608 9 -14811049.860 8
  22080936.011    22080939.840   -15951163.171 9  -5403501.848 9
 89 11  9 11 45 59.0800000  0  3G 6G11G 9
  20589052.039    20589054.549    -5173742.283 9  -8333220.022 8
  21019854.398    21019859.018   -13700998.769 9 -14849710.237 8
  22065942.601    22065945.497   -16029961.189 9  -5464902.885 9
 89 11  9 11 46 29.0800000  0  3G 6G11G 9
  20585940.922    20585945.205    -5190093.546 9  -8345961.269 8
  21010513.361    21010517.865   -13750080.342 9 -14887955.593 9
  22050977.589    22050981.556   -16108598.866 8  -5526178.976 9
 89 11  9 11 46 59.0800000  0  3G 6G11G 9
  20582904.079    20582905.806    -5206058.816 9  -8358401.730 8
  21001276.185    21001279.946   -13798628.341 9 -14925785.191 9
  22036043.170    22036046.810   -16187074.293 9  -5587328.635 9
 89 11  9 11 47 29.0800000  0  3G 6G11G 9
  20579938.172    20579942.153    -5221636.300 9  -8370540.024 9
  20992139.766    20992143.942   -13846641.931 9 -14963198.351 9
  22021142.530    22021144.543   -16265385.326 9  -5648350.191 9
 89 11  9 11 47 59.0800000  0  3G 6G11G 9
  20577049.122    20577052.641    -5236824.070 9  -8382374.643 9
  20983103.605    20983108.295   -13894120.035 9 -15000194.275 8
  22006271.512    22006275.526   -16343529.721 9  -5709241.923 8
 89 11  9 11 48 29.0800000  0  3G 6G11G 9
  20574232.669    20574236.462    -5251620.156 9  -8393904.073 9
  20974171.157    20974175.938   -13941061.711 9 -15036772.200 8
  21991433.317    21991435.984   -16421505.084 9  -5770001.931 9
 89 11  9 11 48 59.0800000  0  3G 6G11G 9
  20571492.703    20571496.665    -5266022.712 9  -8405126.842 9
  20965341.036    20965344.509   -13987466.042 9 -15072931.409 8
  21976627.090    21976630.515   -16499309.310 9  -5830628.596 9
 89 11  9 11 49 29.0800000  0  3G 6G11G 9
  20568827.951    20568830.710    -5280029.861 9  -8416041.510 9
  20956613.782    20956617.200   -14033331.989 9 -15108671.089 8
  21961853.984    21961857.994   -16576940.128 9  -5891120.137 9
 89 11  9 11 49 59.0800000  0  3G 6G11G 9
  20566237.151    20566240.403    -5293639.624 9  -8426646.526 8
  20947989.411    20947991.909   -14078658.758 9 -15143990.639 8
  21947115.526    21947119.315   -16654395.344 9  -5951474.842 9
 89 11  9 11 50 29.0800000  0  3G 6G11G 9
  20563723.337    20563727.127    -5306850.337 9  -8436940.597 9
  20939465.748    20939469.947   -14123445.510 9 -15178889.408 8
  21932408.908    21932413.441   -16731672.576 9  -6011690.842 9
 89 11  9 11 50 59.0800000  0  3G 6G11G 9
  20561285.049    20561289.025    -5319659.943 9  -8446922.101 9
  20931045.962    20931051.142   -14167691.354 9 -15213366.674 8
  21917738.695    21917742.263   -16808769.628 9  -6071766.456 8
 89 11  9 11 51 29.0800000  0  3G 6G11G 9
  20558923.395    20558928.234    -5332066.594 9  -8456589.623 9
  20922729.603    20922733.789   -14211395.245 9 -15247421.641 9
  21903102.785    21903105.612   -16885684.103 9  -6131699.806 9
 89 11  9 11 51 59.0800000  0  3G 6G11G 9
  20556640.190    20556644.020    -5344068.630 9  -8465941.849 9
  20914515.816    20914519.955   -14254556.484 9 -15281053.771 9
  21888501.188    21888505.347   -16962413.918 8  -6191489.256 9
 89 11  9 11 52 29.0800000  0  3G 6G11G 9
  20554433.650    20554438.029    -5355664.368 9  -8474977.491 9
  20906406.077    20906409.617   -14297174.540 9 -15314262.637 8
  21873935.193    21873939.682   -17038956.922 9  -6251133.147 9
 89 11  9 11 52 59.0800000  0  3G 6G11G 9
  20552304.665    20552308.841    -5366851.783 9  -8483694.966 9
  20898399.744    20898403.618   -14339248.721 9 -15347047.709 8
  21859406.565    21859410.022   -17115310.638 9  -6310629.533 9
 89 11  9 11 53 29.0800000  0  3G 6G11G 9
  20550255.038    20550257.952    -5377629.173 8  -8492092.939 8
  20890496.691    20890499.907   -14380778.254 9 -15379408.381 8
  21844912.212    21844917.032   -17191472.771 9  -6369976.641 9
 89 11  9 11 53 59.0800000  0  3G 6G11G 9
  20548282.137    20548284.384    -5387994.700 9  -8500169.955 9
  20882696.579    20882701.150   -14421762.207 9 -15411343.918 8
  21830455.748    21830460.531   -17267441.155 8  -6429172.770 8
 89 11  9 11 54 29.0800000  0  3G 6G11G 9
  20546387.510    20546391.040    -5397946.442 9  -8507924.575 9
  20875001.206    20875006.224   -14462200.023 9 -15442853.895 8
  21816037.729    21816041.678   -17343213.126 9  -6488215.849 8
 89 11  9 11 54 59.0800000  0  3G 6G11G 9
  20544573.441    20544577.540    -5407482.680 9  -8515355.412 9
  20867410.874    20867416.469   -14502090.902 9 -15473937.685 9
  21801656.952    21801661.105   -17418786.562 8  -6547104.215 9
 89 11  9 11 55 29.0800000  0  3G 6G11G 9
  20542838.617    20542842.338    -5416601.715 9  -8522461.170 8
  20859924.358    20859927.985   -14541434.566 9 -15504595.076 8
  21787314.361    21787316.894   -17494159.134 9  -6605836.074 9
 89 11  9 11 55 59.0800000  0  3G 6G11G 9
  20541183.464    20541187.270    -5425301.597 9  -8529240.294 9
  20852541.535    20852546.804   -14580230.264 9 -15534825.486 8
  21773009.328    21773012.065   -17569328.218 9  -6664409.368 9
 89 11  9 11 56 29.0800000  0  3G 6G11G 9
  20539607.734    20539611.291    -5433580.756 9  -8535691.587 9
  20845264.529    20845267.904   -14618477.368 9 -15564628.418 8
  21758743.597    21758747.189   -17644291.730 9  -6722822.482 8
 89 11  9 11 56 59.0800000  0  3G 6G11G 9
  20538112.211    20538114.362    -5441437.175 9  -8541813.468 9
  20838089.957    20838094.620   -14656175.095 9 -15594003.260 8
  21744518.637    21744521.423   -17719047.105 9  -6781073.408 9
 89 11  9 11 57 29.0800000  0  3G 6G11G 9
  20536697.833    20536701.037    -5448869.177 8  -8547604.659 8
  20831021.413    20831025.724   -14693323.068 9 -15622949.716 8
  21730332.561    21730336.304   -17793592.219 9  -6839160.484 9
 89 11  9 11 57 59.0800000  0  3G 6G11G 9
  20535364.526    20535368.629    -5455875.246 9  -8553063.923 8
  20824058.118    20824061.802   -14729920.782 9 -15651467.383 9
  21716189.356    21716191.468   -17867924.321 9  -6897081.584 9
 89 11  9 11 58 29.0800000  0  4G13G 6G11G 9
                  23470498.076   -35036459.429 9
  20534112.837    20534116.148    -5462453.592 9  -8558189.896 8
  20817198.258    20817201.988   -14765967.937 9 -15679556.061 9
  21702084.739    21702087.556   -17942041.333 9  -6954835.107 8
 89 11  9 11 58 59.0800000  0  4G13G 6G11G 9
  23449610.728    23449615.304   -35146395.254 9  44537145.113 9
  20532941.121    20532946.012    -5468602.355 9  -8562981.165 8
  20810444.052    20810447.603   -14801463.803 9 -15707215.178 9
  21688022.426    21688024.825   -18015940.885 9  -7012419.172 8
 89 11  9 11 59 29.0800000  0  4G13G 6G11G 9
  23428735.607    23428740.261   -35256094.331 9  44451665.332 8
  20531854.340    20531858.391    -5474319.885 8  -8567436.380 8
  20803793.690    20803797.349   -14836407.776 9 -15734444.239 8
  21674000.886    21674004.744   -18089620.436 9  -7069831.800 9
 89 11  9 11 59 59.0800000  0  4G13G 6G11G 9
  23407905.270    23407910.979   -35365554.215 9  44366371.931 7
  20530849.677    20530851.698    -5479604.162 9  -8571553.986 9
  20797248.030    20797253.663   -14870799.591 8 -15761243.050 8
  21660023.246    21660026.219   -18163077.091 9  -7127070.737 9
 89 11  9 12  0 29.0800000  0  4G13G 6G11G 9
  23387121.712    23387127.132   -35474772.630 9  44281266.701 8
  20529927.114    20529930.198    -5484453.548 9  -8575332.712 8
  20790808.442    20790814.115   -14904638.584 9 -15787611.088 9
  21646086.474    21646090.934   -18236308.750 9  -7184134.351 9
 89 11  9 12  0 59.0800000  0  4G13G 6G11G 9
  23366384.229    23366389.398   -35583747.260 9  44196351.405 8
  20529086.574    20529089.815    -5488866.691 9  -8578771.542 8
  20784475.970    20784480.317   -14937924.762 9 -15813548.362 9
  21632194.823    21632198.053   -18309313.135 9  -7241020.863 8
 89 11  9 12  1 29.0800000  0  4G13G 6G11G 9
  23345694.379    23345698.984   -35692475.749 9  44111627.921 9
  20528329.849    20528334.208    -5492841.865 9  -8581869.084 9
  20778246.304    20778250.487   -14970657.567 9 -15839054.426 8
  21618345.738    21618349.077   -18382087.652 9  -7297728.265 9
 89 11  9 12  1 59.0800000  0  4G13G 6G11G 9
  23325051.503    23325055.933   -35800955.661 9  44027098.123 8
  20527657.521    20527661.218    -5496377.424 9  -8584624.054 9
  20772123.073    20772126.980   -15002836.729 9 -15864129.090 8
  21604541.946    21604544.984   -18454630.000 9  -7354254.764 8
 89 11  9 12  2 29.0800000  0  4G13G 6G11G 9
  23304455.029    23304461.345   -35909184.328 9  43942764.108 8
  20527068.250    20527071.532    -5499471.861 9  -8587035.319 9
  20766103.886    20766108.199   -15034462.240 9 -15888772.334 8
  21590781.616    21590785.712   -18526937.883 9  -7410598.561 8
 89 11  9 12  2 59.0800000  0  4G13G 6G11G 9
  23283908.449    23283914.081   -36017159.948 9  43858627.267 8
  20526562.978    20526566.818    -5502123.258 9  -8589101.354 9
  20760192.352    20760194.755   -15065533.774 9 -15912983.921 8
  21577067.380    21577070.809   -18599008.591 9  -7466757.540 8
 89 11  9 12  3 29.0800000  0  4G13G 6G11G 9
  23263409.701    23263416.214   -36124879.960 9  43774689.628 8
  20526141.920    20526147.739    -5504330.272 8  -8590821.102 8
  20754384.818    20754388.792   -15096050.954 9 -15936763.536 7
  21563398.170    21563401.113   -18670839.793 9  -7522729.887 8
 89 11  9 12  3 59.0800000  0  4G13G 6G11G 9
  23242959.489    23242966.584   -36232341.855 8  43690953.122 8
  20525808.373    20525812.850    -5506091.145 9  -8592193.221 9
  20748682.013    20748687.651   -15126013.663 9 -15960111.079 9
  21549775.342    21549778.507   -18742429.053 9  -7578513.719 9
 89 11  9 12  4 29.0800000  0  4G13G 6G11G 9
  23222561.312    23222564.938   -36339542.938 9  43607419.854 8
  20525559.812    20525561.839    -5507404.314 9  -8593216.464 9
  20743086.363    20743091.264   -15155421.267 8 -15983026.084 8
  21536198.503    21536201.249   -18813773.764 9  -7634106.980 8
 89 11  9 12  4 59.0800000  0  4G13G 6G11G 9
  23202212.009    23202216.519   -36446480.714 9  43524091.749 8
  20525395.521    20525397.160    -5508268.270 9  -8593889.686 8
  20737595.296    20737599.082   -15184273.861 9 -16005508.608 8
  21522669.895    21522672.423   -18884871.590 9  -7689507.866 8
 89 11  9 12  5 29.0800000  0  4G13G 6G11G 9
  23181913.263    23181917.436   -36553152.525 9  43440970.874 8
  20525316.598    20525318.631    -5508681.487 9  -8594211.683 8
  20732210.954    20732214.921   -15212571.331 8 -16027558.572 9
  21509188.164    21509190.320   -18955720.046 9  -7744714.446 8
 89 11  9 12  5 59.0800000  0  4G13G 6G11G 9
  23161664.674    23161669.792   -36659555.993 9  43358059.082 8
  20525323.965    20525327.605    -5508641.901 9  -8594180.845 8
  20726931.555    20726936.516   -15240312.993 9 -16049175.420 8
  21495753.827    21495755.935   -19026316.169 9  -7799724.402 8
 89 11  9 12  6 29.0800000  0  4G13G 6G11G 9
  23141468.245    23141473.403   -36765689.788 9  43275357.433 7
  20525417.445    20525419.180    -5508148.945 9  -8593796.723 9
  20721758.875    20721762.672   -15267499.860 9 -16070359.976 8
  21482368.033    21482371.564   -19096658.370 9  -7854536.498 8
 89 11  9 12  6 59.0800000  0  4G13G 6G11G 9
  23121324.211    23121328.046   -36871550.832 9  43192868.315 8
  20525597.622    20525600.710    -5507200.508 9  -8593057.678 8
  20716690.518    20716695.036   -15294130.911 8 -16091111.445 8
  21469030.703    21469035.038   -19166743.417 9  -7909148.219 9
 89 11  9 12  7 29.0800000  0  4G13G 6G11G 9
  23101230.882    23101235.433   -36977137.422 9  43110593.053 8
  20525864.505    20525868.627    -5505795.123 8  -8591962.587 8
  20711729.915    20711733.089   -15320206.488 9 -16111430.075 9
  21455743.471    21455747.541   -19236569.353 9  -7963558.037 8
 89 11  9 12  7 59.0800000  0  4G13G 6G11G 9
  23081191.585    23081196.376   -37082446.818 9  43028533.803 8
  20526218.774    20526222.469    -5503931.238 9  -8590510.209 8
  20706872.066    20706876.909   -15345726.592 8 -16131315.858 8
  21442506.600    21442510.615   -19306133.040 9  -8017763.488 9
 89 11  9 12  8 29.0800000  0  4G13G 6G11G 9
  23061205.650    23061209.882   -37187476.451 9  42946692.527 8
  20526663.144    20526664.787    -5501607.271 8  -8588699.320 9
  20702122.641    20702125.860   -15370690.964 8 -16150768.605 7
  21429319.724    21429322.933   -19375432.451 9  -8071763.024 9
 89 11  9 12  8 59.0800000  0  4G13G 6G11G 9
  23041272.647    23041276.634   -37292223.840 9  42865071.207 8
  20527193.132    20527195.478    -5498822.025 8  -8586529.013 8
  20697477.525    20697482.303   -15395099.674 9 -16169788.379 8
  21416182.283    21416185.888   -19444464.745 9  -8125554.408 9
 89 11  9 12  9 29.0800000  0  4G13G 6G11G 9
  23021394.237    23021397.932   -37396687.017 9  42783671.323 8
  20527811.618    20527813.414    -5495573.758 9  -8583997.904 8
  20692938.369    20692943.679   -15418952.629 8 -16188375.087 8
  21403097.984    21403100.207   -19513227.429 9  -8179135.705 9
 89 11  9 12  9 59.0800000  0  4G13G 6G11G 9
  23001568.948    23001575.164   -37500863.795 9  42702494.627 9
  20528517.036    20528520.407    -5491861.290 9  -8581105.059 9
  20688505.754    20688509.142   -15442250.364 9 -16206529.160 8
  21390064.743    21390066.965   -19581718.155 9  -8232505.108 8
 89 11  9 12 10 29.0800000  0  4G13G 6G11G 9
  22981799.409    22981805.215   -37604751.631 8  42621543.099 9
  20529312.526    20529315.254    -5487683.314 9  -8577849.501 8
  20684176.133    20684181.380   -15464992.809 9 -16224250.527 8
  21377083.424    21377086.437   -19649934.641 9  -8285660.807 8
 89 11  9 12 10 59.0800000  0  4G13G 6G11G 9
  22962085.473    22962091.778   -37708348.562 8  42540818.254 9
  20530195.607    20530198.433    -5483038.222 9  -8574229.951 8
  20679954.279    20679959.417   -15487179.934 8 -16241539.201 8
  21364155.115    21364158.487   -19717874.039 9  -8338600.603 9
 89 11  9 12 11 29.0800000  0  4G13G 6G11G 9
  22942427.992    22942432.577   -37811651.795 9  42460322.275 8
  20531168.757    20531172.059    -5477924.611 9  -8570245.335 8
  20675838.164    20675842.455   -15508812.174 9 -16258395.471 8
  21351279.999    21351283.761   -19785533.773 9  -8391322.470 9
 89 11  9 12 11 59.0800000  0  4G13G 6G11G 9
  22922827.076    22922831.146   -37914659.169 9  42380056.840 9
  20532230.511    20532234.607    -5472341.093 9  -8565894.545 9
  20671827.310    20671831.977   -15529889.535 9 -16274819.373 8
  21338458.361    21338461.265   -19852911.458 9  -8443824.551 9
 89 11  9 12 12 29.0800000  0  4G13G 6G11G 9
  22903282.563    22903285.848   -38017368.729 9  42300023.440 9
  20533383.233    20533386.489    -5466286.292 9  -8561176.515 8
  20667922.322    20667926.536   -15550412.036 9 -16290810.924 8
  21325690.964    21325694.131   -19920004.307 9  -8496104.684 8
 89 11  9 12 12 59.0800000  0  4G13G 6G11G 9
  22883794.027    22883798.133   -38119778.130 9  42220223.928 9
  20534625.996    20534628.559    -5459758.838 9  -8556090.189 8
  20664122.803    20664128.206   -15570379.948 9 -16306370.345 9
  21312978.285    21312981.286   -19986809.899 9  -8548160.975 9
 89 11  9 12 13 29.0800000  0  4G13G 6G11G 9
  22864363.477    22864367.956   -38221885.900 9  42140659.455 8
  20535956.968    20535960.463    -5452758.442 9  -8550635.343 8
  20660428.236    20660432.658   -15589794.697 8 -16321498.717 8
  21300320.279    21300323.197   -20053326.794 9  -8599992.289 9
 89 11  9 12 13 59.0800000  0  4G13G 6G11G 9
  22844990.788    22844994.983   -38323689.093 9  42061332.307 7
  20537379.731    20537383.540    -5445283.216 9  -8544810.492 9
  20656837.726    20656842.530   -15608655.808 8 -16336195.662 8
  21287717.799    21287720.584   -20119551.845 9  -8651596.217 8
 89 11  9 12 14 29.0800000  0  4G13G 6G11G 9
  22825677.316    22825681.588   -38425185.402 9  41982244.289 8
  20538894.539    20538895.920    -5437331.311 8  -8538614.204 9
  20653354.927    20653360.628   -15626963.124 8 -16350461.080 9
  21275172.187    21275174.637   -20185481.874 9  -8702970.268 8
 89 11  9 12 14 59.0800000  0  4G13G 6G11G 9
  22806422.020    22806426.395   -38526372.642 9  41903397.100 7
  20540498.560    20540500.798    -5428901.421 9  -8532045.455 9
  20649977.649    20649981.058   -15644716.731 8 -16364295.038 9
  21262682.101    21262684.640   -20251114.339 9  -8754112.439 8
 89 11  9 12 15 29.0800000  0  4G13G 6G11G 9
  22787225.688    22787230.513   -38627248.160 9  41824792.803 7
  20542192.574    20542196.404    -5419992.163 9  -8525103.183 8
  20646702.584    20646708.847   -15661916.902 9 -16377697.764 9
  21250249.272    21250253.141   -20316446.546 9  -8805020.644 9
 89 11  9 12 15 59.0800000  0  4G13G 6G11G 9
  22768089.067    22768093.877   -38727809.607 9  41746433.246 8
  20543978.956    20543983.393    -5410602.156 9  -8517786.303 8
  20643535.625    20643540.270   -15678563.942 8 -16390669.465 8
  21237873.910    21237878.545   -20381475.748 9  -8855692.738 8
 89 11  9 12 16 29.0800000  0  4G13G 6G11G 9
  22749013.007    22749018.067   -38828055.200 9  41668319.800 7
  20545856.743    20545861.401    -5400730.235 9  -8510093.904 8
  20640471.996    20640478.558   -15694658.269 9 -16403210.490 8
  21225558.426    21225562.529   -20446199.574 9  -8906126.889 8
 89 11  9 12 16 59.0800000  0  4G13G 6G11G 9
  22729997.269    22730001.522   -38927982.830 9  41590454.129 8
  20547827.303    20547832.133    -5390375.441 8  -8502025.237 8
  20637514.066    20637519.805   -15710200.707 8 -16415321.473 7
  21213300.255    21213303.975   -20510615.690 9  -8956321.251 9
 89 11  9 12 17 29.0800000  0  4G13G 6G11G 9
  22711042.449    22711046.393   -39027590.009 9  41512838.156 8
  20549890.261    20549895.653    -5379536.403 8  -8493579.245 8
  20634663.383    20634667.142   -15725191.310 7 -16427002.465 9
  21201102.555    21201103.994   -20574721.092 9  -9006273.515 8
 89 11  9 12 17 59.0800000  0  4G13G 6G11G 9
  22692149.839    22692154.782   -39126874.556 9  41435473.585 7
  20552045.287    20552050.400    -5368211.510 9  -8484754.655 9
  20631915.141    20631918.509   -15739630.313 9 -16438253.627 8
  21188963.600    21188966.160   -20638513.189 9  -9055981.634 9
 89 11  9 12 18 29.0800000  0  4G13G 6G11G 9
  22673316.973    22673322.880   -39225834.247 9  41358362.166 8
  20554293.702    20554298.436    -5356399.751 9  -8475550.695 9
  20629273.159    20629277.000   -15753518.083 9 -16449075.262 9
  21176884.302    21176886.428   -20701989.376 9  -9105443.573 9
 89 11  9 12 18 59.0800000  0  4G13G 6G11G 9
  22654547.920    22654554.565   -39324466.731 9  41281505.712 8
  20556635.099    20556638.929    -5344100.164 9  -8465966.596 9
  20626734.543    20626740.174   -15766855.467 8 -16459467.999 8
  21164865.819    21164867.841   -20765147.424 9  -9154657.607 9
 89 11  9 12 19 29.0800000  0  4G13G 6G11G 9
  22635841.913    22635847.577   -39422770.864 9  41204905.126 8
  20559069.015    20559071.271    -5331311.469 9  -8456001.381 8
  20624301.624    20624305.603   -15779642.792 8 -16469432.140 8
  21152907.780    21152910.584   -20827984.346 9  -9203621.432 9
 89 11  9 12 19 59.0800000  0  4G13G 6G11G 9
  22617198.501    22617204.273   -39520743.889 9  41128562.537 9
  20561596.511    20561597.829    -5318032.487 9  -8445654.125 9
  20621972.689    20621976.882   -15791880.541 9 -16478968.024 9
  21141011.383    21141014.660   -20890497.834 9  -9252333.244 9
 89 11  9 12 20 29.0800000  0  4G13G 6G11G 9
  22598618.638    22598623.718   -39618383.677 9  41052479.606 9
  20564216.428    20564219.510    -5304262.236 9  -8434924.071 8
  20619748.573    20619751.310   -15803569.344 8 -16488076.200 8
  21129177.594    21129180.409   -20952685.221 9  -9300790.928 9
 89 11  9 12 20 59.0800000  0  4G13G 6G11G 9
  22580101.410    22580106.326   -39715688.112 9  40976657.986 9
  20566929.802    20566933.559    -5289999.451 9  -8423810.222 9
  20617627.541    20617632.602   -15814710.006 9 -16496757.205 8
  21117406.489    21117409.748   -21014543.687 9  -9348992.327 8
 89 11  9 12 21 29.0800000  0  4G13G 6G11G 9
  22561649.483    22561654.328   -39812655.346 9  40901099.117 9
  20569737.989    20569741.492    -5275243.059 7  -8412311.739 9
  20615611.367    20615615.768   -15825303.043 8 -16505011.537 9
  21105698.459    21105701.216   -21076070.845 9  -9396935.566 8
 89 11  9 12 21 59.0800000  0  4G13G 6G11G 9
  22543261.902    22543266.646   -39909283.632 9  40825804.366 9
  20572639.444    20572643.233    -5259992.093 9  -8400427.877 8
  20613701.007    20613705.338   -15835348.810 8 -16512839.406 9
  21094053.590    21094056.323   -21137264.049 9  -9444618.579 9
 89 11  9 12 22 29.0800000  0  4G13G 6G11G 9
  22524939.141    22524943.128   -40005570.340 9  40750775.783 8
  20575634.996    20575639.647    -5244245.389 9  -8388157.708 9
  20611892.408    20611897.935   -15844847.883 8 -16520241.269 8
  21082472.234    21082475.215   -21198120.685 9  -9492039.326 9
 89 11  9 12 22 59.0800000  0  4G13G 6G11G 9
  22506682.741    22506686.910   -40101513.197 9  40676015.126 8
  20578726.617    20578730.948    -5228001.855 9  -8375500.411 9
  20610189.150    20610193.481   -15853801.052 8 -16527217.768 8
  21070955.718    21070959.719   -21258638.136 9  -9539195.783 9
 89 11  9 12 23 29.0800000  0  4G13G 6G11G 9
  22488490.473    22488495.030   -40197110.747 9  40601523.538 9
  20581912.994    20581916.542    -5211260.594 9  -8362455.286 7
  20608589.513    20608594.504   -15862209.095 9 -16533769.484 9
  21059503.889    21059509.326   -21318813.759 9  -9586085.880 8
 89 11  9 12 23 59.0800000  0  4G13G 6G11G 9
  22470365.180    22470369.498   -40292360.872 9  40527302.682 9
  20585193.818    20585198.286    -5194020.593 9  -8349021.526 8
  20607093.004    20607097.610   -15870072.500 8 -16539896.805 8
  21048119.305    21048123.965   -21378644.861 9  -9632707.513 9
 89 11  9 12 24 29.0800000  0  4G13G 6G11G 9
  22452305.760    22452309.317   -40387261.016 9  40453354.540 8
  20588568.328    20588574.371    -5176280.714 9  -8335198.256 8
  20605700.332    20605703.892   -15877391.850 9 -16545600.191 8
  21036800.064    21036804.656   -21438128.947 9  -9679058.733 8
 89 11  9 12 24 59.0800000  0  4G13G 6G11G 9
  22434313.450    22434319.011   -40481808.911 9  40379680.882 8
  20592041.042    20592044.804    -5158039.971 9  -8320984.689 9
  20604409.366    20604415.165   -15884168.052 9 -16550880.333 8
  21025548.039    21025550.620   -21497263.214 9  -9725137.378 9
 89 11  9 12 25 29.0800000  0  4G13G 6G11G 9
  22416390.025    22416394.478   -40576003.000 9  40306282.907 8
  20595608.164    20595611.162    -5139297.427 9  -8306380.114 9
  20603223.764    20603227.442   -15890402.136 8 -16555738.053 8
  21014362.247    21014365.098   -21556045.295 9  -9770941.590 8
 89 11  9 12 25 59.0800000  0  4G13G 6G11G 9
  22398532.375    22398536.517   -40669841.501 9  40233162.014 8
  20599270.412    20599272.189    -5120052.265 8  -8291383.905 8
  20602140.005    20602145.369   -15896094.593 8 -16560173.728 9
  21003243.384    21003246.393   -21614472.491 8  -9816469.260 9
 89 11  9 12 26 29.0800000  0  4G13G 6G11G 9
  22380743.708    22380747.331   -40763322.473 9  40160319.709 8
  20603028.582    20603030.621    -5100303.611 8  -8275995.357 9
  20601159.358    20601164.958   -15901246.567 8 -16564188.239 8
  20992193.615    20992197.077   -21672542.240 9  -9861718.404 9
 89 11  9 12 26 59.0800000  0  4G13G 6G11G 9
  22363023.353    22363026.670   -40856443.569 9  40087757.843 8
  20606881.861    20606885.669    -5080050.480 9  -8260213.704 9
  20600282.411    20600286.705   -15905858.502 9 -16567781.944 8
  20981211.738    20981215.805   -21730251.990 9  -9906687.027 9
 89 11  9 12 27 29.0800000  0  4G13G 6G11G 9
  22345371.636    22345374.945   -40949203.719 9  40015477.228 7
  20610832.067    20610836.191    -5059292.206 9  -8244038.435 8
  20599509.120    20599512.860   -15909931.388 9 -16570955.617 7
  20970299.823    20970301.505   -21787599.206 9  -9951373.142 9
 89 11  9 12 27 59.0800000  0  4G13G 6G11G 9
  22327789.548    22327791.581   -41041600.424 9  39943479.787 7
  20614879.001    20614881.445    -5038027.696 9  -8227468.674 8
  20598835.072    20598839.340   -15913465.874 8 -16573709.752 8
  20959456.096    20959459.001   -21844581.200 9  -9995774.688 9
 89 11  9 12 28 29.0800000  0  4G13G 6G11G 9
  22310276.184    22310280.522   -41133632.144 9  39871766.764 8
  20619021.800    20619023.960    -5016256.271 9  -8210503.932 8
  20598264.933    20598268.658   -15916463.187 9 -16576045.331 9
  20948682.056    20948685.161   -21901195.263 9 -10039889.544 7
 89 11  9 12 28 59.0800000  0  4G13G 6G11G 9
  22292832.545    22292837.809   -41225296.283 9  39800340.157 7
  20623260.794    20623265.115    -4993976.921 9  -8193143.400 9
  20597796.988    20597800.967   -15918924.135 9 -16577962.947 9
  20937979.819    20937982.552   -21957438.730 9 -10083715.618 9
 89 11  9 12 29 29.0800000  0  4G13G 6G11G 9
  22275460.488    22275465.415   -41316591.136 9  39729201.324 8
  20627598.573    20627601.139    -4971188.984 9  -8175386.579 8
  20597431.087    20597435.908   -15920849.864 8 -16579463.510 8
  20927348.040    20927350.668   -22013309.172 9 -10127251.023 8
 89 11  9 12 29 59.0800000  0  4G13G 6G11G 9
  22258157.698    22258162.457   -41407514.779 9  39658351.750 8
  20632032.012    20632034.793    -4947891.564 9  -8157232.755 8
  20597165.489    20597169.978   -15922241.043 9 -16580547.536 8
  20916787.235    20916790.649   -22068804.067 9 -10170493.802 8
 89 11  9 12 30 29.0800000  0  4G13G 6G11G 9
  22240926.562    22240932.071   -41498065.401 9  39587792.847 9
  20636561.879    20636565.051    -4924083.908 9  -8138681.338 9
  20597002.291    20597006.535   -15923098.620 8 -16581215.771 9
  20906298.921    20906301.439   -22123920.808 9 -10213441.906 9
 89 11  9 12 30 59.0800000  0  4G13G 6G11G 9
  22223767.442    22223771.386   -41588241.356 9  39517525.901 9
  20641189.255    20641191.744    -4899765.438 9  -8119731.890 8
  20596940.174    20596944.708   -15923423.899 9 -16581469.222 9
  20895882.610    20895886.954   -22178656.718 9 -10256093.257 8
 89 11  9 12 31 29.0800000  0  4G13G 6G11G 9
  22206678.809    22206682.827   -41678041.007 9  39447552.174 9
  20645914.580    20645917.212    -4874935.429 9  -8100383.839 8
  20596978.020    20596984.220   -15923217.567 8 -16581308.439 8
  20885539.943    20885542.733   -22233009.050 9 -10298445.723 9
 89 11  9 12 31 59.0800000  0  4G13G 6G11G 9
  22189663.199    22189666.536   -41767462.241 9  39377873.304 8
  20650736.732    20650739.172    -4849592.903 9  -8080636.407 9
  20597119.920    20597125.154   -15922480.603 9 -16580734.151 9
  20875270.560    20875273.463   -22286975.216 9 -10340497.276 8
 89 11  9 12 32 29.0800000  0  4G13G 6G11G 9
  22172718.597    22172723.055   -41856503.238 9  39308490.721 9
  20655657.359    20655660.206    -4823737.213 9  -8060489.121 9
  20597360.960    20597365.318   -15921214.050 9 -16579747.237 8
  20865075.278    20865078.080   -22340552.761 9 -10382246.008 9
 89 11  9 12 32 59.0800000  0  4G13G 6G11G 9
  22155847.217    22155851.078   -41945161.972 9  39239406.010 9
  20660674.920    20660677.773    -4797367.675 9  -8039941.442 9
  20597701.325    20597706.588   -15919419.233 8 -16578348.690 9
  20854953.537    20854957.771   -22393739.012 9 -10423689.844 8
 89 11  9 12 33 29.0800000  0  4G13G 6G11G 9
  22139048.843    22139054.086   -42033437.042 9  39170620.259 8
  20665791.378    20665794.392    -4770483.696 9  -8018992.895 7
  20598143.447    20598147.787   -15917097.062 9 -16576539.203 8
  20844908.529    20844911.057   -22446531.325 9 -10464826.698 8
 89 11  9 12 33 59.0800000  0  4G13G 6G11G 9
  22122323.201    22122328.618   -42121326.966 9  39102134.629 9
  20671004.538    20671006.867    -4743084.912 9  -7997643.190 7
  20598684.936    20598689.848   -15914248.991 8 -16574319.915 9
  20834937.997    20834940.061   -22498927.510 9 -10505654.880 9
 89 11  9 12 34 29.0800000  0  4G13G 6G11G 9
  22105672.239    22105677.059   -42208829.321 9  39033951.007 9
  20676316.116    20676319.821    -4715170.736 9  -7975891.902 9
  20599326.911    20599331.008   -15910876.370 7 -16571691.896 8
  20825043.181    20825046.032   -22550925.129 9 -10546172.486 9
 89 11  9 12 34 59.0800000  0  4G13G 6G11G 9
  22089095.447    22089099.075   -42295942.894 9  38966070.310 9
  20681726.063    20681729.873    -4686740.623 9  -7953738.573 9
  20600067.898    20600072.296   -15906980.109 8 -16568655.855 8
  20815224.220    20815226.925   -22602521.528 9 -10586377.464 8
 89 11  9 12 35 29.0800000  0  4G13G 6G11G 9
  22072592.946    22072597.754   -42382665.576 9  38898494.199 9
  20687234.741    20687238.315    -4657793.527 9  -7931182.400 8
  20600909.383    20600914.334   -15902561.020 8 -16565212.410 9
  20805482.931    20805485.229   -22653713.583 9 -10626267.371 8
 89 11  9 12 35 59.0800000  0  4G13G 6G11G 9
  22056164.173    22056169.314   -42468996.152 9  38831223.648 8
  20692842.352    20692845.368    -4628329.323 9  -7908223.290 9
  20601850.740    20601855.436   -15897620.392 9 -16561362.582 8
  20795818.778    20795822.464   -22704499.131 9 -10665840.528 9
 89 11  9 12 36 29.0800000  0  4G13G 6G11G 9
  22039811.216    22039815.059   -42554932.187 9  38764260.527 7
  20698547.371    20698550.753    -4598346.993 9  -7884860.437 9
  20602889.763    20602894.527   -15892159.436 9 -16557107.275 8
  20786232.754    20786236.135   -22754875.223 9 -10705094.613 9
 89 11  9 12 36 59.0800000  0  4G13G 6G11G 9
  22023534.258    22023537.992   -42640471.978 9  38697606.146 9
  20704350.705    20704355.060    -4567846.014 9  -7861093.452 8
  20604026.921    20604032.878   -15886179.339 8 -16552447.445 9
  20776724.639    20776727.276   -22804839.359 9 -10744027.713 9
 89 11  9 12 37 29.0800000  0  4G13G 6G11G 9
  22007331.622    22007336.524   -42725613.908 9  38631261.797 8
  20710253.237    20710256.699    -4536826.197 8  -7836922.181 9
  20605264.040    20605268.756   -15879681.313 9 -16547384.034 8
  20767295.643    20767299.004   -22854389.264 9 -10782638.016 9
 89 11  9 12 37 59.0800000  0  4G13G 6G11G 9
  21991205.900    21991211.298   -42810356.763 9  38565228.410 9
  20716256.000    20716258.260    -4505287.109 8  -7812346.280 9
  20606598.786    20606602.481   -15872666.774 9 -16541918.156 8
  20757946.397    20757948.746   -22903522.266 9 -10820923.467 8
 89 11  9 12 38 29.0800000  0  4G13G 6G11G 9
  21975156.612    21975161.503   -42894698.641 9  38499507.476 8
  20722356.471    20722359.593    -4473228.264 8  -7787365.382 8
  20608031.645    20608036.059   -15865136.954 8 -16536050.778 7
  20748676.452    20748677.530   -22952235.957 9 -10858882.181 9
 89 11  9 12 38 59.0800000  0  4G13G 6G11G 9
  21959183.237    21959188.581   -42978638.207 9  38434100.030 8
  20728556.233    20728559.153    -4440649.208 9  -7761979.107 8
  20609561.123    20609566.413   -15857093.526 8 -16529783.150 8
  20739485.571    20739488.375   -23000527.683 9 -10896512.105 7
 89 11  9 12 39 29.0800000  0  4G13G 6G11G 9
  21943286.566    21943291.368   -43062173.241 9  38369007.812 9
  20734855.201    20734856.412    -4407549.628 9  -7736187.241 9
  20611190.305    20611195.109   -15848537.471 8 -16523116.086 8
  20730375.947    20730379.958   -23048395.041 9 -10933811.337 8
 89 11  9 12 39 59.0800000  0  4G13G 6G11G 9
  21927467.427    21927472.985   -43145302.574 9  38304231.722 9
  20741253.369    20741256.194    -4373929.022 9  -7709989.361 9
  20612916.883    20612920.820   -15839469.742 9 -16516050.332 9
  20721347.932    20721352.221   -23095835.504 9 -10970777.921 9
 89 11  9 12 40 29.0800000  0  4G13G 6G11G 9
  21911725.604    21911731.336   -43228024.796 9  38239772.863 8
  20747750.376    20747752.972    -4339787.209 9  -7683385.338 8
  20614738.234    20614744.153   -15829892.115 9 -16508587.245 9
  20712402.454    20712406.718   -23142846.516 9 -11007409.886 9
 89 11  9 12 40 59.0800000  0  4G13G 6G11G 9
  21896061.663    21896066.199   -43310338.297 9  38175632.501 8
  20754345.497    20754349.509    -4305123.822 9  -7656374.920 9
  20616658.575    20616663.121   -15819806.204 9 -16500728.091 8
  20703539.873    20703542.468   -23189425.774 9 -11043705.416 8
 89 11  9 12 41 29.0800000  0  4G13G 6G11G 9
  21880475.524    21880480.689   -43392242.037 9  38111811.424 8
  20761041.001    20761044.899    -4269938.591 9  -7628957.875 9
  20618673.660    20618678.993   -15809213.441 8 -16492473.987 8
  20694758.271    20694762.303   -23235570.686 9 -11079662.487 9
 89 11  9 12 41 59.0800000  0  4G13G 6G11G 9
  21864968.303    21864974.170   -43473733.615 9  38048311.518 8
  20767835.564    20767839.557    -4234230.967 9  -7601133.759 9
  20620784.997    20620790.683   -15798114.948 9 -16483825.804 9
  20686059.571    20686064.277   -23281278.695 9 -11115279.114 8
 89 11  9 12 42 29.0800000  0  4G13G 6G11G 9
  21849540.818    21849544.790   -43554811.866 9  37985133.689 8
  20774730.172    20774734.118    -4198000.687 9  -7572902.380 9
  20622993.080    20622999.094   -15786512.183 9 -16474784.701 8
  20677446.198    20677450.394   -23326547.109 9 -11150553.196 8
 89 11  9 12 42 59.0800000  0  4G13G 6G11G 9
  21834191.336    21834194.878   -43635474.899 9  37922279.394 9
  20781724.033    20781727.830    -4161247.602 9  -7544263.612 9
  20625297.840    20625302.455   -15774406.482 9 -16465351.669 8
  20668915.438    20668920.073   -23371373.545 9 -11185482.881 8
 89 11  9 12 43 29.0800000  0  4G13G 6G11G 9
  21818921.510    21818925.556   -43715721.498 9  37859749.595 9
  20788818.565    20788820.705    -4123971.405 9  -7515217.252 9
  20627697.997    20627700.824   -15761799.537 9 -16455528.071 9
  20660470.092    20660473.823   -23415755.616 9 -11220066.297 8
 89 11  9 12 43 59.0800000  0  4G13G 6G11G 9
  21803729.909    21803734.265   -43795550.072 9  37797545.518 8
  20796010.805    20796014.103    -4086171.728 9  -7485762.969 9
  20630190.169    20630195.567   -15748692.440 9 -16445314.742 8
  20652109.184    20652112.923   -23459690.518 8 -11254301.291 9
 89 11  9 12 44 29.0800000  0  4G13G 6G11G 9
  21788618.320    21788623.855   -43874958.811 9  37735668.590 8
  20803303.922    20803306.104    -4047848.418 9  -7455900.659 8
  20632779.621    20632783.149   -15735087.041 9 -16434713.127 9
  20643834.607    20643838.570   -23503176.110 9 -11288186.156 9
 89 11  9 12 44 59.0800000  0  4G13G 6G11G 9
  21773587.836    21773592.203   -43953947.143 9  37674119.251 9
  20810695.116    20810698.973    -4009001.787 9  -7425630.565 8
  20635463.946    20635466.376   -15720984.810 9 -16423724.375 8
  20635646.503    20635650.008   -23546210.189 9 -11321719.215 8
 89 11  9 12 45 29.0800000  0  4G13G 6G11G 9
  21758637.831    21758642.015   -44032513.575 9  37612898.669 9
  20818188.049    20818190.730    -3969631.212 9  -7394952.197 8
  20638241.485    20638244.897   -15706387.363 9 -16412349.755 8
  20627542.222    20627546.083   -23588790.036 9 -11354898.307 8
 89 11  9 12 45 59.0800000  0  4G13G 6G11G 9
  21743767.324    21743771.865   -44110656.073 9  37552008.413 8
  20825780.459    20825782.399    -3929736.437 9  -7363865.360 9
  20641112.720    20641116.345   -15691295.644 9 -16400589.959 8
  20619527.873    20619530.275   -23630912.958 8 -11387721.356 8
 89 11  9 12 46 29.0800000  0  4G13G 6G11G 9
  21728977.743    21728982.356   -44188373.359 9  37491449.513 9
  20833471.227    20833474.092    -3889317.542 9  -7332370.125 9
  20644078.920    20644082.800   -15675711.662 9 -16388446.599 8
  20611599.090    20611601.905   -23672576.864 9 -11420186.737 8
 89 11  9 12 46 59.0800000  0  4G13G 6G11G 9
  21714269.690    21714272.892   -44265664.231 9  37431222.885 8
  20841263.396    20841266.036    -3848374.218 9  -7300466.235 9
  20647138.022    20647141.700   -15659636.766 9 -16375920.702 8
  20603758.862    20603761.019   -23713778.980 9 -11452292.278 8
 89 11  9 12 47 29.0800000  0  4G13G 6G11G 9
  21699643.571    21699647.298   -44342527.026 9  37371329.807 8
  20849154.921    20849156.795    -3806906.406 9  -7268153.651 8
  20650289.768    20650292.892   -15643072.458 8 -16363013.439 8
  20596006.571    20596009.169   -23754516.929 9 -11484036.121 9
 89 11  9 12 47 59.0800000  0  4G13G 6G11G 9
  21685098.495    21685102.644   -44418960.417 9  37311771.326 8
  20857144.870    20857147.309    -3764914.214 9  -7235432.480 9
  20653534.378    20653539.265   -15626020.736 9 -16349726.381 8
  20588343.150    20588345.951   -23794788.519 8 -11515416.573 9
 89 11  9 12 48 29.0800000  0  4G13G 6G11G 9
  21670635.662    21670638.970   -44494963.749 9  37252547.953 8
  20865235.240    20865238.843    -3722397.810 9  -7202302.834 9
  20656871.895    20656876.425   -15608483.354 9 -16336060.887 7
  20580768.996    20580772.028   -23834591.443 8 -11546431.830 8
 89 11  9 12 48 59.0800000  0  4G13G 6G11G 9
  21656254.322    21656258.202   -44570535.679 9  37193660.761 7
  20873426.357    20873429.277    -3679357.325 9  -7168764.804 9
  20660301.929    20660306.127   -15590462.175 9 -16322018.401 9
  20573284.200    20573286.344   -23873923.588 8 -11577080.245 8
 89 11  9 12 49 29.0800000  0  4G13G 6G11G 9
  21641956.079    21641959.207   -44645675.334 9  37135110.390 8
  20881716.275    20881719.038    -3635792.899 9  -7134818.513 9
  20663822.360    20663825.899   -15571958.756 9 -16307600.146 8
  20565889.874    20565892.486   -23912782.715 8 -11607360.081 8
 89 11  9 12 49 59.0800000  0  4G13G 6G11G 9
  21627740.360    21627744.421   -44720380.543 9  37076898.557 8
  20890106.504    20890108.672    -3591704.308 9  -7100463.770 9
  20667433.778    20667437.711   -15552974.403 8 -16292807.141 8
  20558585.585    20558588.624   -23951166.105 9 -11637269.214 7
 89 11  9 12 50 29.0800000  0  4G13G 6G11G 9
  21613606.101    21613611.342   -44794650.442 9  37019025.920 9
  20898594.525    20898598.298    -3547091.474 9  -7065700.525 9
  20671139.106    20671142.426   -15533510.973 8 -16277640.832 9
  20551372.487    20551374.558   -23989071.287 6 -11666805.699 6
 89 11  9 12 50 59.0800000  0  4G13G 6G11G 9
  21599556.918    21599561.329   -44868483.448 9  36961493.737 9
  20907184.824    20907186.894    -3501954.305 9  -7030528.701 8
  20674932.966    20674937.778   -15513569.626 9 -16262102.113 8
  20544251.559    20544253.195   -24026495.764 8 -11695967.641 7
 89 11  9 12 51 29.0800000  0  4G13G 6G11G 9
  21585589.876    21585594.607   -44941878.526 9  36904302.795 8
  20915873.169    20915876.395    -3456293.411 9  -6994948.796 9
  20678818.504    20678822.721   -15493152.656 8 -16246192.784 8
  20537220.998    20537224.891   -24063437.556 9 -11724753.461 8
 89 11  9 12 51 59.0800000  0  4G13G 6G11G 9
  21571706.971    21571712.418   -45014834.507 9  36847454.001 8
  20924661.927    20924665.764    -3410108.541 9  -6958960.597 9
  20682793.928    20682798.056   -15472261.706 8 -16229914.127 8
  20530282.016    20530286.538   -24099894.378 8 -11753161.373 8
 89 11  9 12 52 29.0800000  0  4G13G 6G11G 9
  21557908.062    21557912.416   -45087349.982 9  36790948.447 8
  20933549.819    20933554.087    -3363399.929 9  -6922564.288 8
  20686859.129    20686863.502   -15450898.205 8 -16213267.247 8
  20523438.132    20523441.853   -24135863.604 8 -11781189.321 8
 89 11  9 12 52 59.0800000  0  4G13G 6G11G 9
  21544192.893    21544197.731   -45159423.930 9  36734786.950 8
  20942538.455    20942541.980    -3316167.707 9  -6885759.975 9
  20691014.191    20691018.741   -15429063.834 8 -16196253.444 8
  20516687.688    20516689.119   -24171343.169 9 -11808835.739 8
 89 11  9 12 53 29.0800000  0  4G13G 6G11G 9
  21530561.061    21530565.832   -45231055.182 9  36678970.412 8
  20951626.408    20951629.315    -3268412.166 9  -6848547.870 9
  20695258.210    20695262.411   -15406760.809 8 -16178874.467 7
  20510029.536    20510032.300   -24206330.682 9 -11836098.724 8
 89 11  9 12 53 59.0800000  0  4G13G 6G11G 9
  21517014.795    21517019.612   -45302242.764 9  36623499.591 8
  20960812.361    20960817.094    -3220133.365 9  -6810928.043 9
  20699590.271    20699594.846   -15383990.970 8 -16161131.733 8
  20503464.660    20503468.893   -24240823.900 8 -11862976.575 8
 89 11  9 12 54 29.0800000  0  4G13G 6G11G 9
  21503552.807    21503557.862   -45372985.474 9  36568375.410 9
  20970098.629    20970103.009    -3171331.706 9  -6772900.780 9
  20704012.558    20704016.637   -15360756.048 9 -16143026.601 8
  20496995.671    20496999.357   -24274820.625 8 -11889467.520 8
 89 11  9 12 54 59.0800000  0  4G13G 6G11G 9
  21490175.386    21490179.104   -45443282.381 9  36513598.607 8
  20979484.538    20979488.684    -3122007.722 9  -6734466.504 9
  20708522.085    20708526.008   -15337057.691 9 -16124560.341 8
  20490621.572    20490624.677   -24308318.913 9 -11915570.079 8
 89 11  9 12 55 29.0800000  0  4G13G 6G11G 9
  21476884.084    21476888.709   -45513132.295 9  36459170.116 8
  20988970.672    20988973.878    -3072161.230 9  -6695625.096 9
  20713119.476    20713123.697   -15312897.838 9 -16105734.489 9
  20484341.756    20484345.810   -24341316.328 8 -11941282.338 8
 89 11  9 12 55 59.0800000  0  4G13G 6G11G 9
  21463677.317    21463682.664   -45582533.981 9  36405090.885 8
  20998556.790    20998559.475    -3021792.502 9  -6656376.736 9
  20717803.350    20717809.017   -15288278.030 8 -16086550.221 9
  20478159.011    20478162.319   -24373810.259 8 -11966602.296 7
 89 11  9 12 56 29.0800000  0  4G13G 6G11G 9
  21450556.112    21450560.088   -45651486.778 9  36351361.434 8
  21008239.938    21008243.027    -2970902.187 9  -6616721.978 8
  20722575.685    20722581.679   -15263200.486 8 -16067009.260 8
  20472071.019    20472074.444   -24405799.069 9 -11991528.624 7
 89 11  9 12 56 59.0800000  0  4G13G 6G11G 9
  21437519.982    21437525.672   -45719989.215 9  36297982.945 8
  21018022.820    21018027.006    -2919490.569 9  -6576660.993 9
  20727434.242    20727440.054   -15237666.964 9 -16047113.025 8
  20466080.783    20466083.193   -24437280.233 8 -12016059.398 8
 89 11  9 12 57 29.0800000  0  4G13G 6G11G 9
  21424570.713    21424575.315   -45788040.499 9  36244955.997 8
  21027905.466    21027909.840    -2867557.800 8  -6536193.924 9
  20732381.935    20732385.426   -15211679.055 8 -16026862.689 8
  20460186.092    20460189.949   -24468251.518 8 -12040192.856 8
 89 11  9 12 57 59.0800000  0  4G13G 6G11G 9
  21411707.802    21411711.929   -45855639.435 9  36192281.517 8
  21037887.562    21037890.746    -2815104.201 9  -6495320.997 9
  20737412.935    20737415.796   -15185238.717 8 -16006259.825 8
  20454389.967    20454395.028   -24498710.740 8 -12063927.319 8
 89 11  9 12 58 29.0800000  0  4G13G 6G11G 9
  21398929.911    21398934.428   -45922785.108 9  36139960.221 7
  21047968.362    21047971.556    -2762130.329 9  -6454042.659 9
  20742529.306    20742532.137   -15158347.821 8 -15985305.874 8
  20448693.126    20448694.643   -24528655.777 8 -12087261.125 7
 89 11  9 12 58 59.0800000  0  4G13G 6G11G 9
  21386238.731    21386242.369   -45989476.788 9  36087992.673 8
  21058147.081    21058150.275    -2708636.834 9  -6412359.416 9
  20747732.803    20747735.566   -15131008.514 8 -15964002.510 8
  20443091.406    20443096.664   -24558084.886 8 -12110192.892 8
 89 11  9 12 59 29.0800000  0  4G13G 6G11G 9
  21373633.439    21373637.996   -46055713.527 9  36036379.642 8
  21068425.525    21068428.389    -2654624.039 9  -6370271.530 9
  20753018.709    20753023.130   -15103222.849 8 -15942351.342 7
  20437590.716    20437593.988   -24586995.657 8 -12132720.779 8
 89 11  9 12 59 59.0800000  0  4G13G 6G11G 9
  21361115.610    21361120.527   -46121494.387 9  35985121.855 8
  21078803.072    21078804.992    -2600092.355 8  -6327779.323 9
  20758390.209    20758395.000   -15074992.615 9 -15920353.745 7
  20432188.751    20432192.191   -24615386.127 8 -12154843.231 8
 89 11  9 13  0 29.0800000  0  4G13G 6G11G 9
  21348685.317    21348691.064   -46186817.817 9  35934220.490 9
  21089279.008    21089282.430    -2545042.200 9  -6284883.117 9
  20763847.187    20763852.789   -15046319.160 7 -15898010.802 8
  20426885.385    20426889.544   -24643253.780 8 -12176558.294 8
 89 11  9 13  0 59.0800000  0  4G13G 6G11G 9
  21336342.359    21336348.115   -46251683.437 9  35883675.862 8
  21099852.528    21099856.201    -2489473.876 9  -6241583.127 9
  20769387.487    20769390.473   -15017204.695 9 -15875324.207 8
  20421681.799    20421684.916   -24670596.693 7 -12197864.436 9
 89 11  9 13  1 29.0800000  0  4G13G 6G11G 9
  21324085.248    21324091.806   -46316090.826 9  35833488.311 8
  21110524.850    21110528.899    -2433388.405 9  -6197880.182 9
  20775010.716    20775016.281   -14987651.832 8 -15852295.995 8
  20416579.274    20416583.088   -24697413.209 8 -12218760.429 8
 89 11  9 13  1 59.0800000  0  4G13G 6G11G 9
  21311917.063    21311921.460   -46380039.346 9  35783658.306 8
  21121295.806    21121299.656    -2376786.224 9  -6153774.604 9
  20780718.800    20780723.164   -14957662.376 8 -15828927.583 7
  20411576.571    20411579.952   -24723701.015 9 -12239244.416 8
 89 11  9 13  2 29.0800000  0  4G13G 6G11G 9
  21299835.366    21299839.814   -46443528.093 9  35734186.546 8
  21132166.330    21132168.785    -2319668.206 9  -6109267.062 9
  20786507.115    20786511.491   -14927238.269 8 -15805220.490 8
  20406676.491    20406679.977   -24749458.511 8 -12259315.170 7
 89 11  9 13  2 59.0800000  0  4G13G 6G11G 9
  21287841.129    21287847.468   -46506553.345 9  35685075.975 8
  21143133.241    21143137.149    -2262032.677 9  -6064356.268 9
  20792379.276    20792384.959   -14896379.437 8 -15781174.640 9
  20401874.598    20401878.049   -24774681.222 8 -12278969.219 9
 89 11  9 13  3 29.0800000  0  4G13G 6G11G 9
  21275937.254    21275942.398   -46569115.772 9  35636326.053 8
  21154199.934    21154203.207    -2203881.443 9  -6019043.626 9
  20798335.152    20798338.764   -14865089.052 8 -15756792.523 8
  20397176.976    20397181.024   -24799368.524 8 -12298206.069 8
 89 11  9 13  3 59.0800000  0  4G13G 6G11G 9
  21264119.276    21264124.642   -46631215.829 9  35587936.423 9
  21165362.197    21165367.531    -2145216.013 9  -5973330.338 9
  20804371.474    20804374.610   -14833369.869 9 -15732076.279 8
  20392580.645    20392583.899   -24823519.201 7 -12317024.783 7
 89 11  9 13  4 29.0800000  0  4G13G 6G11G 9
  21252390.883    21252394.395   -46692852.648 9  35539907.752 8
  21176624.020    21176627.882    -2086037.196 9  -5927217.006 9
  20810488.684    20810491.446   -14801224.139 8 -15707027.665 8
  20388088.450    20388091.667   -24847131.449 7 -12335423.935 7
 89 11  9 13  4 59.0800000  0  4G13G 6G11G 9
  21240749.050    21240754.251   -46754025.504 9  35492240.612 8
  21187982.556    21187986.515    -2026345.496 9  -5880703.994 8
  20816685.726    20816688.674   -14768653.685 8 -15681648.084 8
  20383696.992    20383701.634   -24870203.276 8 -12353401.985 8
 89 11  9 13  5 29.0800000  0  4G13G 6G11G 9
  21229196.796    21229201.988   -46814733.929 9  35444935.343 9
  21199439.120    21199442.670    -1966141.691 9  -5833791.953 9
  20822964.761    20822967.009   -14735660.548 9 -15655939.151 8
  20379412.547    20379414.186   -24892732.521 8 -12370957.222 7
 89 11  9 13  5 59.0800000  0  4G13G 6G11G 9
  21217732.574    21217737.744   -46874977.041 9  35397992.689 9
  21210993.371    21210997.454    -1905426.377 9  -5786481.344 9
  20829322.437    20829326.099   -14702246.872 9 -15629902.531 9
  20375228.241    20375230.903   -24914717.380 9 -12388088.277 8
 89 11  9 13  6 29.0800000  0  4G13G 6G11G 9
  21206358.378    21206362.371   -46934753.962 9  35351413.288 8
  21222644.342    21222648.022    -1844200.268 9  -5738772.692 9
  20835760.448    20835764.237   -14668414.563 9 -15603539.693 8
  20371148.091    20371150.929   -24936155.790 9 -12404793.512 8
 89 11  9 13  6 59.0800000  0  4G13G 6G11G 9
  21195071.367    21195075.263   -46994064.371 9  35305197.393 8
  21234391.276    21234395.735    -1782464.227 9  -5690666.713 8
  20842277.323    20842281.792   -14634165.811 8 -15576852.347 7
  20367173.346    20367176.205   -24957045.894 8 -12421071.525 8
 89 11  9 13  7 29.0800000  0  4G13G 6G11G 9
  21183874.501    21183878.611   -47052907.419 9  35259345.686 9
  21246236.608    21246240.967    -1720219.102 9  -5642164.024 9
  20848873.923    20848878.047   -14599502.707 8 -15549842.139 8
  20363301.123    20363304.879   -24977386.289 9 -12436921.193 8
 89 11  9 13  7 59.0800000  0  4G13G 6G11G 9
  21172765.517    21172770.328   -47111282.187 9  35213858.857 8
  21258178.653    21258182.506    -1657465.711 9  -5593265.280 9
  20855548.319    20855552.369   -14564427.326 9 -15522510.679 8
  20359536.556    20359539.775   -24997174.729 8 -12452340.749 8
 89 11  9 13  8 29.0800000  0  4G13G 6G11G 9
  21161746.801    21161751.689   -47169188.288 9  35168737.231 8
  21270217.167    21270220.396    -1594204.874 9  -5543971.135 9
  20862302.333    20862305.910   -14528941.889 9 -15494859.684 7
  20355876.814    20355880.083   -25016409.600 8 -12467328.958 9
 89 11  9 13  8 59.0800000  0  4G13G 6G11G 9
  21150816.320    21150821.951   -47226625.544 9  35123980.950 8
  21282351.487    21282353.929    -1530437.504 8  -5494282.294 8
  20869131.972    20869136.205   -14493048.386 8 -15466890.724 7
  20352321.295    20352324.771   -25035088.950 7 -12481884.305 8
 89 11  9 13  9 29.0800000  0  4G13G 6G11G 9
  21139976.826    21139980.596   -47283593.188 9  35079590.599 9
  21294582.236    21294585.465    -1466164.532 8  -5444199.465 9
  20876039.235    20876043.595   -14456748.912 9 -15438605.423 9
  20348870.437    20348874.933   -25053210.962 8 -12496005.352 8
 89 11  9 13  9 59.0800000  0  4G13G 6G11G 9
  21129225.950    21129229.436   -47340090.641 9  35035566.618 9
  21306908.741    21306912.585    -1401386.790 8  -5393723.325 9
  20883023.566    20883027.575   -14420045.664 9 -15410005.476 9
  20345530.223    20345533.691   -25070774.077 8 -12509690.889 7
 89 11  9 13 10 29.0800000  0  4G13G 6G11G 9
  21118563.956    21118568.161   -47396117.541 9  34991909.301 7
  21319331.493    21319335.215    -1336105.185 8  -5342854.566 9
  20890084.257    20890089.592   -14382940.653 9 -15381092.475 8
  20342296.069    20342297.698   -25087776.479 7 -12522939.514 6
 89 11  9 13 10 59.0800000  0  4G13G 6G11G 9
  21107991.420    21107995.814   -47451672.665 9  34948619.623 8
  21331849.900    21331853.808    -1270320.606 9  -5291593.860 9
  20897220.466    20897225.360   -14345436.128 9 -15351868.189 8
  20339168.518    20339170.175   -25104216.159 7 -12535749.641 7
 89 11  9 13 11 29.0800000  0  4G13G 6G11G 9
  21097509.759    21097513.570   -47506755.932 9  34905697.619 8
  21344463.607    21344466.464    -1204034.074 9  -5239942.029 8
  20904433.531    20904438.568   -14307534.233 9 -15322334.239 8
  20336146.491    20336148.957   -25120091.726 8 -12548120.219 7
 89 11  9 13 11 59.0800000  0  4G13G 6G11G 9
  21087118.412    21087121.667   -47561367.032 9  34863143.531 8
  21357173.513    21357175.977    -1137246.567 9  -5187899.832 9
  20911720.676    20911725.931   -14269236.964 8 -15292492.203 9
  20333233.063    20333235.826   -25135401.359 9 -12560049.792 8
 89 11  9 13 12 29.0800000  0  4G13G 6G11G 9
  21076816.132    21076819.673   -47615505.620 9  34820957.629 9
  21369977.620    21369980.961    -1069959.156 9  -5135468.104 9
  20919083.473    20919088.241   -14230546.565 9 -15262343.841 8
  20330426.823    20330429.925   -25150143.561 9 -12571537.228 9
 89 11  9 13 12 59.0800000  0  4G13G 6G11G 9
  21066603.561    21066607.323   -47669171.514 9  34779140.074 8
  21382876.355    21382880.723    -1002172.982 9  -5082647.736 9
  20926520.892    20926525.962   -14191465.033 9 -15231890.687 8
  20327730.735    20327732.897   -25164316.667 8 -12582581.200 8
 89 11  9 13 13 29.0800000  0  4G13G 6G11G 9
  21056481.276    21056484.462   -47722363.883 9  34737691.487 8
  21395870.494    21395875.262     -933888.849 9  -5029439.341 9
  20934031.247    20934036.509   -14151994.888 9 -15201134.733 8
  20325141.834    20325145.352   -25177919.049 9 -12593180.467 8
 89 11  9 13 13 59.0800000  0  4G13G 6G11G 9
  21046449.267    21046453.168   -47775082.352 9  34696612.185 8
  21408959.500    21408962.716     -865108.016 9  -4975843.896 8
  20941616.438    20941621.359   -14112138.150 9 -15170077.542 8
  20322662.535    20322664.625   -25190948.858 9 -12603333.559 8
 89 11  9 13 14 29.0800000  0  4G13G 6G11G 9
  21036507.878    21036511.553   -47827326.427 9  34655902.515 8
  21422142.111    21422146.521     -795831.331 9  -4921862.089 9
  20949274.733    20949277.783   -14071896.942 8 -15138720.760 8
  20320292.811    20320294.903   -25203404.406 8 -12613039.187 7
 89 11  9 13 14 59.0800000  0  4G13G 6G11G 9
  21026656.904    21026659.583   -47879096.163 9  34615562.481 7
  21435420.222    21435423.162     -726060.162 9  -4867494.959 9
  20957003.845    20957008.582   -14031273.779 9 -15107066.360 9
  20318031.224    20318034.848   -25215284.659 8 -12622296.533 8
 89 11  9 13 15 29.0800000  0  4G13G 6G11G 9
  21016894.646    21016898.407   -47930391.207 9  34575592.327 8
  21448790.370    21448794.033     -655795.519 9  -4812743.303 9
  20964808.242    20964812.590   -13990270.573 9 -15075115.802 9
  20315880.484    20315884.005   -25226587.796 8 -12631104.166 7
 89 11  9 13 15 59.0800000  0  4G13G 6G11G 9
  21007223.598    21007227.454   -47981210.897 9  34535992.575 8
  21462255.146    21462259.198     -585038.605 9  -4757608.048 9
  20972681.633    20972686.484   -13948889.548 9 -15042870.855 8
  20313837.937    20313842.492   -25237312.315 8 -12639460.932 8
 89 11  9 13 16 29.0800000  0  4G13G 6G11G 9
  20997642.955    20997647.421   -48031555.373 9  34496763.121 8
  21475813.010    21475816.913     -513790.632 9  -4702090.154 9
  20980627.498    20980633.295   -13907132.961 9 -15010333.272 9
  20311909.088    20311913.856   -25247456.855 8 -12647365.766 7
 89 11  9 13 16 59.0800000  0  4G13G 6G11G 9
  20988153.966    20988158.063   -48081424.619 9  34457903.993 8
  21489464.650    21489468.289     -442052.904 9  -4646190.651 9
  20988644.429    20988649.594   -13865003.376 8 -14977505.031 9
  20310088.656    20310093.247   -25257019.791 8 -12654817.421 8
 89 11  9 13 17 29.0800000  0  4G13G 6G11G 9
  20978754.395    20978759.825   -48130817.977 9  34419415.672 8
  21503208.869    21503212.764     -369826.418 9  -4589910.286 9
  20996732.414    20996735.949   -13822502.483 9 -14944387.455 8
  20308380.345    20308384.163   -25265999.827 8 -12661814.851 9
 89 11  9 13 17 59.0800000  0  4G13G 6G11G 9
  20969446.426    20969450.442   -48179735.153 9  34381298.411 9
  21517046.347    21517049.511     -297112.592 9  -4533250.187 9
  21004890.042    21004894.367   -13779632.624 8 -14910982.378 9
  20306783.480    20306786.941   -25274395.384 9 -12668356.859 8
 89 11  9 13 18 29.0800000  0  4G13G 6G11G 9
  20960227.577    20960232.615   -48228175.654 9  34343552.579 8
  21530975.633    21530979.327     -223912.517 9  -4476211.188 9
  21013117.004    21013122.211   -13736395.960 9 -14877291.475 8
  20305297.091    20305299.462   -25282205.098 9 -12674442.337 8
 89 11  9 13 18 59.0800000  0  4G13G 6G11G 9
  20951100.530    20951104.661   -48276139.890 9  34306177.867 8
  21544996.935    21545000.806     -150227.536 9  -4418794.339 9
  21021414.004    21021419.687   -13692794.943 9 -14843316.667 7
  20303923.357    20303926.224   -25289427.465 8 -12680070.150 7
 89 11  9 13 19 29.0800000  0  4G13G 6G11G 9
  20942064.261    20942068.692   -48323627.313 9  34269174.702 9
  21559111.210    21559114.225      -76058.852 9  -4361000.593 9
  21029780.188    21029784.696   -13648831.815 8 -14809059.688 8
  20302659.210    20302664.243   -25296061.149 9 -12685239.250 8
 89 11  9 13 19 59.0800000  0  4G13G 6G11G 9
  20933118.803    20933122.974   -48370638.134 9  34232542.909 9
  21573316.327    21573320.143       -1407.729 9  -4302830.921 9
  21038215.132    21038219.427   -13604508.600 8 -14774522.143 8
  20301509.317    20301514.515   -25302104.886 8 -12689948.677 8
 89 11  9 13 20 29.0800000  0  4G13G 6G11G 9
  20924263.285    20924268.371   -48417172.227 9  34196282.582 9
  21587614.075    21587616.895       73724.265 9  -4244286.546 9
  21046716.981    21046722.263   -13559827.786 8 -14739705.931 7
  20300472.788    20300474.125   -25307557.380 9 -12694197.365 7
 89 11  9 13 20 59.0800000  0  4G13G 6G11G 9
  20915498.032    20915503.539   -48463229.159 9  34160394.080 8
  21602002.051    21602005.284      149335.817 9  -4185368.467 9
  21055287.963    21055293.042   -13514791.779 9 -14704612.927 8
  20299548.206    20299548.668   -25312417.257 8 -12697984.279 8
 89 11  9 13 21 29.0800000  0  4G13G 6G11G 9
  20906823.794    20906830.709   -48508809.129 9  34124877.237 8
  21616481.788    21616485.369      225425.675 9  -4126077.673 9
  21063925.090    21063928.986   -13469402.582 8 -14669244.729 8
  20298735.801    20298738.844   -25316683.344 8 -12701308.511 7
 89 11  9 13 21 59.0800000  0  4G13G 6G11G 9
  20898241.984    20898247.552   -48553911.837 9  34089732.281 9
  21631051.156    21631054.971      301992.397 9  -4066415.309 9
  21072629.206    21072633.560   -13423662.346 9 -14633602.991 8
  20298038.123    20298041.522   -25320354.531 9 -12704169.177 8
 89 11  9 13 22 29.0800000  0  4G13G 6G11G 9
  20889750.294    20889755.189   -48598537.232 9  34054959.264 8
  21645712.242    21645715.740      379034.649 9  -4006382.416 9
  21081399.713    21081403.173   -13377573.398 9 -14597689.529 8
  20297452.714    20297456.096   -25323429.094 9 -12706564.947 8
 89 11  9 13 22 59.0800000  0  4G13G 6G11G 9
  20881348.606    20881353.346   -48642685.207 9  34020558.271 8
  21660462.847    21660467.255      456550.825 9  -3945980.229 9
  21090236.899    21090240.106   -13331137.999 9 -14561506.105 8
  20296981.689    20296985.137   -25325906.329 8 -12708495.263 8
 89 11  9 13 23 29.0800000  0  4G13G 6G11G 9
  20873038.597    20873042.602   -48686355.772 9  33986529.275 8
  21675303.506    21675308.080      534539.772 9  -3885209.647 9
  21099138.710    21099142.512   -13284358.060 9 -14525054.203 8
  20296624.426    20296627.635   -25327784.494 8 -12709958.765 9
 89 11  9 13 23 59.0800000  0  4G13G 6G11G 9
  20864819.623    20864823.207   -48729549.050 9  33952872.173 8
  21690234.225    21690237.805      612999.875 9  -3824071.937 9
  21108104.579    21108109.602   -13237236.467 9 -14488336.090 9
  20296379.126    20296383.202   -25329062.975 8 -12710954.976 8
 89 11  9 13 24 29.0800000  0  4G13G 6G11G 9
  20856690.971    20856694.097   -48772265.240 9  33919586.832 8
  21705255.370    21705258.348      691929.587 9  -3762568.287 9
  21117136.741    21117140.448   -13189775.339 9 -14451353.408 8
  20296250.406    20296255.874   -25329740.540 8 -12711482.955 7
 89 11  9 13 24 59.0800000  0  4G13G 6G11G 9
  20848653.862    20848657.723   -48814504.047 9  33886673.494 8
  21720363.751    21720367.163      771327.443 9  -3700699.851 8
  21126231.466    21126235.144   -13141976.992 9 -14414107.956 8
  20296235.121    20296238.958   -25329815.859 8 -12711541.665 7
 89 11  9 13 25 29.0800000  0  4G13G 6G11G 9
  20840706.439    20840711.445   -48856265.388 9  33854132.201 8
  21735561.263    21735564.342      851191.938 9  -3638467.797 8
  21135391.843    21135395.573   -13093843.551 9 -14376601.382 9
  20296336.521    20296339.456   -25329288.083 8 -12711130.399 7
 89 11  9 13 25 59.0800000  0  4G13G 6G11G 9
  20832850.249    20832855.063   -48897549.810 9  33821962.530 8
  21750847.540    21750850.467      931521.381 9  -3575873.448 8
  21144614.787    21144618.885   -13045377.364 8 -14338835.532 8
  20296553.090    20296553.684   -25328156.163 8 -12710248.405 8
 89 11  9 13 26 29.0800000  0  4G13G 6G11G 9
  20825084.896    20825089.481   -48938356.852 9  33790164.839 9
  21766221.261    21766224.946     1012314.438 9  -3512917.834 9
  21153900.929    21153903.865   -12996580.673 9 -14300812.166 9
  20296883.534    20296885.817   -25326418.840 8 -12708894.632 7
 89 11  9 13 26 59.0800000  0  4G13G 6G11G 9
  20817410.353    20817414.683   -48978687.366 9  33758738.487 7
  21781684.088    21781688.052     1093569.373 9  -3449602.331 9
  21163249.726    21163251.487   -12947455.847 9 -14262533.075 7
  20297328.499    20297331.400   -25324075.383 8 -12707068.574 7
 89 11  9 13 27 29.0800000  0  4G13G 6G11G 9
  20809826.346    20809831.464   -49018540.921 9  33727683.792 8
  21797234.359    21797237.467     1175284.648 9  -3385928.119 9
  21172658.166    21172662.901   -12898005.112 9 -14224000.049 9
  20297890.418    20297893.405   -25321124.671 8 -12704769.323 8
 89 11  9 13 27 59.0800000  0  4G13G 6G11G 9
  20802333.017    20802336.446   -49057918.135 9  33697000.264 7
  21812871.717    21812874.539     1257458.813 9  -3321896.343 9
  21182130.137    21182134.358   -12848230.699 9 -14185214.802 9
  20298568.224    20298571.008   -25317565.531 8 -12701995.969 7
 89 11  9 13 28 29.0800000  0  4G13G 6G11G 9
  20794930.546    20794934.536   -49096818.580 9  33666688.244 8
  21828595.139    21828599.327     1340090.182 9  -3257508.297 9
  21191664.067    21191667.029   -12798134.750 9 -14146179.017 8
  20299361.252    20299364.037   -25313397.168 8 -12698747.902 7
 89 11  9 13 28 59.0800000  0  4G13G 6G11G 9
  20787618.900    20787622.224   -49135242.581 9  33636747.463 8
  21844406.386    21844409.893     1423176.956 9  -3192765.381 8
  21201257.721    21201260.917   -12747720.042 9 -14106894.836 9
  20300268.969    20300273.996   -25308618.571 7 -12695024.341 8
 89 11  9 13 29 29.0800000  0  4G13G 6G11G 9
  20780396.956    20780400.849   -49173191.337 9  33607177.020 8
  21860303.500    21860307.217     1506717.345 9  -3127669.008 9
  21210911.709    21210915.097   -12696988.844 9 -14067364.035 8
  20301296.426    20301297.883   -25303229.364 8 -12690824.973 7
 89 11  9 13 29 59.0800000  0  4G13G 6G11G 9
  20773265.819    20773270.453   -49210664.100 9  33577977.472 8
  21876287.938    21876290.244     1590709.931 9  -3062220.277 9
  21220624.891    21220628.927   -12645942.984 9 -14027588.054 8
  20302437.818    20302440.300   -25297228.269 8 -12686148.783 8
 89 11  9 13 30 29.0800000  0  4G13G 6G11G 9
  20766225.118    20766230.078   -49247661.379 9  33549148.444 8
  21892356.010    21892359.232     1675152.978 9  -2996420.529 9
  21230397.226    21230401.881   -12594585.275 9 -13987569.067 9
  20303696.362    20303700.459   -25290614.459 8 -12680995.173 8
 89 11  9 13 30 59.0800000  0  4G13G 6G11G 9
  20759275.272    20759280.578   -49284183.524 9  33520689.649 8
  21908511.010    21908513.947     1760044.791 9  -2930271.095 9
  21240229.263    21240234.213   -12542917.810 9 -13947308.712 8
  20305072.293    20305075.539   -25283387.245 9 -12675363.578 8
 89 11  9 13 31 29.0800000  0  4G13G 6G11G 9
  20752415.994    20752421.198   -49320229.982 9  33492601.524 8
  21924749.930    21924754.056     1845383.595 9  -2863773.367 9
  21250120.592    21250123.844   -12490942.661 9 -13906808.624 8
  20306563.610    20306568.778   -25275545.614 8 -12669253.222 7
 89 11  9 13 31 59.0800000  0  4G13G 6G11G 9
  20745647.887    20745651.880   -49355802.173 9  33464882.927 8
  21941074.010    21941077.425     1931167.510 8  -2796928.800 9
  21260068.629    21260072.220   -12438662.522 9 -13866070.868 9
  20308172.145    20308176.974   -25267089.054 7 -12662663.710 8
 89 11  9 13 32 29.0800000  0  4G13G 6G11G 9
  20738969.016    20738973.665   -49390900.138 9  33437533.885 8
  21957482.556    21957485.715     2017394.894 9  -2729738.674 9
  21270074.750    21270078.700   -12386079.503 8 -13825097.093 8
  20309899.621    20309903.712   -25258016.814 7 -12655594.445 8
 89 11  9 13 32 59.0800000  0  4G13G 6G11G 9
  20732379.948    20732385.049   -49425523.848 9  33410554.385 8
  21973974.806    21973979.342     2104063.912 9  -2662204.413 9
  21280136.603    21280142.561   -12333195.738 9 -13783888.983 8
  20311743.002    20311747.904   -25248328.032 8 -12648044.768 8
 89 11  9 13 33 29.0800000  0  4G13G 6G11G 9
  20725880.355    20725885.694   -49459673.959 9  33383943.923 8
  21990551.219    21990555.602     2191172.827 9  -2594327.377 9
  21290257.382    21290262.190   -12280013.489 9 -13742448.283 8
  20313703.971    20313708.224   -25238022.187 9 -12640014.244 7
 89 11  9 13 33 59.0800000  0  4G13G 6G11G 9
  20719472.407    20719476.309   -49493350.906 9  33357702.172 9
  22007211.144    22007215.394     2278719.767 9  -2526109.036 9
  21300434.983    21300439.348   -12226535.199 9 -13700776.900 9
  20315782.149    20315787.862   -25227098.626 7 -12631502.404 7
 89 11  9 13 34 29.0800000  0  4G13G 6G11G 9
  20713154.570    20713158.502   -49526555.154 9  33331828.748 7
  22023953.417    22023957.546     2366703.031 9  -2457550.703 8
  21310666.558    21310671.768   -12172763.242 8 -13658876.706 9
  20317980.055    20317981.963   -25215556.609 8 -12622508.598 7
 89 11  9 13 34 59.0800000  0  4G13G 6G11G 9
  20706925.944    20706930.060   -49559286.865 9  33306323.523 9
  22040779.349    22040783.314     2455120.681 9  -2388653.870 9
  21320955.226    21320960.482   -12118700.012 9 -13616749.531 8
  20320294.563    20320296.110   -25203395.525 7 -12613032.462 8
 89 11  9 13 35 29.0800000  0  4G13G 6G11G 9
  20700787.143    20700791.571   -49591546.114 9  33281186.449 8
  22057687.285    22057690.899     2543970.886 9  -2319419.974 9
  21331298.943    21331302.651   -12064347.674 9 -13574397.083 8
  20322726.587    20322730.520   -25190614.900 8 -12603073.532 8
 89 11  9 13 35 59.0800000  0  4G13G 6G11G 9
  20694738.467    20694743.018   -49623333.744 9  33256416.889 9
  22074676.650    22074680.266     2633251.793 9  -2249850.496 9
  21341696.720    21341700.771   -12009708.457 9 -13531821.074 9
  20325274.547    20325279.509   -25177213.921 7 -12592631.225 7
 89 11  9 13 36 29.0800000  0  4G13G 6G11G 9
  20688778.726    20688782.364   -49654650.434 9  33232014.265 8
  22091747.188    22091751.953     2722961.359 9  -2179946.994 8
  21352147.455    21352152.810   -11954784.766 9 -13489023.411 8
  20327943.913    20327947.245   -25163192.451 8 -12581705.405 8
 89 11  9 13 36 59.0800000  0  4G13G 6G11G 9
  20682908.174    20682913.792   -49685496.835 9  33207978.123 9
  22108900.119    22108903.421     2813097.841 9  -2109710.811 9
  21362652.549    21362658.159   -11899578.575 8 -13446005.637 9
  20330730.163    20330733.940   -25148549.709 7 -12570295.503 8
 89 11  9 13 37 29.0800000  0  4G13G 6G11G 9
  20677127.815    20677132.627   -49715872.832 9  33184308.529 8
  22126133.532    22126136.829     2903659.357 9  -2039143.449 8
  21373211.506    21373215.828   -11844092.364 9 -13402769.651 9
  20333635.518    20333638.980   -25133285.268 8 -12558401.140 9
 89 11  9 13 37 59.0800000  0  4G13G 6G11G 9
  20671436.978    20671439.932   -49745779.117 9  33161004.934 8
  22143446.292    22143451.740     2994643.710 9  -1968246.595 9
  21383823.431    21383827.839   -11788328.608 9 -13359317.377 9
  20336658.643    20336662.172   -25117398.911 8 -12546022.190 7
 89 11  9 13 38 29.0800000  0  4G13G 6G11G 9
  20665835.181    20665839.399   -49775216.380 9  33138066.813 9
  22160840.557    22160845.008     3086049.050 9  -1897021.721 9
  21394487.960    21394492.223   -11732289.536 9 -13315650.597 9
  20339800.656    20339802.945   -25100889.990 9 -12533158.083 8
 89 11  9 13 38 59.0800000  0  4G13G 6G11G 9
  20660321.915    20660326.829   -49804184.998 9  33115493.873 8
  22178314.740    22178318.118     3177873.463 9  -1825470.274 9
  21405203.742    21405207.865   -11675977.267 9 -13271770.919 9
  20343061.509    20343063.770   -25083758.155 8 -12519808.604 7
 89 11  9 13 39 29.0800000  0  4G13G 6G11G 9
  20654898.322    20654904.246   -49832685.655 9  33093285.577 8
  22195868.221    22195871.538     3270115.021 9  -1753593.780 8
  21415970.225    21415975.392   -11619393.947 8 -13227680.046 9
  20346440.083    20346443.281   -25066003.030 8 -12505973.464 7
 89 11  9 13 39 59.0800000  0  4G13G 6G11G 9
  20649564.607    20649568.714   -49860719.054 9  33071441.386 8
  22213499.501    22213504.046     3362771.704 9  -1681393.815 9
  21426789.320    21426793.943   -11562541.905 9 -13183379.776 9
  20349934.936    20349939.226   -25047624.464 8 -12491652.517 8
 89 11  9 13 40 29.0800000  0  4G13G 6G11G 9
  20644319.656    20644323.228   -49888285.324 9  33049961.187 7
  22231209.522    22231214.771     3455841.454 9  -1608871.987 9
  21437658.342    21437663.035   -11505423.762 9 -13138872.162 9
  20353552.971    20353556.223   -25028621.807 9 -12476845.265 7
 89 11  9 13 40 59.0800000  0  4G13G 6G11G 9
  20639162.671    20639166.201   -49915385.724 8  33028844.004 8
  22248998.916    22249003.898     3549322.344 9  -1536029.794 9
  21448577.861    21448582.180   -11448041.634 9 -13094158.847 9
  20357286.862    20357289.842   -25008995.023 8 -12461551.689 8
 89 11  9 13 41 29.0800000  0  4G13G 6G11G 9
  20634094.183    20634098.268   -49942020.582 8  33008089.567 8
  22266865.433    22266870.123     3643212.081 9  -1462869.024 9
  21459547.473    21459552.008   -11390397.899 9 -13049241.671 9
  20361141.240    20361142.913   -24988743.810 8 -12445771.538 8
 89 11  9 13 41 59.0800000  0  4G13G 6G11G 9
  20629112.976    20629118.240   -49968190.636 9  32987697.329 7
  22284809.163    22284814.148     3737508.604 9  -1389391.283 9
  21470566.269    21470570.003   -11332494.711 9 -13004122.323 8
  20365113.759    20365117.127   -24967868.205 7 -12429504.836 8
 89 11  9 13 42 29.0800000  0  4G13G 6G11G 9
  20624221.576    20624226.099   -49993896.509 9  32967666.791 9
  22302830.191    22302835.415     3832209.933 9  -1315598.126 9
  21481633.816    21481637.250   -11274334.534 9 -12958802.727 8
  20369205.756    20369208.731   -24946367.781 8 -12412751.260 8
 89 11  9 13 42 59.0800000  0  4G13G 6G11G 9
  20619417.603    20619422.966   -50019139.170 9  32947997.197 8
  22320928.717    22320933.090     3927313.849 9  -1241491.244 9
  21492749.870    21492753.892   -11215919.507 9 -12913284.553 9
  20373415.218    20373418.732   -24924242.444 8 -12395510.762 8
 89 11  9 13 43 29.0800000  0  4G13G 6G11G 9
  20614702.214    20614707.092   -50043918.804 9  32928688.401 8
  22339103.116    22339106.469     4022818.344 9  -1167072.209 9
  21503915.019    21503918.011   -11157251.720 9 -12867569.416 8
  20377746.105    20377748.138   -24901491.892 7 -12377783.068 9
 89 11  9 13 43 59.0800000  0  4G13G 6G11G 9
  20610074.126    20610080.661   -50068236.799 8  32909739.319 8
  22357352.743    22357356.320     4118721.045 9  -1092342.885 9
  21515125.284    21515128.634   -11098334.287 9 -12821659.763 9
  20382192.033    20382196.178   -24878116.617 8 -12359568.592 8
 89 11  9 13 44 29.0800000  0  4G13G 6G11G 9
  20605534.380    20605539.267   -50092093.347 9  32891149.806 8
  22375678.312    22375681.826     4215020.376 9  -1017304.507 9
  21526384.160    21526387.221   -11039168.575 9 -12775556.634 9
  20386759.055    20386763.009   -24854115.651 8 -12340866.573 8
 89 11  9 13 44 59.0800000  0  4G13G 6G11G 9
  20601082.790    20601087.133   -50115489.526 8  32872919.042 8
  22394077.660    22394082.397     4311714.026 9   -941958.886 9
  21537689.783    21537693.574   -10979756.673 9 -12729261.681 8
  20391446.248    20391450.087   -24829489.203 9 -12321677.152 8
 89 11  9 13 45 29.0800000  0  4G13G 6G11G 9
  20596719.085    20596722.823   -50138425.695 9  32855046.714 8
  22412553.012    22412556.928     4408799.729 9   -866307.768 9
  21549041.283    21549046.062   -10920101.187 9 -12682776.916 9
  20396251.607    20396255.443   -24804237.448 7 -12302000.487 8
 89 11  9 13 45 59.0800000  0  4G13G 6G11G 9
  20592442.803    20592445.914   -50160902.614 9  32837532.244 8
  22431102.221    22431106.487     4506275.328 9   -790352.824 9
  21560439.440    21560444.049   -10860204.529 9 -12636104.228 9
  20401175.740    20401179.110   -24778360.349 8 -12281836.514 8
 89 11  9 13 46 29.0800000  0  4G13G 6G11G 9
  20588251.328    20588256.881   -50182921.215 9  32820374.891 9
  22449724.669    22449728.963     4604138.708 9   -714095.721 9
  21571883.375    21571887.343   -10800068.637 9 -12589245.121 9
  20406220.009    20406221.800   -24751857.770 8 -12261185.155 8
 89 11  9 13 46 59.0800000  0  4G13G 6G11G 9
  20584148.093    20584153.222   -50204482.432 9  32803573.931 8
  22468421.034    22468424.964     4702387.612 9   -637538.220 9
  21583372.143    21583376.077   -10739695.897 9 -12542201.455 8
  20411382.084    20411385.452   -24724729.684 8 -12240046.419 9
 89 11  9 13 47 29.0800000  0  4G13G 6G11G 9
  20580132.410    20580137.227   -50225587.224 9  32787128.651 9
  22487189.390    22487194.363     4801019.675 9   -560682.151 9
  21594905.082    21594908.374   -10679088.547 9 -12494974.986 8
  20416663.305    20416665.902   -24696976.626 8 -12218420.675 8
 89 11  9 13 47 59.0800000  0  4G13G 6G11G 9
  20576204.428    20576207.488   -50246236.676 9  32771038.165 8
  22506032.007    22506034.745     4900032.783 9   -483529.172 9
  21606482.493    21606486.569   -10618248.853 9 -12447567.468 9
  20422062.017    20422066.141   -24668598.476 8 -12196307.854 9
 89 11  9 13 48 29.0800000  0  3G13G 6G 3
  20572360.318    20572365.549   -50266431.233 9  32755302.152 9
  22524945.731    22524948.777     4999424.727 9   -406080.979 8
                  23917728.241   -74614817.404 9
 89 11  9 13 48 59.0800000  0  4G13G 6G 3G 9
  20568603.103    20568608.108   -50286171.989 9  32739919.737 8
  22543930.768    22543933.917     5099193.365 9   -328339.267 9
  23901377.925    23901383.473   -74700925.326 9  94776920.451 9
                  20433193.568   -74632912.418 9
 89 11  9 13 49 29.0800000  0  4G13G 6G 3G 9
  20564932.991    20564936.927   -50305459.373 9  32724890.618 8
  22562987.321    22562990.963     5199336.258 9   -250305.926 9
  23885039.636    23885044.179   -74786788.753 8  94710014.406 8
  20438976.460    20438979.422   -74602659.374 8  94978993.405 8
 89 11  9 13 49 59.0800000  0  4G13G 6G 3G 9
  20561348.798    20561352.747   -50324295.059 9  32710213.464 8
  22582114.753    22582118.203     5299850.885 9   -171982.926 9
  23868747.267    23868752.091   -74872407.245 9  94643298.727 8
  20444852.100    20444855.348   -74571782.518 8  95003053.275 7
 89 11  9 13 50 29.0800000  0  4G13G 6G 3G 9
  20557849.864    20557855.195   -50342679.028 8  32695888.301 9
  22601312.988    22601316.023     5400735.281 9    -93371.800 9
  23852501.301    23852505.805   -74957779.687 9  94576774.749 8
  20450847.149    20450850.382   -74540281.378 9  95027599.590 8
 89 11  9 13 50 59.0800000  0  4G13G 6G 3G 9
  20554438.597    20554442.058   -50360613.187 9  32681913.627 8
  22620580.279    22620583.849     5501987.269 9    -14474.234 9
  23836301.886    23836306.482   -75042905.209 9  94510443.176 7
  20456960.450    20456963.498   -74508156.220 8  95052632.164 8
 89 11  9 13 51 29.0800000  0  4G13G 6G 3G 9
  20551110.851    20551115.066   -50378098.411 9  32668288.762 8
  22639917.892    22639921.748     5603604.470 9     64707.904 8
  23820150.377    23820155.107   -75127782.986 9  94444304.656 7
  20463191.815    20463197.324   -74475407.322 8  95078150.753 8
 89 11  9 13 51 59.0800000  0  4G13G 6G 3G 9
  20547868.220    20547872.577   -50395135.326 9  32655013.246 8
  22659323.653    22659328.562     5705584.444 9    144172.710 9
  23804045.581    23804049.487   -75212412.394 9  94378359.652 9
  20469542.577    20469547.370   -74442035.195 8  95104154.980 8
 89 11  9 13 52 29.0800000  0  4G13G 6G 3G 9
  20544710.928    20544715.875   -50411725.133 9  32642086.142 8
  22678798.556    22678802.170     5807924.971 9    223918.471 9
  23787989.587    23787994.023   -75296792.428 9  94312608.971 8
  20476011.691    20476014.781   -74408040.352 9  95130644.427 8
 89 11  9 13 52 59.0800000  0  4G13G 6G 3G 9
  20541640.249    20541644.718   -50427868.158 9  32629507.172 8
  22698341.377    22698345.727     5910623.625 9    303943.295 9
  23771981.042    23771984.304   -75380922.190 9  94247053.318 9
  20482599.413    20482602.704   -74373422.950 8  95157618.993 7
 89 11  9 13 53 29.0800000  0  4G13G 6G 3G 9
  20538651.988    20538657.354   -50443565.873 9  32617275.175 7
  22717951.953    22717956.046     6013678.219 9    384245.469 9
  23756018.913    23756022.815   -75464800.947 9  94181693.260 9
  20489305.985    20489308.447   -74338183.007 8  95185078.668 8
 89 11  9 13 53 59.0800000  0  4G13G 6G 3G 9
  20535749.876    20535753.300   -50458819.170 9  32605389.482 9
  22737630.669    22737634.678     6117086.321 9    464823.110 9
  23740104.754    23740108.521   -75548427.861 9  94116529.425 8
  20496129.095    20496132.471   -74302321.355 8  95213022.785 7
 89 11  9 13 54 29.0800000  0  4G13G 6G 3G 9
  20532932.595    20532935.490   -50473629.225 9  32593849.173 8
  22757374.520    22757379.280     6220845.527 9    545674.320 9
  23724239.426    23724242.931   -75631802.222 9  94051562.405 8
  20503072.157    20503075.692   -74265838.407 8  95241451.031 8
 89 11  9 13 54 59.0800000  0  4G13G 6G 3G 9
  20530197.539    20530200.173   -50487997.329 9  32582653.242 8
  22777186.770    22777191.027     6324953.592 9    626797.356 8
  23708421.565    23708425.868   -75714923.092 9  93986792.907 8
  20510133.098    20510135.760   -74228734.598 8  95270363.076 8
 89 11  9 13 55 29.0800000  0  4G13G 6G 3G 9
  20527546.738    20527550.607   -50501924.229 9  32571801.106 8
  22797063.174    22797068.340     6429407.981 9    708190.261 9
  23692653.211    23692656.666   -75797789.722 8  93922221.520 9
  20517311.547    20517314.710   -74191010.653 8  95299758.306 8
 89 11  9 13 55 59.0800000  0  4G13G 6G 3G 9
  20524980.220    20524984.464   -50515410.842 9  32561292.062 8
  22817005.916    22817009.931     6534206.261 9    789851.155 9
  23676932.560    23676937.002   -75880401.558 9  93857848.660 9
  20524607.903    20524611.251   -74152666.925 8  95329636.501 8
 89 11  9 13 56 29.0800000  0  4G13G 6G 3G 9
  20522498.240    20522500.583   -50528458.091 9  32551125.373 8
  22837013.851    22837016.993     6639346.032 9    871778.131 9
  23661260.497    23661264.093   -75962757.754 8  93793675.023 9
  20532022.710    20532025.472   -74113704.031 9  95359997.176 7
 89 11  9 13 56 59.0800000  0  4G13G 6G 3G 9
  20520098.817    20520102.252   -50541067.676 9  32541299.703 8
  22857085.061    22857089.948     6744824.806 9    953969.265 9
  23645636.952    23645641.892   -76044857.646 9  93729701.095 9
  20539555.083    20539557.973   -74074122.763 8  95390839.695 8
 89 11  9 13 57 29.0800000  0  4G13G 6G 3G 9
  20517781.731    20517785.599   -50553240.676 9  32531814.249 8
  22877221.228    22877225.829     6850640.095 9   1036422.614 9
  23630062.243    23630067.928   -76126700.676 9  93665927.317 9
  20547204.747    20547205.806   -74033923.568 7  95422163.680 8
 89 11  9 13 57 59.0800000  0  4G13G 6G 3G 9
  20515548.599    20515553.600   -50564977.907 9  32522668.339 8
  22897421.205    22897425.528     6956789.586 9   1119136.380 9
  23614537.160    23614542.083   -76208285.668 9  93602354.600 9
  20554970.845    20554974.580   -73993107.053 8  95453968.726 8
 89 11  9 13 58 29.0800000  0  4G13G 6G 3G 9
  20513397.686    20513402.517   -50576280.947 9  32513860.769 8
  22917684.023    22917688.889     7063270.757 9   1202108.611 9
  23599062.247    23599066.018   -76289612.209 8  93538983.257 8
  20562855.266    20562858.514   -73951674.221 9  95486254.017 8
 89 11  9 13 58 59.0800000  0  4G13G 6G 3G 9
  20511329.840    20511334.190   -50587150.865 9  32505390.705 8
  22938009.265    22938013.980     7170081.177 9   1285337.358 9
  23583634.820    23583639.478   -76370679.630 9  93475813.853 9
  20570855.778    20570860.329   -73909625.384 8  95519019.307 8
 89 11  9 13 59 29.0800000  0  4G13G 6G 3G 9
  20509344.861    20509347.376   -50597588.803 9  32497257.248 8
  22958397.072    22958401.430     7277218.347 9   1368820.731 9
  23568257.565    23568262.429   -76451487.154 9  93412846.954 9
  20578976.243    20578979.421   -73866961.372 8  95552263.965 7
 89 11  9 13 59 59.0800000  0  4G13G 6G 3G 9
  20507439.348    20507442.282   -50607596.143 9  32489459.317 8
  22978846.996    22978851.032     7384679.782 9   1452556.781 9
  23552930.916    23552934.744   -76532034.188 9  93350083.044 9
  20587211.626    20587214.816   -73823682.991 9  95585987.354 7
 89 11  9 14  0 29.0800000  0  4G13G 6G 3G 9
  20505617.229    20505621.207   -50617174.322 9  32481995.788 7
  22999357.291    22999362.057     7492462.862 9   1536543.470 9
  23537652.966    23537656.249   -76612320.144 9  93287522.559 8
  20595564.201    20595568.492   -73779791.109 8  95620188.779 8
 89 11  9 14  0 59.0800000  0  4G13G 6G 3G 9
  20503875.116    20503878.851   -50626323.698 9  32474866.386 9
  23019929.215    23019932.500     7600565.153 9   1620778.896 9
  23522424.537    23522428.411   -76692344.286 8  93225166.086 8
  20604033.066    20604036.729   -73735286.833 9  95654867.398 7
 89 11  9 14  1 29.0800000  0  4G13G 6G 3G 9
  20502216.390    20502220.206   -50635046.219 9  32468069.604 8
  23040560.465    23040564.637     7708983.985 9   1705260.965 9
  23507246.364    23507250.171   -76772106.012 9  93163014.103 9
  20612619.696    20612621.013   -73690170.722 8  95690022.771 8
 89 11  9 14  1 59.0800000  0  4G13G 6G 3G 9
  20500636.858    20500640.895   -50643342.735 9  32461604.791 8
  23061251.937    23061255.857     7817717.080 9   1789987.899 9
  23492117.900    23492121.527   -76851604.890 8  93101066.920 8
  20621321.444    20621324.091   -73644443.721 9  95725654.159 9
 89 11  9 14  2 29.0800000  0  4G13G 6G 3G 9
  20499139.457    20499143.354   -50651214.903 9  32455470.622 8
  23082001.788    23082006.762     7926761.667 9   1874957.542 9
  23477041.495    23477045.193   -76930840.009 9  93039325.273 8
  20630138.181    20630141.071   -73598106.482 9  95761761.051 8
 89 11  9 14  2 59.0800000  0  4G13G 6G 3G 9
  20497722.353    20497726.229   -50658663.835 9  32449666.247 8
  23102810.709    23102816.311     8036115.438 9   1960168.099 9
  23462013.508    23462017.146   -77009810.684 9  92977789.682 9
  20639070.692    20639074.899   -73551160.353 8  95798342.406 8
 89 11  9 14  3 29.0800000  0  4G13G 6G 3G 9
  20496384.954    20496388.440   -50665690.560 9  32444190.865 8
  23123678.261    23123684.623     8145775.571 9   2045617.395 9
  23447035.969    23447039.815   -77088516.667 9  92916460.349 9
  20648120.769    20648124.175   -73503606.226 9  95835397.523 8
 89 11  9 14  3 59.0800000  0  4G13G 6G 3G 9
  20495127.941    20495132.173   -50672296.126 9  32439043.650 8
  23144604.151    23144609.826     8255739.764 9   2131303.612 9
  23432107.875    23432112.593   -77166957.158 9  92855337.885 8
  20657286.665    20657289.955   -73455444.792 8  95872925.878 7
 89 11  9 14  4 29.0800000  0  4G13G 6G 3G 9
  20493950.176    20493953.819   -50678482.833 9  32434222.823 8
  23165587.100    23165592.853     8366005.293 9   2217224.662 9
  23417231.652    23417235.969   -77245131.654 9  92794422.688 8
  20666565.087    20666569.695   -73406677.283 8  95910926.499 8
 89 11  9 14  4 59.0800000  0  4G13G 6G 3G 9
  20492852.192    20492856.542   -50684251.675 8  32429727.594 8
  23186626.292    23186631.902     8476569.509 9   2303378.448 9
  23402406.842    23402411.146   -77323039.514 9  92733715.257 8
  20675961.173    20675963.880   -73357304.571 9  95949398.694 8
 89 11  9 14  5 29.0800000  0  4G13G 6G 3G 9
  20491832.242    20491838.951   -50689603.762 9  32425557.110 7
  23207723.257    23207729.081     8587430.047 9   2389763.124 9
  23387633.080    23387636.861   -77400680.169 9  92673216.041 8
  20685471.434    20685474.996   -73307327.674 9  95988341.668 8
 89 11  9 14  5 59.0800000  0  4G13G 6G 3G 9
  20490893.218    20490899.702   -50694540.018 8  32421710.658 9
  23228875.290    23228881.043     8698584.395 9   2476376.718 9
  23372907.897    23372913.707   -77478052.922 9  92612925.564 9
  20695095.839    20695100.618   -73256747.717 8  96027754.562 8
 89 11  9 14  6 29.0800000  0  4G13G 6G 3G 9
  20490033.218    20490037.790   -50699062.087 9  32418186.955 7
  23250082.764    23250088.374     8810029.825 9   2563217.139 9
  23358235.499    23358240.929   -77555157.502 8  92552844.062 8
  20704836.691    20704839.395   -73205565.735 9  96067636.583 7
 89 11  9 14  6 59.0800000  0  4G13G 6G 3G 9
  20489251.213    20489255.914   -50703171.347 9  32414984.918 9
  23271345.050    23271350.767     8921763.686 9   2650282.300 9
  23343615.417    23343619.055   -77631993.160 8  92492972.110 9
  20714688.698    20714693.276   -73153783.006 9  96107986.702 7
 89 11  9 14  7 29.0800000  0  4G13G 6G 3G 9
  20488547.990    20488551.582   -50706869.395 9  32412103.288 7
  23292661.797    23292668.214     9033783.260 9   2737570.094 9
  23329044.469    23329049.242   -77708559.806 8  92433309.772 8
  20724657.883    20724661.173   -73101400.879 8  96148803.908 7
 89 11  9 14  7 59.0800000  0  4G13G 6G 3G 9
  20487922.005    20487925.662   -50710157.513 9  32409541.096 8
  23314032.768    23314038.964     9146086.057 9   2825078.572 9
  23314526.287    23314530.616   -77784856.561 9  92373857.742 9
  20734739.308    20734742.370   -73048420.358 9  96190087.372 8
 89 11  9 14  8 29.0800000  0  4G13G 6G 3G 9
  20487374.109    20487378.548   -50713037.112 9  32407297.241 8
  23335456.839    23335462.078     9258669.393 9   2912805.645 9
  23300058.953    23300063.006   -77860883.164 9  92314616.219 9
  20744934.678    20744938.156   -72994842.588 8  96231836.224 7
 89 11  9 14  8 59.0800000  0  4G13G 6G 3G 9
  20486903.032    20486908.434   -50715509.330 9  32405370.806 8
  23356934.257    23356938.429     9371530.604 9   3000749.254 9
  23285641.530    23285648.619   -77936638.935 8  92255585.739 8
  20755244.578    20755248.442   -72940668.805 8  96274049.514 8
 89 11  9 14  9 29.0800000  0  4G13G 6G 3G 9
  20486510.633    20486514.834   -50717576.008 8  32403760.379 8
  23378463.581    23378468.262     9484667.101 9   3088907.369 8
  23271277.612    23271283.645   -78012123.371 8  92196766.699 9
  20765666.964    20765669.711   -72885900.370 8  96316726.160 9
 89 11  9 14  9 59.0800000  0  4G13G 6G 3G 9
  20486194.496    20486197.219   -50719238.083 9  32402465.245 7
  23400044.382    23400049.104     9598076.253 9   3177277.951 8
  23256966.450    23256970.790   -78087336.155 8  92138159.346 9
  20776202.507    20776204.081   -72830538.576 9  96359865.167 8
 89 11  9 14 10 29.0800000  0  4G13G 6G 3G 9
  20485954.899    20485958.172   -50720497.444 9  32401483.889 8
  23421677.884    23421681.849     9711755.319 9   3265858.835 8
  23242705.731    23242709.437   -78162276.768 9  92079764.033 8
  20786850.676    20786852.264   -72774584.792 8  96403465.459 8
 89 11  9 14 10 59.0800000  0  4G13G 6G 3G 9
  20485792.102    20485794.982   -50721355.087 9  32400815.574 8
  23443360.181    23443365.969     9825701.867 9   3354648.141 9
  23228495.855    23228500.445   -78236944.875 9  92021581.086 9
  20797609.629    20797611.860   -72718040.243 9  96447526.083 7
 89 11  9 14 11 29.0800000  0  4G13G 6G 3G 9
  20485704.702    20485708.290   -50721812.659 9  32400459.009 8
  23465093.954    23465099.844     9939913.020 9   3443643.615 9
  23214338.976    23214344.596   -78311339.961 8  91963610.866 8
  20808482.624    20808484.184   -72660906.190 9  96492046.065 8
 89 11  9 14 11 59.0800000  0  4G13G 6G 3G 9
  20485692.641    20485697.297   -50721871.877 8  32400412.834 8
  23486877.517    23486884.014    10054385.874 9   3532842.988 9
  23200233.574    23200239.073   -78385461.865 8  91905853.509 9
  20819466.102    20819469.694   -72603184.439 8  96537023.993 7
 89 11  9 14 12 29.0800000  0  4G13G 6G 3G 9
  20485757.150    20485761.662   -50721534.167 9  32400675.944 8
  23508710.224    23508716.957    10169118.195 9   3622244.560 9
  23186181.476    23186186.806   -78459309.825 9  91848309.660 9
  20830560.646    20830566.097   -72544875.998 8  96582459.069 9
 89 11  9 14 12 59.0800000  0  4G13G 6G 3G 9
  20485895.874    20485900.964   -50720800.654 8  32401247.488 8
  23530592.370    23530598.265    10284107.245 9   3711846.193 9
  23172182.527    23172186.158   -78532883.324 9  91790979.634 9
  20841768.836    20841771.512   -72485982.358 8  96628350.158 8
 89 11  9 14 13 29.0800000  0  4G13G 6G 3G 9
  20486111.295    20486115.559   -50719672.940 9  32402126.197 7
  23552522.137    23552529.142    10399350.097 9   3801645.573 9
  23158233.590    23158238.374   -78606182.281 9  91733863.544 9
  20853087.091    20853090.482   -72426505.144 9  96674695.971 8
 89 11  9 14 13 59.0800000  0  4G13G 6G 3G 9
  20486399.938    20486404.665   -50718152.416 8  32403310.991 8
  23574500.798    23574506.436    10514844.464 9   3891640.941 9
  23144336.910    23144342.524   -78679205.788 9  91676962.098 9
  20864515.628    20864520.092   -72366445.237 9  96721495.824 8
 89 11  9 14 14 29.0800000  0  4G13G 6G 3G 9
  20486763.366    20486768.624   -50716241.507 8  32404799.973 7
  23596525.807    23596532.454    10630586.916 9   3981829.611 9
  23130493.682    23130497.975   -78751954.361 9  91620274.880 8
  20876055.574    20876059.337   -72305805.242 9  96768747.695 8
 89 11  9 14 14 59.0800000  0  4G13G 6G 3G 9
  20487201.134    20487206.360   -50713940.752 9  32406592.729 7
  23618597.985    23618604.511    10746575.131 9   4072209.786 9
  23116702.875    23116707.383   -78824427.260 8  91563802.463 8
  20887705.417    20887708.421   -72244586.076 9  96816450.890 8
 89 11  9 14 15 29.0800000  0  4G13G 6G 3G 9
  20487711.788    20487718.004   -50711251.772 8  32408688.002 8
  23640716.482    23640722.208    10862806.477 9   4162779.417 9
  23102963.980    23102968.351   -78896623.919 9  91507545.304 8
  20899465.110    20899469.146   -72182789.304 9  96864604.147 7
 89 11  9 14 15 59.0800000  0  4G13G 6G 3G 9
  20488297.055    20488302.383   -50708176.790 8  32411084.052 8
  23662880.205    23662885.894    10979278.112 9   4253536.296 8
  23089276.857    23089283.615   -78968544.341 9  91451503.382 8
  20911335.084    20911339.477   -72120416.570 9  96913206.206 7
 89 11  9 14 16 29.0800000  0  4G13G 6G 3G 9
  20488956.265    20488960.820   -50704716.716 8  32413780.182 8
  23685089.503    23685095.756    11095987.418 9   4344478.361 9
  23075643.759    23075649.308   -79040188.158 8  91395677.026 9
  20923312.822    20923317.100   -72057469.403 9  96962255.861 8
 89 11  9 14 16 59.0800000  0  4G13G 6G 3G 9
  20489687.321    20489694.141   -50700873.525 8  32416774.826 8
  23707343.365    23707349.432    11212931.501 9   4435603.367 9
  23062063.592    23062068.619   -79111554.829 9  91340066.619 8
  20935399.768    20935404.474   -71993949.439 9  97011751.868 8
 89 11  9 14 17 29.0800000  0  4G13G 6G 3G 9
  20490491.582    20490497.511   -50696648.646 8  32420066.906 8
  23729642.143    23729648.441    11330107.753 9   4526909.242 8
  23048536.814    23048540.940   -79182644.172 8  91284672.312 8
  20947595.447    20947600.198   -71929858.619 9  97061692.692 8
 89 11  9 14 17 59.0800000  0  4G13G 6G 3G 9
  20491369.332    20491374.449   -50692043.421 8  32423655.348 8
  23751983.272    23751989.811    11447513.301 9   4618393.810 8
  23035060.439    23035065.393   -79253456.005 8  91229494.229 9
  20959900.421    20959903.527   -71865198.311 8  97112077.276 7
 89 11  9 14 18 29.0800000  0  4G13G 6G 3G 9
  20492318.039    20492323.295   -50687059.064 9  32427539.241 7
  23774368.171    23774374.840    11565145.560 9   4710055.023 9
  23021639.031    23021643.460   -79323989.929 9  91174532.705 9
  20972314.102    20972317.294   -71799970.371 8  97162904.174 7
 89 11  9 14 18 59.0800000  0  4G13G 6G 3G 9
  20493338.702    20493341.368   -50681697.919 9  32431716.713 8
  23796794.803    23796802.651    11683001.656 9   4801890.662 9
  23008270.024    23008274.706   -79394245.660 9  91119787.955 9
  20984833.930    20984836.520   -71734176.427 9  97214172.088 8
 89 11  9 14 19 29.0800000  0  4G13G 6G 3G 9
  20494430.696    20494434.220   -50675960.894 9  32436187.079 8
  23819264.941    23819272.376    11801078.836 9   4893898.564 9
  22994954.135    22994958.088   -79464222.909 9  91065260.200 9
  20997460.918    20997464.495   -71667818.407 8  97265879.565 8
 89 11  9 14 19 59.0800000  0  4G13G 6G 3G 9
  20495594.809    20495597.296   -50669849.967 8  32440948.790 8
  23841775.554    23841783.261    11919374.409 9   4986076.653 9
  22981691.947    22981695.459   -79533921.442 9  91010949.628 8
  21010195.282    21010198.502   -71600897.736 9  97318025.461 8
 89 11  9 14 20 29.0800000  0  4G13G 6G 3G 9
  20496826.748    20496832.841   -50663366.883 9  32446000.503 8
  23864329.159    23864334.833    12037885.511 9   5078422.667 9
  22968480.133    22968485.431   -79603341.263 9  90956856.217 8
  21023036.708    21023040.286   -71533416.556 9  97370608.112 9
 89 11  9 14 20 59.0800000  0  4G13G 6G 3G 9
  20498131.117    20498135.013   -50656513.457 9  32451340.799 8
  23886921.484    23886928.289    12156609.298 9   5170934.428 8
  22955323.378    22955328.188   -79672482.067 9  90902980.238 9
  21035985.095    21035988.129   -71465376.689 9  97423626.087 8
 89 11  9 14 21 29.0800000  0  4G13G 6G 3G 9
  20499506.694    20499509.853   -50649290.975 9  32456968.664 8
  23909554.132    23909560.337    12275543.157 9   5263609.874 9
  22942219.558    22942224.810   -79741343.714 9  90849321.775 9
  21049038.140    21049041.574   -71396779.812 9  97477078.105 8
 89 11  9 14 21 59.0800000  0  4G13G 6G 3G 9
  20500949.464    20500953.275   -50641700.958 9  32462882.915 7
  23932225.295    23932232.814    12394684.210 8   5356446.780 9
  22929168.281    22929174.712   -79809925.807 9  90795881.156 8
  21062196.887    21062200.878   -71327627.865 9  97530962.654 8
 89 11  9 14 22 29.0800000  0  4G13G 6G 3G 9
  20502463.902    20502467.462   -50633745.161 9  32469082.176 8
  23954936.265    23954943.685    12514029.826 9   5449443.048 9
  22916171.767    22916176.528   -79878228.050 9  90742658.601 9
  21075461.449    21075464.440   -71257922.607 8  97585278.350 8
 89 11  9 14 22 59.0800000  0  4G13G 6G 3G 9
  20504047.777    20504052.395   -50625425.357 9  32475565.082 7
  23977685.919    23977693.647    12633577.017 9   5542596.405 9
  22903227.857    22903232.271   -79946250.575 9  90689654.005 8
  21088831.584    21088835.520   -71187666.067 9  97640023.609 7
 89 11  9 14 23 29.0800000  0  4G13G 6G 3G 9
  20505700.421    20505704.074   -50616743.065 9  32482330.458 6
  24000473.344    24000479.983    12753323.095 9   5635904.729 9
  22890335.561    22890341.505   -80013992.960 9  90636867.691 9
  21102305.448    21102309.398   -71116860.140 9  97695196.977 8
 89 11  9 14 23 59.0800000  0  4G13G 6G 3G 9
  20507420.758    20507424.898   -50607700.051 9  32489376.907 8
  24023297.292    24023305.163    12873265.218 9   5729365.809 8
  22877497.996    22877502.525   -80081455.156 9  90584299.703 8
  21115882.853    21115888.219   -71045506.804 9  97750796.905 8
 89 11  9 14 24 29.0800000  0  4G13G 6G 3G 9
  20509208.594    20509213.825   -50598297.881 9  32496703.225 8
  24046159.359    24046166.486    12993400.675 9   5822977.528 9
  22864713.281    22864718.735   -80148637.103 9  90531950.091 8
  21129565.488    21129569.752   -70973607.910 8  97806821.947 8
 89 11  9 14 24 59.0800000  0  4G13G 6G 3G 9
  20511066.109    20511070.685   -50588538.169 9  32504308.146 8
  24069056.106    24069064.034    13113726.647 9   5916737.722 8
  22851983.200    22851987.596   -80215538.292 8  90479819.269 9
  21143350.648    21143354.998   -70901165.478 9  97863270.494 8
 89 11  9 14 25 29.0800000  0  4G13G 6G 3G 9
  20512991.435    20512996.619   -50578422.646 8  32512190.317 8
  24091989.025    24091997.776    13234240.240 9   6010644.093 9
  22839306.818    22839309.658   -80282158.748 9  90427907.199 8
  21157239.236    21157243.241   -70828181.634 8  97920140.927 8
 89 11  9 14 25 59.0800000  0  4G13G 6G 3G 9
  20514982.562    20514990.193   -50567953.212 9  32520348.260 8
  24114958.598    24114965.196    13354938.601 9   6104694.443 9
  22826681.535    22826686.761   -80348498.696 9  90376213.687 8
  21171229.145    21171233.681   -70754658.444 8  97977431.619 8
 89 11  9 14 26 29.0800000  0  4G13G 6G 3G 9
  20517042.628    20517049.196   -50557131.364 8  32528780.819 8
  24137961.840    24137967.967    13475819.126 9   6198886.726 9
  22814109.588    22814116.765   -80414557.515 8  90324739.244 9
  21185322.796    21185327.748   -70680597.943 8  98035140.989 9
 89 11  9 14 26 59.0800000  0  4G13G 6G 3G 9
  20519170.114    20519173.445   -50545958.633 9  32537486.784 8
  24160998.194    24161006.008    13596878.955 8   6293218.699 9
  22801593.703    22801598.415   -80480335.313 9  90273483.797 9
  21199518.387    21199522.522   -70606001.985 9  98093267.613 8
 89 11  9 14 27 29.0800000  0  4G13G 6G 3G 9
  20521362.993    20521366.783   -50534436.990 9  32546464.641 8
  24184068.826    24184077.141    13718115.269 9   6387688.216 9
  22789130.639    22789135.705   -80545832.185 9  90222447.237 8
  21213813.541    21213819.866   -70530872.703 9  98151809.802 9
 89 11  9 14 27 59.0800000  0  4G13G 6G 3G 9
  20523619.803    20523624.837   -50522567.471 9  32555713.553 8
  24207172.984    24207180.947    13839525.231 9   6482293.030 8
  22776720.748    22776724.926   -80611047.569 9  90171630.003 8
  21228212.909    21228218.146   -70455212.214 8  98210765.914 8
 89 11  9 14 28 29.0800000  0  4G13G12G 3G 9
  20525944.804    20525949.106   -50510352.211 8  32565231.883 8
                  20656205.537   -88964069.965 9
  22764364.311    22764367.833   -80675981.642 9  90121031.991 9
  21242712.122    21242716.952   -70379022.826 8  98270134.168 9
 89 11  9 14 28 59.0800000  0  4G13G12G 3G 9
  20528334.779    20528339.882   -50497793.194 9  32575018.075 8
  20650814.136    20650818.995   -88992537.654 9 112917695.652 8
  22752061.897    22752066.070   -80740634.465 9  90070653.113 8
  21257310.716    21257313.959   -70302306.647 8  98329912.918 9
 89 11  9 14 29 29.0800000  0  4G13G12G 3G 9
  20530789.953    20530794.061   -50484891.562 9  32585071.222 8
  20645507.335    20645512.308   -89020427.623 9 112895963.137 9
  22739812.534    22739817.029   -80805005.719 9  90020493.635 9
  21272008.787    21272013.104   -70225065.714 9  98390100.562 8
 89 11  9 14 29 59.0800000  0  4G13G12G 3G 9
  20533311.564    20533315.416   -50471649.605 9  32595389.558 8
  20640309.992    20640314.704   -89047738.899 9 112874681.573 8
  22727617.002    22727620.160   -80869095.679 9  89970553.367 8
  21286807.525    21286811.756   -70147302.232 9  98450695.367 8
 89 11  9 14 30 29.0800000  0  4G13G12G 3G 9
  20535894.917    20535899.351   -50458068.508 9  32605972.178 8
  20635224.694    20635226.930   -89074469.771 9 112853852.262 8
  22715474.751    22715478.050   -80932904.219 9  89920832.383 8
  21301703.952    21301707.796   -70069018.391 9  98511695.658 8
 89 11  9 14 30 59.0800000  0  4G13G12G 3G 9
  20538543.715    20538547.227   -50444150.285 9  32616817.495 8
  20630248.152    20630252.821   -89100618.488 9 112833476.596 9
  22703384.899    22703389.631   -80996431.151 9  89871330.838 9
  21316699.740    21316703.598   -69990216.505 9  98573099.633 8
 89 11  9 14 31 29.0800000  0  4G13G12G 3G 9
  20541255.547    20541260.295   -50429896.535 9  32627924.234 7
  20625383.298    20625387.448   -89126183.160 9 112813556.002 8
  22691349.945    22691354.820   -81059676.592 8  89822048.633 9
  21331794.048    21331797.564   -69910898.648 9  98634905.665 8
 89 11  9 14 31 59.0800000  0  4G13G12G 3G 9
  20544032.467    20544036.500   -50415309.154 9  32639290.964 8
  20620630.148    20620634.352   -89151162.633 9 112794091.423 8
  22679367.800    22679373.139   -81122640.621 9  89772985.704 8
  21346984.815    21346989.346   -69831067.522 9  98697111.635 8
 89 11  9 14 32 29.0800000  0  4G13G12G 3G 9
  20546871.302    20546875.801   -50400389.710 9  32650916.441 8
  20615988.775    20615993.515   -89175555.025 9 112775084.323 9
  22667440.951    22667444.967   -81185323.007 9  89724142.233 8
  21362273.814    21362279.175   -69750725.110 9  98759715.993 9
 89 11  9 14 32 59.0800000  0  4G13G12G 3G 9
  20549771.765    20549778.405   -50385140.176 8  32662799.115 8
  20611458.666    20611463.112   -89199358.735 9 112756535.897 9
  22655566.618    22655570.512   -81247723.883 9  89675518.133 9
  21377658.885    21377664.560   -69669873.584 9  98822717.057 9
 89 11  9 14 33 29.0800000  0  4G13G12G 3G 9
  20552736.839    20552742.715   -50369562.213 9  32674937.710 8
  20607041.124    20607045.478   -89222572.342 9 112738447.324 8
  22643746.379    22643749.301   -81309843.320 9  89627113.335 9
  21393140.543    21393146.333   -69588515.508 9  98886112.863 8
 89 11  9 14 33 59.0800000  0  4G13G12G 3G 9
  20555762.850    20555768.872   -50353657.376 9  32687331.028 8
  20602735.658    20602741.522   -89245194.361 9 112720819.698 8
  22631978.070    22631982.050   -81371681.251 9  89578927.873 9
  21408718.572    21408723.947   -69506653.098 9  98949901.632 9
 89 11  9 14 34 29.0800000  0  4G13G12G 3G 9
  20558851.474    20558856.825   -50337427.241 9  32699977.829 8
  20598543.380    20598548.530   -89267223.279 9 112703654.243 8
  22620263.943    22620268.324   -81433237.630 9  89530961.808 9
  21424392.402    21424397.892   -69424288.707 9  99014081.565 9
 89 11  9 14 34 59.0800000  0  4G13G12G 3G 9
  20562000.996    20562007.081   -50320873.463 8  32712876.800 7
  20594465.026    20594468.753   -89288657.548 9 112686952.143 7
  22608603.160    22608609.214   -81494512.632 9  89483214.999 8
  21440160.903    21440165.592   -69341424.386 9  99078651.033 7
 89 11  9 14 35 29.0800000  0  4G13G12G 3G 9
  20565212.968    20565219.152   -50303999.035 8  32726025.636 8
  20590499.998    20590504.222   -89309495.615 9 112670714.620 9
  22596997.059    22597002.069   -81555506.549 9  89435687.212 9
  21456024.373    21456027.989   -69258063.144 8  99143607.719 8
 89 11  9 14 35 59.0800000  0  4G13G12G 3G 9
  20568484.957    20568490.872   -50286804.770 9  32739423.696 8
  20586649.536    20586652.992   -89329736.219 9 112654942.660 7
  22585443.087    22585448.913   -81616218.979 9  89388378.775 8
  21471982.126    21471986.943   -69174207.096 9  99208949.970 8
 89 11  9 14 36 29.0800000  0  4G13G12G 3G 9
  20571817.693    20571824.027   -50269292.037 9  32753069.900 8
  20582911.215    20582915.319   -89349378.036 9 112639637.278 8
  22573944.871    22573948.987   -81676650.122 9  89341289.521 9
  21488032.518    21488036.590   -69089858.467 9  99274676.068 8
 89 11  9 14 36 59.0800000  0  4G13G12G 3G 9
  20575211.397    20575216.157   -50251462.939 9  32766962.640 8
  20579287.670    20579292.401   -89368419.710 8 112624799.543 8
  22562498.461    22562501.876   -81736800.082 9  89294419.364 8
  21504176.906    21504179.019   -69005019.811 9  99340784.001 7
 89 11  9 14 37 29.0800000  0  4G13G12G 3G 9
  20578663.843    20578669.071   -50233319.426 9  32781100.374 9
  20575778.317    20575783.794   -89386859.975 8 112610430.452 9
  22551104.029    22551110.943   -81796669.120 9  89247768.109 8
  21520414.904    21520418.634   -68919693.552 9  99407271.878 8
 89 11  9 14 37 59.0800000  0  4G13G12G 3G 9
  20582176.108    20582181.044   -50214863.146 9  32795481.817 8
  20572383.736    20572388.314   -89404697.152 9 112596531.287 9
  22539764.774    22539771.001   -81856257.158 9  89201335.809 9
  21536744.082    21536749.372   -68833882.307 9  99474137.648 8
 89 11  9 14 38 29.0800000  0  4G13G12G 3G 9
  20585747.649    20585752.431   -50196095.813 9  32810105.632 8
  20569104.944    20569109.004   -89421929.905 9 112583103.090 8
  22528478.955    22528485.269   -81915564.310 9  89155122.380 9
  21553165.424    21553170.570   -68747588.114 9  99541379.764 8
 89 11  9 14 38 59.0800000  0  4G13G12G 3G 9
  20589377.309    20589382.458   -50177019.063 9  32824970.553 8
  20565941.231    20565945.330   -89438557.239 9 112570146.646 9
  22517247.398    22517251.716   -81974590.751 9  89109127.704 8
  21569677.258    21569681.373   -68660814.083 9  99608995.774 8
 89 11  9 14 39 29.0800000  0  4G13G12G 3G 9
  20593067.194    20593070.448   -50157634.713 9  32840075.154 9
  20562892.312    20562896.816   -89454578.035 9 112557662.832 8
  22506068.020    22506074.546   -82033336.615 9  89063351.649 9
  21586282.102    21586285.473   -68573562.534 9  99676983.854 7
 89 11  9 14 39 59.0800000  0  4G13G12G 3G 9
  20596813.731    20596818.393   -50137945.014 9  32855417.685 8
  20559960.244    20559964.179   -89469990.793 9 112545652.809 9
  22494942.258    22494947.990   -82091802.030 9  89017794.113 9
  21602974.818    21602979.836   -68485835.844 9  99745342.187 8
 89 11  9 14 40 29.0800000  0  4G13G12G 3G 9
  20600618.330    20600622.799   -50117951.370 9  32870997.060 7
  20557142.888    20557146.598   -89484794.490 9 112534117.391 8
  22483870.492    22483876.432   -82149987.241 9  88972454.921 8
  21619759.142    21619762.801   -68397636.749 9  99814068.607 8
 89 11  9 14 40 59.0800000  0  4G13G12G 3G 9
  20604479.749    20604485.175   -50097654.829 8  32886812.456 8
  20554441.951    20554446.108   -89498987.703 9 112523057.676 8
  22472851.711    22472855.706   -82207892.349 9  88927333.994 8
  21636633.384    21636636.771   -68308967.567 9  99883161.346 9
 89 11  9 14 41 29.0800000  0  4G13G12G 3G 9
  20608398.813    20608405.386   -50077058.188 9  32902861.687 7
  20551857.188    20551862.204   -89512569.694 9 112512474.236 8
  22461886.769    22461890.793   -82265517.580 9  88882431.138 8
  21653594.356    21653600.459   -68219831.337 9  99952618.025 8
 89 11  9 14 41 59.0800000  0  4G13G12G 3G 9
  20612375.879    20612380.134   -50056162.532 9  32919143.938 9
  20549388.022    20549394.092   -89525539.315 9 112502367.969 8
  22450974.852    22450978.895   -82322863.324 9  88837746.076 8
  21670645.274    21670649.718   -68130230.623 9 100022436.625 8
 89 11  9 14 42 29.0800000  0  4G13G12G 3G 9
  20616409.726    20616413.673   -50034970.282 9  32935657.282 8
  20547036.744    20547042.221   -89537895.229 9 112492739.929 8
  22440115.569    22440119.227   -82379929.521 9  88793278.850 9
  21687782.391    21687788.781   -68040167.674 9 100092615.404 8
 89 11  9 14 42 59.0800000  0  4G13G12G 3G 9
  20620498.860    20620503.116   -50013482.904 9  32952400.612 8
  20544803.411    20544808.626   -89549636.460 9 112483590.849 9
  22429308.458    22429312.767   -82436716.231 9  88749029.390 7
  21705010.242    21705014.272   -67949645.340 9 100163152.158 8
 89 11  9 14 43 29.0800000  0  4G13G12G 3G 9
  20624643.481    20624648.012   -49991701.991 9  32969372.655 8
  20542686.841    20542692.636   -89560761.545 9 112474921.879 8
  22418555.980    22418560.318   -82493223.829 9  88704997.426 8
  21722322.604    21722327.337   -67858666.050 9 100234044.999 9
 89 11  9 14 43 59.0800000  0  4G13G12G 3G 9
  20628843.411    20628849.191   -49969629.726 9  32986571.742 9
  20540687.702    20540692.889   -89571270.021 9 112466733.381 8
  22407855.665    22407861.606   -82549452.302 9  88661182.975 8
  21739721.309    21739726.941   -67767232.565 8 100305291.708 8
 89 11  9 14 44 29.0800000  0  4G13G12G 3G 9
  20633098.853    20633103.545   -49947267.459 9  33003996.798 7
  20538804.801    20538809.574   -89581160.584 9 112459026.366 8
  22397208.618    22397213.979   -82605402.115 9  88617585.655 9
  21757207.497    21757211.628   -67675347.554 9 100376890.283 8
 89 11  9 14 44 59.0800000  0  4G13G12G 3G 9
  20637409.225    20637414.847   -49924617.050 9  33021646.370 9
  20537039.877    20537046.411   -89590432.139 9 112451801.690 9
  22386614.771    22386620.160   -82661073.466 9  88574205.318 9
  21774777.825    21774783.057   -67583013.781 9 100448838.552 8
 89 11  9 14 45 29.0800000  0  4G13G12G 3G 9
  20641774.154    20641778.575   -49901680.053 9  33039519.261 8
  20535394.324    20535398.961   -89599083.811 9 112445060.065 8
  22376073.689    22376079.659   -82716466.533 9  88531041.823 8
  21792433.694    21792438.483   -67490233.785 9 100521134.530 8
 89 11  9 14 45 59.0800000  0  4G13G12G 3G 9
  20646192.528    20646198.719   -49878458.785 9  33057613.657 8
  20533865.569    20533871.589   -89607114.859 9 112438802.020 8
  22365585.451    22365591.292   -82771581.811 8  88488094.791 9
  21810173.628    21810178.818   -67397010.417 8 100593775.959 8
 89 11  9 14 46 29.0800000  0  4G13G12G 3G 9
  20650666.060    20650671.582   -49854954.787 9  33075928.368 8
  20532455.107    20532462.341   -89614524.160 9 112433028.438 9
  22355151.281    22355156.407   -82826419.225 9  88445364.288 9
  21827997.328    21828001.632   -67303346.121 9 100666760.970 8
 89 11  9 14 46 59.0800000  0  4G13G12G 3G 9
  20655191.092    20655197.274   -49831169.976 9  33094461.886 7
  20531164.474    20531170.327   -89621311.242 9 112427739.708 9
  22344769.876    22344774.450   -82880979.397 8  88402849.807 8
  21845903.693    21845908.811   -67209243.922 9 100740087.215 8
 89 11  9 14 47 29.0800000  0  4G13G12G 3G 9
  20659770.383    20659776.001   -49807106.367 9  33113212.647 8
  20529991.849    20529997.920   -89627475.305 9 112422936.462 8
  22334439.547    22334444.343   -82935262.486 9  88360551.236 8
  21863893.796    21863899.930   -67114706.839 9 100813752.350 8
 89 11  9 14 47 59.0800000  0  4G13G12G 3G 9
  20664402.951    20664407.858   -49782765.198 9  33132179.691 8
  20528938.734    20528943.974   -89633015.374 9 112418619.441 8
  22324162.578    22324167.044   -82989268.574 9  88318468.489 8
  21881966.277    21881971.638   -67019737.200 9 100887754.517 9
 89 11  9 14 48 29.0800000  0  4G13G12G 3G 9
  20669087.734    20669092.640   -49758148.545 9  33151361.398 8
  20528001.753    20528008.199   -89637930.789 9 112414789.173 9
  22313937.793    22313943.612   -83042998.142 9  88276601.234 8
  21900120.061    21900125.537   -66924337.899 9 100962091.466 8
 89 11  9 14 48 59.0800000  0  4G13G12G 3G 9
  20673823.593    20673830.141   -49733258.468 9  33170756.154 7
  20527185.791    20527190.907   -89642220.799 9 112411446.216 9
  22303766.261    22303771.435   -83096451.646 9  88234949.088 8
  21918355.853    21918360.741   -66828512.001 9 101036760.823 8
 89 11  9 14 49 29.0800000  0  4G13G12G 3G 9
  20678612.304    20678618.558   -49708095.873 9  33190363.265 7
  20526488.982    20526493.963   -89645884.287 9 112408591.475 8
  22293646.442    22293652.597   -83149629.050 9  88193512.065 8
  21936672.290    21936674.304   -66732262.055 9 101111760.628 8
 89 11  9 14 49 59.0800000  0  4G13G12G 3G 9
  20683451.364    20683457.637   -49682662.868 9  33210181.087 8
  20525911.556    20525917.198   -89648920.895 9 112406225.192 8
  22283579.345    22283585.122   -83202530.900 9  88152289.789 9
  21955068.001    21955071.230   -66635590.668 9 101187088.859 8
 89 11  9 14 50 29.0800000  0  4G13G12G 3G 9
  20688343.125    20688347.649   -49656960.959 9  33230208.443 8
  20525453.357    20525458.204   -89651329.988 9 112404347.910 8
  22273564.727    22273570.475   -83255157.344 9  88111282.089 8
  21973542.912    21973547.573   -66538500.999 9 101262742.993 7
 89 11  9 14 50 59.0800000  0  4G13G12G 3G 9
  20693284.894    20693290.322   -49630992.413 9  33250443.576 9
  20525113.108    20525118.979   -89653110.930 9 112402960.074 8
  22263603.040    22263609.037   -83307508.633 9  88070488.803 8
  21992096.998    21992103.218   -66440995.507 9 101338721.132 9
 89 11  9 14 51 29.0800000  0  4G13G12G 3G 9
  20698276.476    20698281.930   -49604759.118 8  33270885.001 8
  20524894.780    20524900.197   -89654263.591 9 112402061.814 9
  22253692.092    22253699.370   -83359585.460 9  88029909.389 8
  22010731.242    22010736.303   -66343077.528 9 101415020.686 9
 89 11  9 14 51 59.0800000  0  4G13G12G 3G 9
  20703319.028    20703325.101   -49578261.917 9  33291532.055 8
  20524795.691    20524799.792   -89654786.634 9 112401654.175 9
  22243834.395    22243840.823   -83411387.861 9  87989543.808 9
  22029442.671    22029447.117   -66244749.370 9 101491639.869 8
 89 11  9 14 52 29.0800000  0  4G13G12G 3G 9
  20708411.183    20708416.203   -49551503.524 8  33312382.671 9
  20524816.371    20524821.171   -89654680.310 9 112401736.927 9
  22234029.221    22234035.563   -83462916.734 9  87949391.370 8
  22048231.899    22048236.459   -66146014.768 8 101568575.761 8
 89 11  9 14 52 59.0800000  0  4G13G12G 3G 9
  20713552.364    20713557.996   -49524484.852 9  33333436.084 8
  20524956.357    20524962.084   -89653942.905 9 112402311.444 8
  22224276.369    22224282.403   -83514171.471 9  87909452.552 8
  22067096.866    22067101.984   -66046875.394 9 101645827.055 9
 89 11  9 14 53 29.0800000  0  4G13G12G 3G 9
  20718743.656    20718747.904   -49497208.259 9  33354690.450 8
  20525216.687    20525222.177   -89652574.507 9 112403377.635 9
  22214574.507    22214580.254   -83565153.098 9  87869726.523 9
  22086039.174    22086044.835   -65947334.861 9 101723390.924 9
 89 11  9 14 53 59.0800000  0  4G13G12G 3G 9
  20723982.583    20723988.588   -49469675.534 9  33376144.420 8
  20525596.304    20525603.462   -89650574.537 9 112404935.954 9
  22204924.810    22204931.566   -83615861.836 8  87830213.159 8
  22105057.864    22105061.550   -65847395.939 9 101801265.218 8
 89 11  9 14 54 29.0800000  0  4G13G12G 3G 9
  20729270.695    20729277.171   -49441888.130 9  33397796.829 8
  20526097.811    20526103.389   -89647942.854 9 112406986.522 9
  22195326.761    22195333.216   -83666298.162 9  87790912.042 9
  22124151.204    22124156.680   -65747061.709 9 101879447.572 9
 89 11  9 14 54 59.0800000  0  4G13G12G 3G 9
  20734606.854    20734612.645   -49413847.916 9  33419646.235 8
  20526720.189    20526725.429   -89644678.765 9 112409529.878 8
  22185781.206    22185787.633   -83716462.173 8  87751823.128 8
  22143317.867    22143323.185   -65646334.811 9 101957935.883 8
 89 11  9 14 55 29.0800000  0  4G13G12G 3G 9
  20739991.481    20739995.927   -49385556.876 9  33441691.092 8
  20527459.902    20527466.093   -89640781.933 8 112412566.280 9
  22176287.929    22176293.283   -83766354.626 9  87712945.810 7
  22162560.052    22162565.470   -65545218.271 9 102036727.801 8
 89 11  9 14 55 59.0800000  0  4G13G12G 3G 9
  20745422.192    20745427.609   -49357016.646 9  33463930.116 8
  20528322.534    20528328.575   -89636252.215 9 112416095.827 8
  22166845.264    22166851.405   -83815975.602 9  87674280.032 9
  22181875.342    22181880.761   -65443714.950 9 102115821.122 8
 89 11  9 14 56 29.0800000  0  4G13G12G 3G 9
  20750900.414    20750905.536   -49328228.861 9  33486362.042 9
  20529306.035    20529311.062   -89631089.371 9 112420118.745 8
  22157455.350    22157460.660   -83865326.107 9  87635825.011 8
  22201264.225    22201269.487   -65341827.999 9 102195213.380 8
 89 11  9 14 56 59.0800000  0  4G13G12G 3G 9
  20756425.047    20756430.153   -49299194.810 9  33508985.851 9
  20530409.233    20530413.962   -89625292.442 9 112424635.735 9
  22148114.666    22148120.486   -83914405.772 9  87597581.026 8
  22220725.127    22220731.561   -65239560.030 9 102274902.526 9
 89 11  9 14 57 29.0800000  0  4G13G12G 3G 9
  20761995.819    20762001.809   -49269917.239 9  33531799.426 8
  20531631.570    20531638.083   -89618862.038 9 112429646.345 8
  22138826.569    22138833.297   -83963215.652 9  87559547.268 8
  22240257.102    22240264.438   -65136914.646 9 102354885.757 9
 89 11  9 14 57 59.0800000  0  4G13G12G 3G 9
  20767613.843    20767619.783   -49240396.650 9  33554802.360 8
  20532976.011    20532982.329   -89611797.311 9 112435151.247 8
  22129588.504    22129595.204   -84011755.825 9  87521723.677 8
  22259862.770    22259868.775   -65033894.273 9 102435161.154 9
 89 11  9 14 58 29.0800000  0  4G13G12G 3G 9
  20773277.518    20773283.222   -49210635.476 9  33577992.781 8
  20534442.054    20534447.535   -89604098.004 9 112441150.610 8
  22120404.228    22120410.383   -84060026.748 9  87484109.896 8
  22279537.608    22279543.741   -64930501.940 9 102515726.434 9
 89 11  9 14 58 59.0800000  0  4G13G12G 3G 9
  20778986.402    20778992.964   -49180635.225 9  33601369.490 8
  20536027.579    20536033.461   -89595764.275 9 112447644.319 8
  22111270.291    22111275.910   -84108029.138 9  87446705.361 9
  22299282.962    22299288.194   -64826740.732 8 102596579.165 9
 89 11  9 14 59 29.0800000  0  4G13G12G 3G 9
  20784739.126    20784745.745   -49150397.693 9  33624931.096 8
  20537734.089    20537740.181   -89586796.224 9 112454632.295 8
  22102187.058    22102192.726   -84155763.305 9  87409509.817 8
  22319097.700    22319104.164   -64722613.767 9 102677716.863 8
 89 11  9 14 59 59.0800000  0  4G13G12G 3G 9
  20790538.534    20790545.029   -49119924.453 9  33648676.358 8
  20539562.233    20539567.449   -89577193.284 9 112462115.024 8
  22093155.202    22093160.335   -84203229.397 9  87372523.168 7
  22338981.338    22338988.560   -64618123.804 9 102759137.417 9
 89 11  9 15  0 29.0800000  0  4G13G12G 3G 9
  20796382.790    20796387.601   -49089216.746 9  33672604.337 8
  20541510.347    20541515.276   -89566955.455 9 112470092.443 9
  22084173.988    22084178.848   -84250428.107 9  87335744.878 8
  22358934.447    22358940.381   -64513273.903 9 102840838.419 9
 89 11  9 15  0 59.0800000  0  4G13G12G 3G 9
  20802270.336    20802275.542   -49058277.191 9  33696712.982 8
  20543579.480    20543585.443   -89556082.648 9 112478564.677 7
  22075243.298    22075248.380   -84297360.021 9  87299174.467 8
  22378954.366    22378961.573   -64408067.132 9 102922817.509 8
 89 11  9 15  1 29.0800000  0  4G13G12G 3G 9
  20808202.110    20808207.286   -49027107.035 9  33721001.309 8
  20545769.118    20545774.402   -89544574.551 9 112487531.937 8
  22066361.761    22066367.165   -84344025.197 9  87262811.911 9
  22399042.769    22399047.901   -64302506.427 9 103005072.410 9
 89 11  9 15  1 59.0800000  0  4G13G12G 3G 9
  20814177.647    20814182.610   -48995707.463 9  33745468.405 8
  20548079.426    20548085.832   -89532430.466 9 112496994.765 8
  22057531.945    22057538.000   -84390423.564 9  87226657.259 9
  22419197.609    22419203.770   -64196594.137 9 103087601.266 9
 89 11  9 15  2 29.0800000  0  4G13G12G 3G 9
  20820195.800    20820201.839   -48964080.305 9  33770112.830 8
  20550511.349    20550518.075   -89519650.177 9 112506953.334 9
  22048754.163    22048759.746   -84436555.986 9  87190709.841 9
  22439418.157    22439424.232   -64090333.150 9 103170401.834 8
 89 11  9 15  2 59.0800000  0  4G13G12G 3G 9
  20826258.181    20826264.262   -48932222.352 9  33794937.104 8
  20553065.264    20553071.956   -89506229.875 9 112517410.612 8
  22040026.206    22040032.641   -84482418.170 9  87154973.003 9
  22459705.055    22459710.460   -63983722.399 9 103253474.934 8
 89 11  9 15  3 29.0800000  0  4G13G12G 3G 9
  20832363.921    20832370.017   -48900140.455 9  33819935.873 7
  20555740.298    20555746.318   -89492174.770 9 112528362.552 8
  22031350.236    22031356.018   -84528015.795 8  87119442.305 8
  22480057.749    22480064.255   -63876769.950 9 103336814.289 8
 89 11  9 15  3 59.0800000  0  4G13G12G 3G 9
  20838511.543    20838516.674   -48867836.292 9  33845107.838 9
  20558535.823    20558542.042   -89477485.034 9 112539809.006 8
  22022722.780    22022728.155   -84573349.503 9  87084117.273 8
  22500474.704    22500480.695   -63769478.988 9 103420417.422 9
 89 11  9 15  4 29.0800000  0  4G13G12G 3G 9
  20844700.165    20844706.098   -48835311.215 9  33870451.938 9
  20561452.912    20561458.403   -89462159.981 9 112551750.524 9
  22014146.851    22014152.541   -84618419.366 9  87048997.830 8
  22520955.079    22520962.643   -63661851.916 9 103504282.473 8
 89 11  9 15  4 59.0800000  0  4G13G12G 3G 9
  20850931.152    20850936.767   -48802567.458 9  33895966.443 8
  20564489.540    20564496.087   -89446200.680 9 112564186.245 9
  22005620.361    22005626.314   -84663226.611 9  87014083.014 8
  22541499.529    22541506.150   -63553892.827 9 103588406.223 8
 89 11  9 15  5 29.0800000  0  4G13G12G 3G 9
  20857203.879    20857208.467   -48769606.858 9  33921649.910 8
  20567647.531    20567653.476   -89429606.888 9 112577116.377 9
  21997143.780    21997149.606   -84707771.265 8  86979372.822 8
  22562106.268    22562112.044   -63445604.219 9 103672786.739 8
 89 11  9 15  5 59.0800000  0  4G13G12G 3G 9
  20863517.258    20863523.056   -48736431.600 9  33947500.633 8
  20570925.909    20570930.982   -89412379.512 9 112590540.203 8
  21988717.010    21988722.593   -84752055.089 9  86944865.876 8
  22582774.665    22582780.698   -63336990.015 9 103757420.976 8
 89 11  9 15  6 29.0800000  0  4G13G12G 3G 9
  20869870.354    20869877.181   -48703042.712 9  33973517.826 7
  20574325.007    20574331.062   -89394518.644 9 112604457.665 9
  21980339.135    21980346.072   -84796077.617 9  86910562.531 8
  22603505.930    22603511.666   -63228052.838 9 103842306.860 9
 89 11  9 15  6 59.0800000  0  4G13G12G 3G 9
  20876264.701    20876271.586   -48669441.953 9  33999700.109 7
  20577845.410    20577850.765   -89376024.424 9 112618868.644 8
  21972011.729    21972018.241   -84839839.543 9  86876462.262 8
  22624296.634    22624303.262   -63118795.861 9 103927441.949 8
 89 11  9 15  7 29.0800000  0  4G13G12G 3G 9
  20882697.886    20882705.399   -48635630.937 9  34026046.229 8
  20581484.493    20581490.343   -89356897.398 9 112633772.710 9
  21963734.541    21963739.737   -84883341.477 9  86842564.579 9
  22645147.703    22645154.430   -63009222.122 9 104012823.835 9
 89 11  9 15  7 59.0800000  0  4G13G12G 3G 9
  20889171.463    20889179.164   -48601611.302 9  34052554.928 8
  20585244.638    20585250.894   -89337137.488 9 112649169.945 8
  21955505.417    21955510.405   -84926584.043 9  86808868.994 8
  22666058.265    22666066.351   -62899334.792 9 104098450.081 8
 89 11  9 15  8 29.0800000  0  4G13G12G 3G 9
  20895685.309    20895692.536   -48567384.315 9  34079225.174 8
  20589124.859    20589130.991   -89316745.193 9 112665059.956 8
  21947325.802    21947331.535   -84969567.192 9  86775375.550 9
  22687028.503    22687035.606   -62789136.721 9 104184318.463 8
 89 11  9 15  8 59.0800000  0  4G13G12G 3G 9
  20902237.372    20902244.801   -48532951.841 9  34106055.562 9
  20593125.634    20593132.627   -89295720.704 9 112681442.572 9
  21939195.928    21939202.175   -85012292.122 9  86742083.314 8
  22708058.097    22708064.513   -62678631.061 9 104270426.535 8
 89 11  9 15  9 29.0800000  0  4G13G12G 3G 9
  20908828.601    20908836.760   -48498315.310 9  34133044.947 8
  20597247.535    20597253.426   -89274064.499 9 112698317.446 9
  21931114.267    21931119.899   -85054759.286 9  86708991.951 8
  22729144.151    22729151.886   -62567821.273 9 104356771.594 8
 89 11  9 15  9 59.0800000  0  4G13G12G 3G 9
  20915458.093    20915465.978   -48463477.078 9  34160191.513 9
  20601487.866    20601494.816   -89251777.181 9 112715684.086 8
  21923082.066    21923087.871   -85096969.219 9  86676101.018 8
  22750288.454    22750295.223   -62456710.226 9 104443351.406 9
 89 11  9 15 10 29.0800000  0  4G13G12G 3G 9
  20922125.975    20922133.546   -48428438.043 9  34187494.539 8
  20605849.167    20605856.118   -89228859.269 9 112733542.087 8
  21915098.753    21915105.916   -85138922.352 9  86643410.197 8
  22771488.329    22771495.808   -62345301.272 8 104530163.329 9
 89 11  9 15 10 59.0800000  0  4G13G12G 3G 9
  20928831.634    20928840.035   -48393200.016 9  34214952.636 9
  20610330.054    20610336.804   -89205311.779 9 112751890.681 9
  21907165.336    21907171.455   -85180619.986 9  86610918.449 8
  22792745.374    22792753.218   -62233597.785 9 104617204.746 9
 89 11  9 15 11 29.0800000  0  4G13G12G 3G 9
  20935574.955    20935582.584   -48357764.648 9  34242564.486 8
  20614931.434    20614938.535   -89181134.750 9 112770729.826 9
  21899277.957    21899285.123   -85222061.932 9  86578625.940 8
  22814057.542    22814064.778   -62121602.416 9 104704473.606 9
 89 11  9 15 11 59.0800000  0  4G13G12G 3G 9
  20942355.795    20942362.766   -48322133.623 9  34270328.812 7
  20619651.685    20619658.554   -89156328.847 9 112790058.986 9
  21891440.019    21891447.777   -85263249.130 9  86546531.940 9
  22835424.858    22835432.175   -62009318.504 9 104791967.330 8
 89 11  9 15 12 29.0800000  0  4G13G12G 3G 9
  20949173.438    20949179.578   -48286308.228 9  34298244.596 8
  20624491.814    20624497.686   -89130894.426 9 112809877.924 9
  21883651.667    21883658.259   -85304181.721 9  86514636.338 8
  22856846.830    22856853.010   -61896749.158 9 104879683.472 8
 89 11  9 15 12 59.0800000  0  4G13G12G 3G 9
  20956027.612    20956033.881   -48250290.372 9  34326310.342 7
  20629452.542    20629457.683   -89104832.314 9 112830185.969 9
  21875911.210    21875916.994   -85344860.647 9  86482938.395 8
  22878321.954    22878328.982   -61783897.534 9 104967619.582 9
 89 11  9 15 13 29.0800000  0  4G13G12G 3G 9
  20962918.762    20962924.701   -48214080.725 9  34354525.544 8
  20634530.659    20634536.197   -89078142.861 9 112850982.849 9
  21868217.908    21868225.158   -85385286.292 9  86451437.812 9
  22899848.641    22899856.929   -61670766.414 8 105055773.454 9
 89 11  9 15 13 59.0800000  0  4G13G12G 3G 9
  20969844.552    20969851.295   -48177681.585 9  34382888.407 8
  20639728.672    20639735.132   -89050827.010 9 112872267.819 8
  21860572.699    21860579.863   -85425459.336 9  86420134.057 9
  22921429.375    22921437.783   -61557359.287 9 105144142.378 9
 89 11  9 15 14 29.0800000  0  4G13G12G 3G 9
  20976807.635    20976813.718   -48141095.338 9  34411397.059 8
  20645044.862    20645052.430   -89022885.955 9 112894039.943 9
  21852975.269    21852982.527   -85465381.333 9  86389025.935 8
  22943062.357    22943070.588   -61443680.073 9 105232723.328 8
 89 11  9 15 14 59.0800000  0  4G13G12G 3G 9
  20983803.827    20983811.913   -48104322.468 9  34440051.123 8
  20650480.972    20650487.302   -88994320.290 8 112916298.807 8
  21845428.085    21845433.934   -85505052.039 9  86358113.624 9
  22964746.435    22964754.854   -61329731.143 9 105321514.462 8
 89 11  9 15 15 29.0800000  0  4G13G12G 3G 9
  20990837.339    20990844.224   -48067365.138 9  34468848.930 8
  20656035.230    20656043.154   -88965130.777 9 112939043.761 9
  21837926.535    21837932.110   -85544472.596 9  86327396.233 8
  22986480.854    22986489.598   -61215516.023 9 105410513.013 9
 89 11  9 15 15 59.0800000  0  4G13G12G 3G 9
  20997903.905    20997912.363   -48030225.346 9  34497788.915 8
  20661709.064    20661715.994   -88935318.766 9 112962273.799 8
  21830472.181    21830479.245   -85583643.608 9  86296873.299 9
  23008266.587    23008274.717   -61101038.427 9 105499716.068 9
 89 11  9 15 16 29.0800000  0  4G13G12G 3G 9
  21005006.285    21005013.099   -47992903.959 9  34526870.395 9
  20667499.854    20667507.838   -88904884.483 9 112985988.725 9
  21823066.159    21823072.729   -85622565.233 8  86266544.677 8
  23030099.948    23030108.576   -60986300.735 9 105589121.775 8
 89 11  9 15 16 59.0800000  0  4G13G12G 3G 9
  21012143.010    21012150.582   -47955402.301 9  34556092.345 8
  20673409.960    20673417.555   -88873828.418 9 113010188.140 9
  21815708.028    21815712.494   -85661238.280 9  86236409.762 8
  23051982.871    23051991.137   -60871306.187 9 105678727.646 8
 89 11  9 15 17 29.0800000  0  4G13G12G 3G 9
  21019312.773    21019320.086   -47917721.575 9  34585453.829 8
  20679438.315    20679445.637   -88842151.789 9 113034871.131 9
  21808395.430    21808401.305   -85699663.281 9  86206468.145 8
  23073913.865    23073921.941   -60756058.325 9 105768530.910 8
 89 11  9 15 17 59.0800000  0  4G13G12G 3G 9
  21026516.493    21026524.422   -47879863.369 8  34614953.602 8
  20685583.281    20685591.420   -88809854.912 9 113060037.421 9
  21801130.058    21801135.949   -85737840.904 9  86176719.272 8
  23095893.102    23095901.131   -60640559.592 9 105858529.650 9
 89 11  9 15 18 29.0800000  0  4G13G12G 3G 9
  21033755.054    21033761.810   -47841829.919 9  34644589.928 7
  20691847.494    20691856.084   -88776939.595 9 113085685.594 9
  21793911.743    21793918.220   -85775772.312 9  86147162.254 8
  23117918.375    23117927.761   -60524814.135 9 105948720.641 8
 89 11  9 15 18 59.0800000  0  4G13G12G 3G 9
  21041027.257    21041034.314   -47803621.822 9  34674362.336 7
  20698229.481    20698237.026   -88743406.119 9 113111815.461 9
  21786740.476    21786747.310   -85813457.258 9  86117797.291 8
  23139990.378    23139999.164   -60408824.480 9 106039101.899 9
 89 11  9 15 19 29.0800000  0  4G13G12G 3G 9
  21048330.498    21048337.010   -47765241.342 9  34704269.066 7
  20704728.062    20704735.102   -88709255.708 9 113138426.061 9
  21779616.523    21779622.256   -85850896.872 9  86088623.500 9
  23162108.630    23162117.346   -60292593.979 9 106129670.835 9
 89 11  9 15 19 59.0800000  0  4G13G12G 3G 9
  21055666.934    21055672.845   -47726689.828 9  34734309.070 8
  20711343.587    20711350.812   -88674489.616 9 113165516.433 9
  21772538.881    21772545.165   -85888091.749 9  86059640.403 9
  23184272.205    23184281.209   -60176125.903 8 106220424.886 9
 89 11  9 15 20 29.0800000  0  4G13G12G 3G 9
  21063034.666    21063041.508   -47687968.480 9  34764481.410 8
  20718076.025    20718082.928   -88639108.874 9 113193085.735 8
  21765507.279    21765512.382   -85925042.389 9  86030847.621 8
  23206480.876    23206488.930   -60059423.322 9 106311361.679 9
 89 11  9 15 20 59.0800000  0  4G13G12G 3G 9
  21070435.293    21070442.593   -47649078.946 9  34794784.795 8
  20724925.490    20724933.063   -88603114.571 9 113221133.140 8
  21758522.826    21758527.908   -85961749.836 9  86002244.346 8
  23228732.377    23228741.048   -59942489.533 9 106402478.663 8
 89 11  9 15 21 29.0800000  0  4G13G12G 3G 9
  21077867.216    21077872.898   -47610022.547 8  34825218.208 8
  20731891.965    20731899.575   -88566507.727 9 113249657.852 8
  21751583.619    21751588.421   -85998214.639 9  85973830.138 8
  23251027.472    23251036.729   -59825327.829 9 106493773.209 8
 89 11  9 15 21 59.0800000  0  4G13G12G 3G 9
  21085331.491    21085338.033   -47570801.115 9  34855780.236 8
  20738974.632    20738981.689   -88529289.501 9 113278658.943 8
  21744690.693    21744695.704   -86034437.404 8  85945604.548 8
  23273366.174    23273375.925   -59707941.206 9 106585243.015 9
 89 11  9 15 22 29.0800000  0  4G13G12G 3G 9
  21092826.489    21092833.101   -47531415.513 9  34886470.178 8
  20746173.210    20746180.693   -88491460.999 9 113308135.597 9
  21737844.168    21737849.349   -86070418.722 9  85917567.090 9
  23295746.795    23295755.576   -59590333.104 9 106676885.389 9
 89 11  9 15 22 59.0800000  0  4G13G12G 3G 9
  21100352.407    21100358.762   -47491867.517 9  34917286.642 8
  20753487.661    20753494.861   -88453023.529 9 113338086.770 9
  21731041.491    21731047.868   -86106159.376 9  85889717.145 8
  23318168.104    23318177.372   -59472506.706 9 106768697.856 9
 89 11  9 15 23 29.0800000  0  4G13G12G 3G 9
  21107908.147    21107916.420   -47452158.723 8  34948228.394 8
  20760917.728    20760925.634   -88413978.614 9 113368511.259 9
  21724286.079    21724292.999   -86141660.331 9  85862053.997 8
  23340631.107    23340640.925   -59354465.010 9 106860678.070 9
 89 11  9 15 23 59.0800000  0  4G13G12G 3G 9
  21115495.424    21115504.268   -47412290.364 9  34979294.489 8
  20768461.903    20768471.353   -88374327.271 9 113399408.286 9
  21717575.740    21717581.573   -86176921.974 9  85834577.300 8
  23363133.628    23363143.438   -59236211.582 8 106952823.267 8
 89 11  9 15 24 29.0800000  0  4G13G12G 3G 9
  21123113.095    21123120.194   -47372263.562 9  35010484.072 8
  20776123.017    20776131.947   -88334070.440 9 113430777.114 9
  21710909.615    21710917.910   -86211944.897 9  85807286.655 8
  23385675.996    23385686.071   -59117749.332 9 107045131.211 8
 89 11  9 15 24 59.0800000  0  4G13G12G 3G 9
  21130759.297    21130766.911   -47332079.587 9  35041796.103 8
  20783899.135    20783907.664   -88293209.892 9 113462616.374 9
  21704291.213    21704298.534   -86246730.096 9  85780181.225 8
  23408259.345    23408268.094   -58999081.772 9 107137599.141 8
 89 11  9 15 25 29.0800000  0  4G13G12G 3G 9
  21138435.235    21138443.535   -47291740.467 9  35073229.037 8
  20791789.896    20791798.356   -88251746.854 9 113494925.113 9
  21697717.491    21697723.732   -86281278.193 9  85753260.542 8
  23430879.685    23430887.833   -58880212.141 9 107230224.542 8
 89 11  9 15 25 59.0800000  0  4G13G12G 3G 9
  21146140.992    21146149.521   -47251247.749 9  35104781.659 8
  20799794.618    20799801.844   -88209682.657 9 113527702.305 8
  21691187.941    21691195.141   -86315589.931 9  85726524.034 9
  23453536.647    23453546.362   -58761143.390 9 107323005.062 9
 89 11  9 15 26 29.0800000  0  4G13G12G 3G 9
  21153875.295    21153883.840   -47210602.538 9  35136453.111 8
  20807912.468    20807920.620   -88167018.922 9 113560946.648 9
  21684702.250    21684710.358   -86349665.747 9  85699971.379 8
  23476231.653    23476242.552   -58641878.819 8 107415938.154 8
 89 11  9 15 26 59.0800000  0  4G13G12G 3G 9
  21161639.191    21161647.319   -47169806.331 9  35168242.194 8
  20816146.016    20816152.419   -88123757.039 9 113594657.089 9
  21678264.028    21678271.507   -86383506.490 9  85673601.894 9
  23498964.365    23498974.363   -58522421.622 9 107509021.334 9
 89 11  9 15 27 29.0800000  0  4G13G12G 3G 9
  21169431.461    21169438.160   -47128860.186 9  35200148.141 8
  20824491.696    20824498.877   -88079897.890 9 113628832.928 9
  21671869.987    21671876.055   -86417112.896 9  85647415.012 8
  23521734.125    23521742.920   -58402775.109 9 107602252.053 8
 89 11  9 15 27 59.0800000  0  4G13G12G 3G 9
  21177250.833    21177259.249   -47087765.914 9  35232169.505 8
  20832951.408    20832958.720   -88035443.170 9 113663472.838 9
  21665519.167    21665525.972   -86450485.675 9  85621410.166 9
  23544537.665    23544546.542   -58282942.372 9 107695627.878 9
 89 11  9 15 28 29.0800000  0  4G13G12G 3G 9
  21185099.469    21185107.326   -47046524.585 9  35264305.464 8
  20841523.783    20841530.623   -87990394.883 9 113698575.295 8
  21659212.425    21659219.603   -86483625.648 9  85595586.724 9
  23567375.846    23567385.118   -58162926.816 9 107789146.163 9
 89 11  9 15 28 59.0800000  0  4G13G12G 3G 9
  21192974.631    21192982.933   -47005137.773 9  35296554.799 9
  20850209.740    20850216.098   -87944754.407 9 113734139.162 8
  21652950.365    21652956.914   -86516533.645 9  85569944.045 8
  23590248.908    23590258.075   -58042731.802 9 107882804.286 9
 89 11  9 15 29 29.0800000  0  4G13G12G 3G 9
  21200878.242    21200887.732   -46963606.096 9  35328917.001 9
  20859007.017    20859014.329   -87898522.867 9 113770163.624 9
  21646732.805    21646739.991   -86549209.960 9  85544481.908 9
  23613154.943    23613162.921   -57922360.143 9 107976600.058 8
 89 11  9 15 29 59.0800000  0  4G13G12G 3G 9
  21208808.697    21208817.513   -46921931.238 9  35361390.787 8
  20867916.706    20867924.611   -87851702.413 9 113806646.961 9
  21640559.118    21640564.414   -86581655.590 9  85519199.510 9
  23636094.028    23636103.718   -57801815.280 9 108070530.768 8
 89 11  9 15 30 29.0800000  0  4G13G12G 3G 9
  21216766.166    21216775.714   -46880114.847 9  35393974.831 8
  20876937.749    20876945.518   -87804294.151 9 113843588.334 9
  21634428.594    21634434.492   -86613871.287 9  85494096.307 9
  23659065.664    23659075.247   -57681100.378 9 108164593.962 9
 89 11  9 15 30 59.0800000  0  4G13G12G 3G 9
  21224751.311    21224758.840   -46838158.330 9  35426668.088 8
  20886071.902    20886079.558   -87756299.500 9 113880986.635 8
  21628341.163    21628347.812   -86645857.579 9  85469171.842 8
  23682068.703    23682079.151   -57560218.620 9 108258787.168 9
 89 11  9 15 31 29.0800000  0  4G13G12G 3G 9
  21232762.026    21232768.839   -46796062.672 9  35459469.774 8
  20895315.597    20895323.088   -87707720.477 9 113918840.303 9
  21622297.668    21622304.689   -86677615.204 8  85444425.585 8
  23705102.950    23705113.655   -57439173.321 9 108353107.808 8
 89 11  9 15 31 59.0800000  0  4G13G12G 3G 9
  21240799.112    21240805.912   -46753829.100 9  35492378.899 8
  20904671.174    20904678.490   -87658558.770 9 113957147.995 7
  21616297.553    21616305.747   -86709144.778 9  85419857.019 8
  23728169.114    23728178.946   -57317967.605 9 108447553.457 9
 89 11  9 15 32 29.0800000  0  4G13G12G 3G 9
  21248861.599    21248869.199   -46711458.790 9  35525394.590 8
  20914137.055    20914143.791   -87608815.812 9 113995908.636 8
  21610342.158    21610349.143   -86740447.263 9  85395465.405 7
  23751263.391    23751273.707   -57196604.684 9 108542121.597 9
 89 11  9 15 32 59.0800000  0  4G13G12G 3G 9
  21256949.983    21256958.299   -46668953.003 9  35558515.844 8
  20923713.502    20923719.284   -87558493.675 9 114035120.558 7
  21604428.963    21604435.198   -86771523.514 9  85371250.069 8
  23774387.207    23774397.178   -57075087.596 8 108636809.857 9
 89 11  9 15 33 29.0800000  0  4G13G12G 3G 9
  21265064.884    21265072.440   -46626313.317 9  35591741.439 8
  20933399.504    20933406.383   -87507593.959 9 114074782.555 9
  21598556.713    21598563.270   -86802374.099 9  85347210.579 8
  23797539.711    23797551.042   -56953419.983 9 108731615.394 8
 89 11  9 15 33 59.0800000  0  4G13G12G 3G 9
  21273203.895    21273211.824   -46583541.419 9  35625070.044 9
  20943193.920    20943202.047   -87456118.586 9 114114893.094 8
  21592729.746    21592735.508   -86832999.648 9  85323346.449 8
  23820721.261    23820732.077   -56831604.840 8 108826535.919 9
 89 11  9 15 34 29.0800000  0  4G13G12G 3G 9
  21281367.961    21281377.049   -46540637.932 9  35658501.199 8
  20953099.314    20953107.399   -87404069.456 9 114155450.731 9
  21586944.124    21586951.024   -86863401.204 9  85299656.850 8
  23843929.415    23843940.528   -56709645.386 9 108921568.875 9
 89 11  9 15 34 59.0800000  0  4G13G12G 3G 9
  21289557.727    21289565.055   -46497604.318 9  35692033.742 8
  20963112.324    20963121.088   -87351448.409 9 114196454.006 9
  21581202.153    21581209.803   -86893579.081 9  85276141.539 8
  23867164.630    23867175.937   -56587544.633 9 109016711.932 8
 89 11  9 15 35 29.0800000  0  4G13G12G 3G 9
  21297770.445    21297779.276   -46454441.248 9  35725667.148 9
  20973234.559    20973242.258   -87298257.122 9 114237901.634 8
  21575501.842    21575508.247   -86923534.227 9  85252799.778 9
  23890425.507    23890437.189   -56465306.110 9 109111962.354 8
 89 11  9 15 35 59.0800000  0  4G13G12G 3G 9
  21306008.761    21306016.820   -46411150.362 9  35759400.162 8
  20983464.780    20983473.865   -87244497.218 9 114279792.323 9
  21569842.743    21569850.722   -86953267.109 9  85229631.226 8
  23913713.741    23913725.438   -56342932.462 8 109207318.045 8
 89 11  9 15 36 29.0800000  0  4G13G12G 3G 9
  21314270.402    21314279.777   -46367733.319 9  35793231.451 8
  20993803.398    20993812.488   -87190170.744 9 114322124.517 9
  21564227.372    21564235.072   -86982778.832 9  85206634.993 8
  23937025.669    23937037.237   -56220427.383 9 109302776.142 9
 89 11  9 15 36 59.0800000  0  4G13G12G 3G 9
  21322556.554    21322565.056   -46324190.744 9  35827160.587 9
  21004249.036    21004257.622   -87135279.390 9 114364896.865 8
  21558654.426    21558661.218   -87012069.885 9  85183810.739 8
  23960362.538    23960373.887   -56097794.023 9 109398334.187 9
 89 11  9 15 37 29.0800000  0  4G13G12G 3G 9
  21330865.773    21330875.090   -46280523.863 9  35861186.583 8
  21014801.879    21014809.331   -87079825.519 9 114408107.542 8
  21553122.622    21553128.140   -87041140.983 9  85161157.847 9
  23983723.681    23983735.610   -55975035.497 9 109493989.745 9
 89 11  9 15 37 59.0800000  0  4G13G12G 3G 9
  21339198.761    21339208.650   -46236733.736 9  35895308.624 8
  21025461.070    21025468.268   -87023810.891 9 114451755.174 9
  21547632.893    21547639.905   -87069992.928 9  85138675.731 8
  24007106.067    24007118.891   -55852154.884 9 109589740.441 9
 89 11  9 15 38 29.0800000  0  4G13G12G 3G 9
  21347555.972    21347563.844   -46192821.908 9  35929525.476 8
  21036226.891    21036234.575   -86967237.560 9 114495838.152 8
  21542183.845    21542189.742   -87098626.363 9  85116363.893 8
  24030512.840    24030524.765   -55729155.330 9 109685583.829 8
 89 11  9 15 38 59.0800000  0  4G13G12G 3G 9
  21355934.877    21355943.736   -46148789.542 9  35963836.253 8
  21047098.960    21047105.489   -86910107.759 9 114540354.758 8
  21536775.927    21536784.079   -87127042.134 8  85094221.663 8
  24053940.966    24053952.566   -55606040.316 9 109781517.181 8
 89 11  9 15 39 29.0800000  0  4G13G12G 3G 9
  21364336.332    21364345.264   -46104638.063 9  35998239.854 9
  21058075.250    21058083.121   -86852423.309 9 114585303.551 8
  21531410.574    21531417.045   -87155240.942 9  85072248.497 8
  24077391.735    24077403.632   -55482812.927 9 109877538.125 8
 89 11  9 15 39 59.0800000  0  4G13G12G 3G 9
  21372761.256    21372769.371   -46060367.826 9  36032735.982 7
  21069157.297    21069165.439   -86794185.955 9 114630683.172 8
  21526086.675    21526091.774   -87183223.432 9  85050443.876 7
  24100861.679    24100873.418   -55359476.009 9 109973644.403 8
 89 11  9 15 40 29.0800000  0  4G13G12G 3G 9
  21381208.816    21381215.714   -46015979.929 9  36067323.798 8
  21080344.233    21080352.286   -86735397.934 9 114676491.881 9
  21520802.404    21520808.898   -87210990.664 9  85028807.004 8
  24124352.136    24124364.397   -55236033.338 9 110069833.098 8
 89 11  9 15 40 59.0800000  0  4G13G12G 3G 9
  21389677.425    21389684.553   -45971476.233 9  36102001.842 8
  21091634.728    21091643.733   -86676061.717 9 114722727.756 8
  21515559.415    21515564.894   -87238543.235 9  85007337.397 8
  24147861.698    24147875.219   -55112487.791 9 110166101.942 9
 89 11  9 15 41 29.0800000  0  4G13G12G 3G 9
  21398168.299    21398177.716   -45926857.259 9  36136769.702 7
  21103030.253    21103038.578   -86616179.093 9 114769389.392 8
  21510356.242    21510363.148   -87265881.568 9  84986034.730 8
  24171391.215    24171403.548   -54988842.352 9 110262448.607 8
 89 11  9 15 41 59.0800000  0  4G13G12G 3G 9
  21406681.668    21406688.481   -45882124.714 9  36171626.078 9
  21114529.270    21114537.888   -86555752.493 9 114816474.927 9
  21505193.421    21505201.500   -87293006.596 9  84964898.270 8
  24194938.649    24194951.999   -54865100.238 7 110358870.559 9
 89 11  9 15 42 29.0800000  0  4G13G12G 3G 9
  21415215.398    21415222.510   -45837279.675 9  36206570.106 8
  21126131.971    21126140.709   -86494784.241 9 114863982.517 9
  21500071.706    21500080.878   -87319919.335 9  84943927.229 8
  24218503.338    24218517.543   -54741264.968 8 110455365.083 9
 89 11  9 15 42 59.0800000  0  4G13G12G 3G 9
  21423769.934    21423778.034   -45792322.939 9  36241601.189 7
  21137836.567    21137844.039   -86433276.525 9 114911910.479 9
  21494990.837    21494998.867   -87346620.148 9  84923121.330 7
  24242085.342    24242100.640   -54617339.262 8 110551930.088 9
 89 11  9 15 43 29.0800000  0  4G13G12G 3G 9
  21432345.918    21432354.535   -45747255.767 9  36276718.301 9
  21149643.595    21149651.361   -86371231.469 9 114960257.134 9
  21489950.112    21489957.653   -87373110.225 9  84902479.641 8
  24265685.088    24265699.514   -54493326.867 8 110648562.644 9
 89 11  9 15 43 59.0800000  0  4G13G12G 3G 9
  21440942.180    21440952.413   -45702079.400 9  36311920.497 8
  21161552.691    21161560.206   -86308651.181 9 115009020.856 9
  21484950.624    21484957.107   -87399390.244 9  84882001.647 7
  24289300.235    24289314.378   -54369230.851 9 110745260.376 8
 89 11  9 15 44 29.0800000  0  4G13G12G 3G 9
  21449558.374    21449568.664   -45656794.817 9  36347207.038 8
  21173562.588    21173570.268   -86245537.970 9 115058199.839 9
  21479989.573    21479996.389   -87425460.909 9  84861686.772 8
  24312931.332    24312945.726   -54245054.460 9 110842020.740 8
 89 11  9 15 44 59.0800000  0  4G13G12G 3G 9
  21458196.375    21458207.065   -45611403.155 9  36382577.009 8
  21185673.387    21185682.177   -86181894.124 9 115107792.284 9
  21475067.307    21475075.494   -87451322.832 9  84841534.550 8
  24336576.919    24336590.360   -54120800.564 9 110938841.498 8
 89 11  9 15 45 29.0800000  0  4G13G12G 3G 9
  21466855.683    21466865.243   -45565905.189 9  36418029.802 8
  21197885.409    21197894.248   -86117721.736 9 115157796.587 8
  21470186.996    21470194.989   -87476976.654 9  84821544.489 9
  24360235.651    24360249.562   -53996472.236 9 111035720.262 9
 89 11  9 15 45 59.0800000  0  4G13G12G 3G 9
  21475533.550    21475542.909   -45520301.928 9  36453564.667 8
  21210197.037    21210205.898   -86053023.446 9 115208210.686 8
  21465344.588    21465351.442   -87502423.107 9  84801715.993 8
  24383908.259    24383921.798   -53872072.869 9 111132654.357 8
 89 11  9 15 46 29.0800000  0  4G13G12G 3G 9
  21484231.549    21484241.152   -45474594.248 9  36489180.895 7
  21222608.356    21222618.198   -85987801.378 9 115259032.932 9
  21460541.612    21460548.114   -87527662.766 9  84782048.648 9
  24407594.254    24407608.737   -53747605.124 8 111229641.721 8
 89 11  9 15 46 59.0800000  0  4G13G12G 3G 9
  21492949.754    21492958.398   -45428783.176 9  36524877.669 7
  21235119.562    21235128.073   -85922058.095 9 115310261.321 9
  21455778.113    21455784.662   -87552696.693 9  84762541.613 9
  24431292.957    24431305.854   -53623072.447 7 111326679.653 9
 89 11  9 15 47 29.0800000  0  4G13G12G 3G 9
  21501687.189    21501696.049   -45382870.088 9  36560653.952 8
  21247727.512    21247737.167   -85855795.872 9 115361894.064 9
  21451053.583    21451060.693   -87577525.340 9  84743194.539 8
  24455002.310    24455016.544   -53498477.893 8 111423765.799 9
 89 11  9 15 47 59.0800000  0  4G13G12G 3G 9
  21510443.813    21510451.642   -45336856.106 9  36596508.851 8
  21260436.149    21260445.403   -85789016.858 9 115413929.495 9
  21446367.215    21446373.903   -87602149.709 9  84724006.633 8
  24478723.806    24478738.111   -53373824.914 8 111520897.479 9
 89 11  9 15 48 29.0800000  0  4G13G12G 3G 9
  21519218.596    21519227.098   -45290742.251 9  36632441.568 8
  21273241.615    21273250.269   -85721723.815 9 115466365.476 9
  21441720.529    21441727.329   -87626570.462 9  84704977.397 8
  24502455.909    24502468.958   -53249116.365 9 111618072.459 9
 89 11  9 15 48 59.0800000  0  4G13G12G 3G 9
  21528012.382    21528021.184   -45244528.919 9  36668451.791 8
  21286144.614    21286154.268   -85653919.054 9 115519200.205 9
  21437111.724    21437118.927   -87650788.020 9  84686106.486 8
  24526197.864    24526211.260   -53124355.431 9 111715288.251 9
 89 11  9 15 49 29.0800000  0  4G13G12G 3G 9
  21536825.083    21536833.871   -45198217.093 9  36704538.759 8
  21299144.572    21299153.689   -85585605.200 9 115572431.626 9
  21432541.175    21432548.871   -87674803.344 9  84667393.169 8
  24549947.447    24549962.598   -52999545.169 9 111812542.485 9
 89 11  9 15 49 59.0800000  0  4G13G12G 3G 9
  21545656.588    21545665.933   -45151807.923 9  36740701.589 7
  21312240.572    21312250.406   -85516784.615 9 115626057.894 8
  21428010.294    21428017.497   -87698617.100 9  84648836.927 8
  24573709.165    24573722.707   -52874688.639 9 111909832.750 9
 89 11  9 15 50 29.0800000  0  4G13G12G 3G 9
  21554505.864    21554516.026   -45105302.267 9  36776939.610 8
  21325433.181    21325441.892   -85447459.625 9 115680077.229 8
  21423517.333    21423524.342   -87722229.914 9  84630437.242 8
  24597476.408    24597491.474   -52749788.837 9 112007156.746 9
 89 11  9 15 50 59.0800000  0  4G13G12G 3G 9
  21563373.842    21563383.718   -45058701.578 9  36813251.667 7
  21338721.333    21338730.136   -85377632.974 9 115734487.459 9
  21419061.253    21419069.421   -87745642.573 9  84612193.519 8
  24621252.053    24621266.634   -52624848.950 9 112104511.959 9
 89 11  9 15 51 29.0800000  0  4G13G12G 3G 9
  21572260.195    21572268.211   -45012006.317 8  36849637.415 8
  21352104.312    21352112.637   -85307306.734 9 115789286.981 8
  21414643.740    21414651.218   -87768855.805 9  84594105.197 9
  24645033.899    24645049.322   -52499872.256 8 112201895.841 8
 89 11  9 15 51 59.0800000  0  4G13G12G 3G 9
  21581164.404    21581173.105   -44965217.846 9  36886095.789 8
  21365581.001    21365590.026   -85236483.833 9 115844473.492 8
  21410265.606    21410271.508   -87791870.336 9  84576171.710 9
  24668823.135    24668838.691   -52374861.651 9 112299306.124 8
 89 11  9 15 52 29.0800000  0  4G13G12G 3G 9
  21590086.700    21590094.972   -44918336.662 9  36922626.395 8
  21379152.640    21379161.379   -85165166.885 9 115900044.976 9
  21405922.538    21405930.313   -87814686.643 9  84558392.682 8
  24692617.035    24692633.336   -52249820.306 7 112396740.370 7
 89 11  9 15 52 59.0800000  0  4G13G12G 3G 9
  21599025.052    21599033.496   -44871363.413 9  36959228.764 9
  21392817.094    21392825.820   -85093358.455 9 115955999.433 9
  21401618.460    21401626.333   -87837305.715 9  84540767.336 8
  24716418.095    24716434.144   -52124751.185 7 112494196.262 8
 89 11  9 15 53 29.0800000  0  4G13G12G 3G 9
  21607980.116    21607989.820   -44824299.220 9  36995901.989 9
  21406574.495    21406584.057   -85021061.192 9 116012334.809 7
  21397351.184    21397358.920   -87859728.557 9  84523294.903 8
  24740223.384    24740238.540   -51999657.602 9 112591671.204 7
 89 11  9 15 53 59.0800000  0  4G13G12G 3G 9
  21616954.813    21616964.459   -44777145.038 9  37032645.332 7
  21420424.683    21420433.530   -84948277.518 9 116069049.189 8
  21393122.488    21393129.069   -87881955.227 9  84505975.333 8
  24764031.931    24764049.068   -51874542.514 8 112689162.891 8
 89 11  9 15 54 29.0800000  0  4G13G12G 3G 9
  21625943.819    21625953.665   -44729901.806 9  37069458.078 9
  21434366.665    21434377.236   -84875010.246 9 116126140.383 9
  21388930.037    21388937.361   -87903986.804 9  84488807.773 8
  24787844.945    24787860.890   -51749409.128 8 112786668.849 9
 89 11  9 15 54 59.0800000  0  4G13G12G 3G 9
  21634950.568    21634960.299   -44682570.230 9  37106339.649 8
  21448400.419    21448410.109   -84801262.082 9 116183606.304 9
  21384774.518    21384781.665   -87925823.851 9  84471791.811 8
  24811660.639    24811676.299   -51624260.118 9 112884186.952 8
 89 11  9 15 55 29.0800000  0  4G13G12G 3G 9
  21643973.845    21643985.336   -44635151.454 9  37143289.174 9
  21462525.672    21462535.993   -84727035.829 9 116241444.773 9
  21380657.155    21380663.100   -87947467.144 9  84454926.826 8
  24835478.239    24835493.335   -51499099.010 9 112981714.500 8
 89 11  9 15 55 59.0800000  0  4G13G12G 3G 9
  21653013.862    21653024.167   -44587646.470 9  37180305.882 9
  21476742.054    21476751.072   -84652334.268 9 116299653.615 9
  21376575.476    21376581.038   -87968917.305 9  84438212.328 8
  24859297.088    24859314.332   -51373928.576 9 113079249.315 9
 89 11  9 15 56 29.0800000  0  4G13G12G 3G 9
  21662070.965    21662081.913   -44540055.676 9  37217389.464 8
  21491047.346    21491056.100   -84577160.030 9 116358230.758 8
  21372529.584    21372537.089   -87990175.200 9  84421647.679 9
  24883118.812    24883135.099   -51248751.898 8 113176788.968 8
 89 11  9 15 56 59.0800000  0  4G13G12G 3G 9
  21671143.523    21671153.599   -44492379.828 9  37254539.313 7
  21505442.285    21505451.697   -84501515.588 9 116417174.296 8
  21368521.025    21368528.018   -88011241.131 9  84405232.590 8
  24906939.998    24906957.181   -51123572.157 9 113274331.012 9
 89 11  9 15 57 29.0800000  0  4G13G12G 3G 9
  21680232.749    21680242.224   -44444620.044 9  37291754.564 8
  21519925.605    21519934.939   -84425404.064 9 116476481.793 9
  21364547.995    21364555.237   -88032116.300 8  84388966.158 8
  24930760.778    24930777.645   -50998392.287 8 113371873.156 9
 89 11  9 15 57 59.0800000  0  4G13G12G 3G 9
  21689337.016    21689346.190   -44396776.832 9  37329034.844 8
  21534498.200    21534506.332   -84348827.887 9 116536151.352 8
  21360611.503    21360620.381   -88052800.874 9  84372848.257 8
  24954582.814    24954599.172   -50873215.315 8 113469413.020 9
 89 11  9 15 58 29.0800000  0  4G13G12G 3G 9
  21698456.365    21698466.955   -44348851.342 9  37366379.201 9
  21549157.938    21549167.493   -84271789.600 9 116596181.018 9
  21356711.930    21356719.197   -88073295.848 9  84356878.083 8
  24978402.693    24978418.546   -50748044.257 8 113566948.273 9
 89 11  9 15 58 59.0800000  0  4G13G12G 3G 9
  21707591.596    21707603.517   -44300844.355 9  37403787.071 8
  21563905.599    21563915.405   -84194292.140 9 116656568.463 9
  21352847.145    21352856.059   -88093601.717 8  84341055.270 8
  25002220.823    25002236.890   -50622882.034 8 113664476.636 8
 89 11  9 15 59 29.0800000  0  4G13G12G 3G 9
  21716742.954    21716753.845   -44252756.163 8  37441258.213 9
  21578740.489    21578749.450   -84116338.202 9 116717311.603 9
  21349018.370    21349027.705   -88113719.194 8  84325379.258 9
  25026035.380    25026053.605   -50497731.607 8 113761995.811 8
 89 11  9 15 59 59.0800000  0  4G13G12G 3G 9
  21725908.192    21725919.941   -44204586.852 9  37478792.567 9
  21593661.240    21593670.108   -84037930.551 9 116778408.289 9
  21345225.979    21345234.413   -88133648.648 9  84309849.752 8
  25049849.170    25049866.619   -50372595.702 8 113859503.697 7
 89 11  9 16  0 29.0800000  0  4G13G12G 3G 9
  21735090.815    21735101.234   -44156338.310 9  37516388.672 8
  21608666.553    21608675.878   -83959072.064 9 116839856.274 9
  21341470.017    21341479.402   -88153390.518 8  84294466.417 9
  25073657.662    25073676.710   -50247477.387 8 113956997.853 8
 89 11  9 16  0 59.0800000  0  4G13G12G 3G 9
  21744288.120    21744297.551   -44108010.945 9  37554046.201 8
  21623758.192    21623766.481   -83879765.611 9 116901653.334 8
  21337748.968    21337757.946   -88172946.312 9  84279228.068 8
  25097464.426    25097481.693   -50122379.951 9 114054475.779 8
 89 11  9 16  1 29.0800000  0  4G13G12G 3G 9
  21753499.133    21753509.923   -44059605.431 9  37591764.615 7
  21638934.642    21638943.038   -83800014.081 9 116963797.191 9
  21334063.517    21334072.344   -88192316.460 9  84264134.373 8
  25121265.712    25121284.669   -49997306.571 9 114151934.921 7
 89 11  9 16  1 59.0800000  0  4G13G12G 3G 9
  21762725.785    21762734.458   -44011122.720 9  37629543.191 9
  21654194.823    21654204.620   -83719820.442 9 117026285.539 8
  21330412.812    21330420.802   -88211501.403 9  84249184.974 8
  25145062.420    25145080.655   -49872260.161 8 114249373.084 8
 89 11  9 16  2 29.0800000  0  4G13G12G 3G 9
  21771965.917    21771974.648   -43962563.428 9  37667381.449 7
  21669539.099    21669548.495   -83639187.656 9 117089116.087 9
  21326796.736    21326805.062   -88230501.914 9  84234379.309 7
  25168852.447    25168870.801   -49747243.434 9 114346788.083 9
 89 11  9 16  2 59.0800000  0  4G13G12G 3G 9
  21781221.146    21781230.693   -43913928.485 9  37705278.649 8
  21684965.387    21684974.491   -83558118.730 9 117152286.495 9
  21323216.512    21323224.515   -88249318.611 9  84219716.860 8
  25192636.067    25192654.094   -49622259.635 9 114444177.439 8
 89 11  9 16  3 29.0800000  0  4G13G12G 3G 9
  21790490.168    21790500.130   -43865218.122 9  37743234.608 8
  21700475.434    21700484.566   -83476616.434 9 117215794.586 9
  21319669.592    21319678.014   -88267952.209 9  84205197.065 8
  25216414.091    25216431.029   -49497311.671 9 114541538.868 9
 89 11  9 16  3 59.0800000  0  4G13G12G 3G 9
  21799773.141    21799783.875   -43816433.343 9  37781248.549 8
  21716067.652    21716076.441   -83394683.616 9 117279638.153 9
  21316159.471    21316167.043   -88286403.138 9  84190819.637 8
  25240184.071    25240202.342   -49372402.116 9 114638870.349 8
 89 11  9 16  4 29.0800000  0  4G13G12G 3G 9
  21809071.155    21809082.818   -43767574.467 9  37819320.240 8
  21731740.903    21731749.607   -83312323.469 9 117343814.704 9
  21312682.484    21312691.837   -88304672.368 9  84176583.784 8
  25263945.621    25263963.951   -49247534.368 9 114736169.272 9
 89 11  9 16  4 59.0800000  0  4G13G12G 3G 9
  21818381.774    21818394.239   -43718642.140 9  37857449.153 8
  21747494.271    21747503.604   -83229538.583 9 117408322.221 9
  21309241.173    21309249.689   -88322760.005 9  84162489.438 8
  25287699.246    25287718.447   -49122711.075 8 114833433.527 9
 89 11  9 16  5 29.0800000  0  3G13G12G 3
  21827710.206    21827718.237   -43669637.227 5  37895634.657 4
  21763327.341    21763337.391   -83146332.181 9 117473158.172 9
  21305833.683    21305841.562   -88340667.141 9  84148535.748 8
 89 11  9 16  5 59.0800000  0  2G12G 3
  21779240.412    21779250.457   -83062707.349 9 117538320.171 9
  21302460.986    21302468.135   -88358394.171 9  84134722.411 8
 89 11  9 16  6 29.0800000  0  2G12G 3
  21795232.493    21795242.673   -82978667.127 9 117603805.866 8
  21299120.731    21299128.708   -88375941.777 9  84121048.879 9
 89 11  9 16  6 59.0800000  0  2G12G 3
  21811303.541    21811313.476   -82894214.313 8 117669613.039 8
  21295816.789    21295824.104   -88393310.770 9  84107514.523 8
 89 11  9 16  7 29.0800000  0  3G13G12G 3
                  21865115.429  -124024025.144 9
  21827452.768    21827463.689   -82809351.668 9 117735739.572 9
  21292544.866    21292552.650   -88410501.176 9  84094119.325 9
 89 11  9 16  7 59.0800000  0  3G13G12G 3
  21874539.268    21874548.730  -123974667.591 9 158103124.155 8
  21843679.891    21843689.368   -82724082.572 9 117802182.825 9
  21289307.281    21289314.863   -88427514.286 9  84080862.283 8
 89 11  9 16  8 29.0800000  0  3G13G12G 3
  21883944.387    21883955.270  -123925240.916 9 158141638.254 8
  21859982.884    21859992.382   -82638410.187 9 117868940.340 8
  21286103.619    21286111.277   -88444350.610 9  84067742.989 8
 89 11  9 16  8 59.0800000  0  3G13G12G 3
  21893362.189    21893373.749  -123875745.590 9 158180205.832 9
  21876362.086    21876372.079   -82552336.930 9 117936010.215 8
  21282933.603    21282940.692   -88461010.346 9  84054761.298 8
 89 11  9 16  9 29.0800000  0  3G13G12G 3
  21902793.426    21902805.224  -123826182.656 9 158218826.088 8
  21892816.853    21892826.761   -82465866.090 9 118003389.900 8
  21279796.765    21279804.907   -88477494.024 8  84041916.782 8
 89 11  9 16  9 59.0800000  0  3G13G12G 3
  21912238.276    21912249.430  -123776552.816 9 158257498.472 9
  21909347.173    21909357.744   -82379001.072 9 118071076.705 8
  21276693.418    21276700.585   -88493802.592 9  84029208.722 8
 89 11  9 16 10 29.0800000  0  3G13G12G 3
  21921696.201    21921706.789  -123726856.600 9 158296222.573 9
  21925951.629    21925961.933   -82291745.106 9 118139068.141 9
  21273623.515    21273631.891   -88509936.706 8  84016636.609 8
 89 11  9 16 10 59.0800000  0  3G13G12G 3
  21931166.053    21931176.894  -123677093.762 9 158334998.619 9
  21942629.576    21942639.839   -82204100.956 9 118207362.064 8
  21270585.348    21270594.087   -88525896.634 9  84004200.235 8
 89 11  9 16 11 29.0800000  0  3G13G12G 3
  21940648.552    21940658.835  -123627265.155 9 158373825.896 8
  21959380.411    21959392.053   -82116071.666 9 118275956.112 9
  21267582.020    21267591.076   -88541682.780 9  83991899.253 8
 89 11  9 16 11 59.0800000  0  3G13G12G 3
  21950143.025    21950152.485  -123577371.758 9 158412703.680 8
  21976204.111    21976216.192   -82027660.277 9 118344847.901 9
  21264610.567    21264619.772   -88557295.925 9  83979733.109 9
 89 11  9 16 12 29.0800000  0  3G13G12G 3
  21959650.252    21959659.889  -123527414.079 9 158451631.539 8
  21993101.241    21993112.338   -81938870.018 9 118414034.918 8
  21261672.913    21261681.273   -88572736.793 9  83967701.186 9
 89 11  9 16 12 59.0800000  0  3G13G12G 3
  21969168.863    21969178.419  -123477392.216 9 158490609.410 8
  22010068.892    22010079.966   -81849703.962 9 118483514.733 8
  21258767.326    21258775.304   -88588005.542 9  83955803.390 8
 89 11  9 16 13 29.0800000  0  3G13G12G 3
  21978699.368    21978710.862  -123427306.696 9 158529636.863 9
  22027108.004    22027119.434   -81760165.404 9 118553284.811 9
  21255894.154    21255903.165   -88603103.027 9  83944039.040 9
 89 11  9 16 13 59.0800000  0  3G13G12G 3
  21988242.642    21988253.163  -123377158.087 9 158568713.483 8
  22044217.364    22044228.848   -81670257.784 9 118623342.460 8
  21253054.386    21253062.070   -88618029.868 9  83932407.629 8
 89 11  9 16 14 29.0800000  0  3G13G12G 3
  21997797.482    21997807.683  -123326946.973 9 158607838.824 7
  22061395.569    22061407.590   -81579983.777 9 118693685.617 8
  21250246.774    21250254.789   -88632786.539 9  83920908.847 8
 89 11  9 16 14 59.0800000  0  3G13G12G 3
  22007363.685    22007376.467  -123276673.608 9 158647012.675 8
  22078643.824    22078654.949   -81489346.484 9 118764311.859 8
  21247470.923    21247479.588   -88647373.082 9  83909542.633 8
 89 11  9 16 15 29.0800000  0  3G13G12G 3
  22016943.639    22016954.431  -123226338.186 9 158686234.895 7
  22095961.384    22095972.706   -81398349.515 9 118835218.368 8
  21244727.783    21244735.611   -88661790.729 8  83898308.024 8
 89 11  9 16 15 59.0800000  0  3G13G12G 3
  22026533.417    22026545.347  -123175941.843 9 158725504.581 9
  22113344.924    22113354.968   -81306995.693 9 118906402.936 8
  21242016.053    21242024.248   -88676039.693 9  83887204.853 9
 89 11  9 16 16 29.0800000  0  3G13G12G 3
  22036134.495    22036146.487  -123125484.549 9 158764821.764 8
  22130796.349    22130808.241   -81215288.075 9 118977863.208 9
  21239335.959    21239344.366   -88690120.423 9  83876232.772 9
 89 11  9 16 16 59.0800000  0  3G13G12G 3
  22045747.877    22045760.404  -123074966.696 9 158804186.122 8
  22148315.248    22148325.226   -81123230.100 9 119049596.446 8
  21236688.689    21236696.896   -88704033.124 8  83865391.637 9
 89 11  9 16 17 29.0800000  0  3G13G12G 3
  22055373.477    22055385.006  -123024388.263 9 158843597.726 8
  22165899.227    22165910.152   -81030824.838 9 119121600.320 8
  21234073.381    21234081.316   -88717778.707 9  83854680.720 8
 89 11  9 16 17 59.0800000  0  3G13G12G 3
  22065010.718    22065022.333  -122973750.425 9 158883055.615 9
  22183549.349    22183559.976   -80938076.089 9 119193871.842 8
  21231490.005    21231497.935   -88731357.718 9  83844099.583 8
 89 11  9 16 18 29.0800000  0  3G13G12G 3
  22074657.368    22074667.816  -122923053.769 9 158922559.328 9
  22201263.103    22201273.332   -80844986.636 9 119266408.823 8
  21228936.822    21228945.267   -88744770.524 9  83833647.969 8
 89 11  9 16 18 59.0800000  0  3G13G12G 3
  22084316.534    22084327.517  -122872298.373 9 158962108.812 8
  22219041.499    22219053.105   -80751559.855 9 119339208.692 9
  21226415.508    21226424.791   -88758017.604 9  83823325.472 8
 89 11  9 16 19 29.0800000  0  3G13G12G 3
  22093985.535    22093997.008  -122821484.538 9 159001703.820 9
  22236884.235    22236895.702   -80657799.101 9 119412268.749 9
  21223925.852    21223934.428   -88771099.772 9  83813131.485 8
 89 11  9 16 19 59.0800000  0  3G13G12G 3
  22103666.543    22103678.714  -122770612.921 9 159041343.835 8
  22254788.193    22254801.546   -80563707.690 9 119485586.456 8
  21221469.456    21221476.913   -88784017.347 9  83803065.745 9
 89 11  9 16 20 29.0800000  0  3G13G12G 3
  22113357.183    22113370.265  -122719683.407 9 159081028.988 8
  22272755.944    22272768.342   -80469288.218 9 119559159.822 8
  21219042.451    21219050.882   -88796770.674 9  83793127.995 9
 89 11  9 16 20 59.0800000  0  3G13G12G 3
  22123060.526    22123071.210  -122668696.600 9 159120758.781 8
  22290785.105    22290797.643   -80374544.286 9 119632985.978 9
  21216646.068    21216655.233   -88809360.131 9  83783317.922 8
 89 11  9 16 21 29.0800000  0  3G13G12G 3
  22132773.103    22132785.984  -122617652.930 9 159160532.863 8
  22308876.412    22308888.275   -80279479.751 9 119707061.961 8
  21214282.442    21214290.891   -88821786.589 9  83773634.873 8
 89 11  9 16 21 59.0800000  0  3G13G12G 3
  22142498.489    22142510.068  -122566552.616 9 159200351.091 8
  22327027.117    22327038.872   -80184097.761 9 119781385.316 9
  21211949.276    21211956.828   -88834050.255 8  83764078.668 9
 89 11  9 16 22 29.0800000  0  3G13G12G 3
  22152232.073    22152243.675  -122515395.771 9 159240213.362 9
  22345236.940    22345250.278   -80088401.535 9 119855953.524 9
  21209645.610    21209653.906   -88846151.473 9  83754649.045 8
 89 11  9 16 22 59.0800000  0  3G13G12G 3
  22161978.972    22161990.194  -122464183.162 9 159280119.088 9
  22363507.824    22363519.249   -79992394.256 9 119930764.134 8
  21207372.647    21207382.506   -88858090.857 9  83745345.530 9
 89 11  9 16 23 29.0800000  0  3G13G12G 3
  22171734.379    22171746.217  -122412915.199 9 159320067.935 8
  22381835.869    22381847.313   -79896079.157 9 120005814.600 8
  21205131.948    21205141.400   -88869868.840 9  83736167.784 9
 89 11  9 16 23 59.0800000  0  3G13G12G 3
  22181501.287    22181512.751  -122361591.143 9 159360060.482 8
  22400221.873    22400233.263   -79799459.144 9 120081102.663 8
  21202922.420    21202929.711   -88881485.446 9  83727115.807 8
 89 11  9 16 24 29.0800000  0  3G13G12G 3
  22191278.437    22191290.518  -122310211.588 9 159400096.268 7
  22418666.302    22418677.598   -79702537.397 9 120156625.834 9
  21200741.682    21200749.505   -88892941.117 9  83718189.239 8
 89 11  9 16 24 59.0800000  0  3G13G12G 3
  22201066.763    22201077.699  -122258777.049 9 159440174.903 8
  22437166.695    22437179.089   -79605317.726 9 120232381.143 9
  21198592.075    21198600.763   -88904236.622 9  83709387.457 9
 89 11  9 16 25 29.0800000  0  3G13G12G 3
  22210865.275    22210877.143  -122207288.153 9 159480295.898 8
  22455724.231    22455735.340   -79507803.678 8 120308365.808 8
  21196473.210    21196482.696   -88915372.428 9  83700710.116 9
 89 11  9 16 25 59.0800000  0  3G13G12G 3
  22220674.048    22220685.879  -122155745.091 9 159520459.075 8
  22474336.104    22474347.047   -79409998.336 9 120384577.483 8
  21194384.840    21194393.592   -88926348.861 8  83692156.983 9
 89 11  9 16 26 29.0800000  0  3G13G12G 3
  22230492.234    22230505.011  -122104147.865 9 159560664.469 8
  22493002.180    22493013.871   -79311904.623 9 120461013.845 8
  21192325.977    21192334.599   -88937165.956 9  83683728.007 9
 89 11  9 16 26 59.0800000  0  3G13G12G 3
  22240320.967    22240334.098  -122052496.932 9 159600911.713 8
  22511723.153    22511734.975   -79213526.358 9 120537671.928 8
  21190297.678    21190307.170   -88947824.426 8  83675422.629 8
 89 11  9 16 27 29.0800000  0  3G13G12G 3
  22250160.155    22250172.886  -122000792.091 9 159641200.952 8
  22530498.276    22530509.518   -79114866.732 9 120614549.260 9
  21188300.470    21188308.983   -88958324.726 9  83667240.492 9
 89 11  9 16 27 59.0800000  0  3G13G12G 3
  22260009.729    22260023.287  -121949033.219 8 159681532.301 9
  22549325.700    22549337.271   -79015928.785 9 120691643.467 9
  21186333.082    21186341.151   -88968666.841 9  83659181.637 9
 89 11  9 16 28 29.0800000  0  3G13G12G 3
  22269869.729    22269883.348  -121897220.930 9 159721905.266 8
  22568205.728    22568216.642   -78916716.150 9 120768951.703 9
  21184394.953    21184402.926   -88978851.021 9  83651245.823 8
 89 11  9 16 28 59.0800000  0  3G13G12G 3
  22279738.785    22279752.054  -121845355.888 9 159762319.339 8
  22587137.055    22587148.820   -78817232.363 9 120846471.251 9
  21182486.313    21182494.709   -88988878.144 9  83643432.392 8
 89 11  9 16 29 29.0800000  0  3G13G12G 3
  22289619.410    22289631.836  -121793437.452 8 159802775.016 8
  22606119.271    22606130.838   -78717480.489 9 120924199.681 9
  21180607.974    21180616.490   -88998748.217 9  83635741.331 8
 89 11  9 16 29 59.0800000  0  3G13G12G 3
  22299508.537    22299521.647  -121741466.185 9 159843271.856 8
  22625152.310    22625164.034   -78617463.642 9 121002134.580 9
  21178759.089    21178766.913   -89008461.350 8  83628172.564 8
 89 11  9 16 30 29.0800000  0  3G13G12G 3
  22309408.895    22309421.532  -121689442.101 9 159883809.855 8
  22644233.809    22644247.202   -78517185.589 9 121080273.023 9
  21176940.883    21176949.977   -89018018.363 9  83620725.431 9
 89 11  9 16 30 59.0800000  0  3G13G12G 3
  22319319.032    22319333.231  -121637366.295 9 159924388.166 8
  22663365.487    22663378.934   -78416649.687 9 121158612.365 9
  21175151.026    21175160.117   -89027419.699 9  83613399.598 8
 89 11  9 16 31 29.0800000  0  3G13G12G 3
  22329238.351    22329252.374  -121585238.125 9 159965007.300 7
  22682544.966    22682558.697   -78315859.236 9 121237150.057 9
  21173391.356    21173401.613   -89036665.517 9  83606194.961 9
 89 11  9 16 31 59.0800000  0  3G13G12G 3
  22339168.928    22339182.318  -121533057.468 9 160005667.319 9
  22701773.697    22701786.064   -78214817.482 9 121315883.558 8
  21171662.251    21171672.261   -89045755.903 9  83599111.453 9
 89 11  9 16 32 29.0800000  0  3G13G12G 3
  22349108.773    22349121.728  -121480825.353 9 160046367.447 7
  22721048.150    22721061.004   -78113527.930 8 121394810.167 8
  21169962.078    21169971.607   -89054691.355 9  83592148.670 9
 89 11  9 16 32 59.0800000  0  3G13G12G 3
  22359057.045    22359071.317  -121428541.607 9 160087107.796 9
  22740369.493    22740382.514   -78011994.177 9 121473927.056 9
  21168291.692    21168301.688   -89063472.250 9  83585306.322 9
 89 11  9 16 33 29.0800000  0  3G13G12G 3
  22369018.253    22369031.150  -121376205.863 9 160127888.687 8
  22759735.938    22759750.704   -77910219.751 9 121553231.488 8
  21166650.994    21166659.825   -89072099.037 9  83578584.062 9
 89 11  9 16 33 59.0800000  0  3G13G12G 3
  22378986.214    22379000.385  -121323818.353 8 160168709.901 8
  22779148.723    22779162.460   -77808207.981 8 121632720.865 9
  21165038.698    21165047.443   -89080571.617 9  83571981.970 9
 89 11  9 16 34 29.0800000  0  3G13G12G 3
  22388965.066    22388979.035  -121271379.426 9 160209571.195 7
  22798606.211    22798618.660   -77705962.021 9 121712392.696 8
  21163456.393    21163465.238   -89088890.587 9  83565499.570 8
 89 11  9 16 34 59.0800000  0  3G13G12G 3
  22398953.935    22398967.562  -121218888.837 9 160250472.742 8
  22818106.520    22818121.227   -77603485.374 9 121792244.296 8
  21161902.020    21161910.299   -89097056.120 9  83559136.731 8
 89 11  9 16 35 29.0800000  0  3G13G12G 3
  22408952.961    22408966.776  -121166347.098 9 160291414.155 9
  22837651.916    22837665.633   -77500780.861 9 121872273.467 9
  21160377.239    21160386.910   -89105068.284 9  83552893.396 9
 89 11  9 16 35 59.0800000  0  3G13G12G 3
  22418961.067    22418974.042  -121113754.347 9 160332395.338 8
  22857238.397    22857252.341   -77397852.442 9 121952477.104 7
  21158881.470    21158891.237   -89112927.543 9  83546769.220 8
 89 11  9 16 36 29.0800000  0  3G13G12G 3
  22428980.354    22428992.982  -121061110.449 9 160373416.373 8
  22876868.176    22876881.261   -77294703.801 9 122032852.348 8
  21157415.001    21157424.010   -89120634.254 9  83540763.904 8
 89 11  9 16 36 59.0800000  0  3G13G12G 3
  22439007.072    22439019.594  -121008414.949 8 160414477.631 9
  22896537.812    22896551.878   -77191337.698 9 122113397.058 8
  21155977.122    21155986.422   -89128188.368 9  83534877.513 8
 89 11  9 16 37 29.0800000  0  3G13G12G 3
  22449044.284    22449057.644  -120955668.109 9 160455578.872 8
  22916248.793    22916261.854   -77087757.298 9 122194108.727 9
  21154567.512    21154577.971   -89135590.235 9  83529109.740 9
 89 11  9 16 37 59.0800000  0  3G13G12G 3
  22459090.710    22459105.722  -120902870.754 9 160496719.487 8
  22935999.017    22936013.270   -76983966.394 9 122274984.416 8
  21153188.352    21153198.926   -89142840.129 9  83523460.389 9
 89 11  9 16 38 29.0800000  0  3G13G12G 3
  22469148.311    22469161.474  -120850022.881 9 160537899.469 8
  22955789.510    22955804.096   -76879968.585 9 122356021.330 9
  21151837.301    21151847.091   -89149938.646 9  83517929.017 8
 89 11  9 16 38 59.0800000  0  3G13G12G 3
  22479214.013    22479228.326  -120797124.255 8 160579119.004 8
  22975619.248    22975633.055   -76775767.280 9 122437216.826 9
  21150515.790    21150526.015   -89156885.583 9  83512515.760 9
 89 11  9 16 39 29.0800000  0  3G13G12G 3
  22489290.696    22489304.742  -120744174.847 9 160620378.102 7
  22995485.977    22995500.792   -76671365.505 8 122518568.508 9
  21149222.405    21149232.747   -89163681.082 9  83507220.501 8
 89 11  9 16 39 59.0800000  0  3G13G12G 3
  22499376.657    22499390.191  -120691174.491 9 160661676.887 8
  23015390.883    23015405.576   -76566767.116 9 122600073.386 9
  21147958.291    21147969.034   -89170325.664 9  83502042.840 8
 89 11  9 16 40 29.0800000  0  3G13G12G 3
  22509471.830    22509486.250  -120638123.394 9 160703015.236 8
  23035330.848    23035347.287   -76461975.271 8 122681729.002 9
  21146723.122    21146732.954   -89176819.369 9  83496982.742 8
 89 11  9 16 40 59.0800000  0  3G13G12G 3
  22519576.785    22519591.013  -120585021.442 9 160744393.184 8
  23055310.556    23055324.928   -76356993.299 9 122763532.771 9
  21145516.548    21145526.635   -89183162.443 9  83492040.052 9
 89 11  9 16 41 29.0800000  0  3G13G12G 3
  22529691.180    22529706.038  -120531868.362 9 160785810.982 8
  23075324.032    23075337.894   -76251824.586 9 122845482.066 9
  21144338.759    21144347.426   -89189354.807 8  83487214.761 8
 89 11  9 16 41 59.0800000  0  3G13G12G 3
  22539815.916    22539829.149  -120478664.796 8 160827268.086 8
  23095371.880    23095385.874   -76146472.920 9 122927573.908 9
  21143189.130    21143197.082   -89195396.967 9  83482506.519 8
 89 11  9 16 42 29.0800000  0  3G13G12G 3
  22549950.084    22549963.598  -120425410.725 9 160868764.555 8
  23115453.591    23115467.884   -76040941.633 9 123009805.740 8
  21142067.294    21142076.472   -89201289.028 9  83477915.229 8
 89 11  9 16 42 59.0800000  0  3G13G12G 3
  22560092.563    22560107.504  -120372105.472 9 160910300.902 8
  23135569.893    23135583.428   -75935233.675 9 123092175.228 8
  21140975.406    21140984.746   -89207031.021 9  83473440.891 9
 89 11  9 16 43 29.0800000  0  3G13G12G 3
  22570246.595    22570261.965  -120318748.767 9 160951877.344 8
  23155717.905    23155732.826   -75829352.915 8 123174679.354 8
  21139910.190    21139919.507   -89212622.840 9  83469083.569 9
 89 11  9 16 43 59.0800000  0  3G13G12G 3
  22580409.833    22580425.982  -120265341.397 9 160993493.238 9
  23175898.027    23175913.518   -75723302.558 9 123257315.617 9
  21138874.588    21138884.606   -89218065.221 9  83464842.683 9
 89 11  9 16 44 29.0800000  0  3G13G12G 3
  22590583.961    22590597.549  -120211883.031 8 161035148.895 8
  23196111.458    23196126.392   -75617085.904 9 123340081.465 8
  21137867.673    21137877.374   -89223357.974 9  83460718.391 8
 89 11  9 16 44 59.0800000  0  3G13G12G 3
  22600765.812    22600781.359  -120158373.682 9 161076844.254 8
  23216355.122    23216370.072   -75510706.186 9 123422974.382 8
  21136889.176    21136899.284   -89228501.221 9  83456710.585 8
 89 11  9 16 45 29.0800000  0  3G13G12G 3
  22610958.963    22610974.242  -120104813.416 9 161118579.297 8
  23236629.749    23236645.342   -75404167.158 9 123505991.421 9
  21135938.651    21135949.032   -89233495.147 9  83452819.126 9
 89 11  9 16 45 59.0800000  0  3G13G12G 3
  22621160.857    22621175.843  -120051201.447 9 161160354.618 8
  23256933.063    23256949.191   -75297471.870 9 123589130.230 8
  21135016.521    21135026.680   -89238339.811 9  83449043.992 8
 89 11  9 16 46 29.0800000  0  3G13G12G 3
  22631373.220    22631388.693  -119997538.204 9 161202169.871 9
  23277265.672    23277280.925   -75190623.890 9 123672388.012 8
  21134124.251    21134133.414   -89243035.178 9  83445385.188 9
 89 11  9 16 46 59.0800000  0  3G13G12G 3
  22641594.260    22641610.326  -119943823.597 9 161244025.163 9
  23297626.556    23297643.584   -75083626.311 9 123755762.356 8
  21133258.247    21133268.395   -89247581.177 9  83441842.768 9
 89 11  9 16 47 29.0800000  0  3G13G12G 3
  22651826.117    22651841.506  -119890057.666 9 161285920.445 7
  23318015.497    23318032.821   -74976483.066 8 123839250.180 8
  21132421.830    21132430.397   -89251978.551 9  83438416.159 9
 89 11  9 16 47 59.0800000  0  3G13G12G 3
  22662067.598    22662082.610  -119836240.275 9 161327855.837 9
  23338431.367    23338448.993   -74869197.081 9 123922849.208 8
  21131613.933    21131623.133   -89256226.973 9  83435105.609 8
 89 11  9 16 48 29.0800000  0  3G13G12G 3
  22672319.416    22672333.858  -119782370.831 9 161369831.773 8
  23358875.272    23358891.938   -74761772.115 9 124006556.540 9
  21130833.430    21130843.027   -89260326.525 9  83431911.081 9
 89 11  9 16 48 59.0800000  0  3G13G12G 3
  22682580.843    22682595.230  -119728449.442 9 161411848.198 8
  23379343.486    23379359.358   -74654211.759 9 124090369.384 9
  21130080.857    21130091.494   -89264277.253 8  83428832.497 9
 89 11  9 16 49 29.0800000  0  3G13G12G 3
  22692849.399    22692865.088  -119674476.068 9 161453905.123 9
  23399837.844    23399853.052   -74546519.255 9 124174285.207 9
  21129358.238    21129368.053   -89268079.414 9  83425869.707 9
 89 11  9 16 49 59.0800000  0  3G13G12G 3
  22703131.448    22703146.295  -119620450.479 9 161496002.729 8
  23420355.805    23420372.106   -74438697.595 9 124258301.671 9
  21128663.567    21128673.679   -89271732.831 9  83423022.802 9
 89 11  9 16 50 29.0800000  0  3G13G12G 3
  22713420.996    22713437.083  -119566372.547 8 161538141.117 9
  23440897.317    23440912.375   -74330750.201 9 124342416.112 9
  21127996.157    21128007.117   -89275237.219 9  83420292.024 9
 89 11  9 16 50 59.0800000  0  3G13G12G 3
  22723722.553    22723739.098  -119512242.225 8 161580320.356 8
  23461462.473    23461479.798   -74222680.428 9 124426625.892 8
  21127357.240    21127367.431   -89278592.958 9  83417677.099 8
 89 11  9 16 51 29.0800000  0  3G13G12G 3
  22734033.728    22734049.230  -119458059.369 9 161622540.528 9
  23482050.396    23482066.903   -74114492.126 9 124510928.042 9
  21126746.381    21126757.092   -89281800.255 9  83415177.826 9
 89 11  9 16 51 59.0800000  0  3G13G12G 3
  22744355.365    22744371.043  -119403823.782 9 161664801.784 9
  23502659.637    23502676.061   -74006188.419 9 124595320.105 9
  21126164.512    21126175.003   -89284858.880 9  83412794.406 9
 89 11  9 16 52 29.0800000  0  3G13G12G 3
  22754685.800    22754700.776  -119349535.380 9 161707104.222 8
  23523291.386    23523308.105   -73897772.470 9 124679799.634 8
  21125611.490    21125621.311   -89287768.603 9  83410527.004 9
 89 11  9 16 52 59.0800000  0  3G13G12G 3
  22765026.831    22765041.486  -119295193.947 9 161749447.970 7
  23543943.120    23543960.549   -73789248.330 9 124764363.465 9
  21125086.252    21125096.268   -89290530.071 9  83408375.145 9
 89 11  9 16 53 29.0800000  0  3G13G12G 3
  22775377.720    22775393.107  -119240799.075 9 161791833.372 8
  23564615.297    23564631.800   -73680619.049 9 124849009.221 8
  21124590.181    21124599.799   -89293143.134 9  83406338.917 9
 89 11  9 16 53 59.0800000  0  3G13G12G 3
  22785739.816    22785755.147  -119186350.367 8 161834260.694 8
  23585306.636    23585323.121   -73571887.470 9 124933734.691 8
  21124119.964    21124130.861   -89295607.213 9  83404418.771 8
 89 11  9 16 54 29.0800000  0  3G13G12G 3
  22796110.775    22796126.390  -119131848.036 9 161876729.835 8
  23606016.300    23606033.620   -73463057.280 8 125018536.972 9
  21123680.231    21123690.510   -89297922.414 9  83402614.658 9
 89 11  9 16 54 59.0800000  0  3G13G12G 3
  22806492.845    22806508.461  -119077292.364 9 161919240.532 8
  23626744.828    23626761.229   -73354131.649 8 125103413.624 9
  21123268.361    21123278.328   -89300088.907 9  83400926.392 9
 89 11  9 16 55 29.0800000  0  3G13G12G 3
  22816885.087    22816900.218  -119022682.426 8 161961793.520 8
  23647488.766    23647507.689   -73245114.013 8 125188361.963 9
  21122883.822    21122894.100   -89302106.934 9  83399353.814 8
 89 11  9 16 55 59.0800000  0  3G13G12G 3
  22827286.767    22827302.982  -118968018.131 9 162004388.868 8
  23668252.025    23668269.734   -73136007.421 8 125273379.604 8
  21122527.380    21122538.523   -89303975.713 9  83397897.539 8
 89 11  9 16 56 29.0800000  0  3G13G12G 3
  22837699.251    22837715.482  -118913299.330 9 162047026.689 7
  23689031.596    23689050.458   -73026815.589 9 125358463.691 8
  21122200.128    21122211.274   -89305695.867 9  83396557.084 8
 89 11  9 16 56 59.0800000  0  3G13G12G 3
  22848122.133    22848139.185  -118858526.077 9 162089706.913 8
  23709826.514    23709842.913   -72917542.071 9 125443611.426 8
  21121900.906    21121912.367   -89307267.194 9  83395332.587 8
 89 11  9 16 57 29.0800000  0  3G13G12G 3
  22858557.404    22858573.266  -118803697.694 8 162132430.110 8
  23730634.667    23730652.869   -72808189.815 9 125528820.507 9
  21121631.132    21121640.824   -89308689.529 9  83394224.205 8
 89 11  9 16 57 59.0800000  0  3G13G12G 3
  22869001.104    22869016.918  -118748813.691 9 162175196.643 8
  23751458.720    23751476.959   -72698762.071 9 125614088.419 8
  21121389.232    21121398.836   -89309962.551 9  83393232.173 8
 89 11  9 16 58 29.0800000  0  3G13G12G 3
  22879455.108    22879472.106  -118693874.007 8 162218006.551 8
  23772296.025    23772315.456   -72589262.540 9 125699412.233 9
  21121175.161    21121185.489   -89311086.223 9  83392356.513 8
 89 11  9 16 58 59.0800000  0  3G13G12G 3
  22889921.436    22889937.907  -118638878.675 9 162260859.814 8
  23793146.713    23793165.343   -72479694.611 8 125784789.347 9
  21120990.327    21121000.188   -89312060.930 8  83391596.941 8
 89 11  9 16 59 29.0800000  0  3G13G12G 3
  22900397.765    22900413.747  -118583827.780 9 162303756.372 8
  23814009.849    23814027.683   -72370061.477 9 125870217.261 9
  21120833.584    21120842.275   -89312885.855 9  83390954.080 8
 89 11  9 16 59 59.0800000  0  3G13G12G 3
  22910885.131    22910901.716  -118528720.626 9 162346696.771 7
  23834884.938    23834903.984   -72260366.651 9 125955693.253 9
  21120705.357    21120715.192   -89313561.196 9  83390427.773 8
 89 11  9 17  0 29.0800000  0  3G13G12G 3
  22921382.266    22921397.379  -118473557.184 9 162389681.027 8
  23855770.206    23855789.538   -72150613.376 9 126041214.782 8
  21120604.162    21120614.526   -89314087.277 9  83390017.767 8
 89 11  9 17  0 59.0800000  0  3G13G12G 3
  22931889.464    22931906.218  -118418337.410 9 162432709.181 8
  23876666.882    23876685.779   -72040804.761 9 126126779.420 8
  21120532.707    21120542.912   -89314463.462 9  83389724.540 8
 89 11  9 17  1 29.0800000  0  3G13G12G 3
  22942408.667    22942424.838  -118363060.700 9 162475781.694 8
  23897572.678    23897591.827   -71930944.230 9 126212384.539 9
  21120489.379    21120500.279   -89314689.740 9  83389548.147 9
 89 11  9 17  1 59.0800000  0  3G13G12G 3
  22952938.616    22952954.676  -118307726.281 9 162518899.154 8
  23918487.853    23918507.370   -71821034.881 9 126298027.646 7
  21120475.877    21120486.122   -89314765.815 9  83389488.755 8
 89 11  9 17  2 29.0800000  0  3G13G12G 3
  22963479.381    22963496.807  -118252334.545 8 162562061.277 7
  23939412.090    23939431.210   -71711080.400 9 126383705.944 8
  21120490.272    21120499.959   -89314691.853 9  83389546.302 8
 89 11  9 17  2 59.0800000  0  3G13G12G 3
  22974031.877    22974048.088  -118196885.387 9 162605268.135 8
  23960344.321    23960363.919   -71601084.242 9 126469416.712 8
  21120532.680    21120542.523   -89314467.949 9  83389720.675 9
 89 11  9 17  3 29.0800000  0  3G13G12G 3
  22984595.549    22984611.370  -118141377.583 9 162648520.687 9
  23981283.248    23981303.950   -71491049.101 8 126555157.840 8
  21120603.143    21120614.859   -89314093.276 9  83390012.534 9
 89 11  9 17  3 59.0800000  0  3G13G12G 3
  22995169.119    22995185.884  -118085811.383 9 162691818.748 8
  24002229.922    24002249.169   -71380978.280 8 126640926.742 8
  21120703.291    21120714.477   -89313567.903 9  83390421.819 9
 89 11  9 17  4 29.0800000  0  3G13G12G 3
  23005754.014    23005770.630  -118030186.570 9 162735162.466 8
  24023182.071    24023200.966   -71270875.304 8 126726720.710 9
  21120832.955    21120842.659   -89312891.634 9  83390948.684 8
 89 11  9 17  4 59.0800000  0  3G13G12G 3
  23016349.548    23016367.352  -117974502.871 9 162778552.069 9
  24044140.533    24044160.768   -71160743.109 9 126812537.427 8
  21120989.618    21121000.638   -89312064.180 9  83391593.376 8
 89 11  9 17  5 29.0800000  0  3G13G12G 3
  23026958.367    23026975.264  -117918759.311 9 162821988.314 8
  24065102.585    24065121.707   -71050585.215 9 126898374.183 9
  21121175.637    21121186.371   -89311085.095 9  83392356.215 9
 89 11  9 17  5 59.0800000  0  3G13G12G 3
  23037576.055    23037592.786  -117862956.283 9 162865470.909 8
  24086069.587    24086090.062   -70940404.979 9 126984228.353 8
  21121391.134    21121401.556   -89309954.706 9  83393236.959 8
 89 11  9 17  6 29.0800000  0  3G13G12G 3
  23048207.731    23048224.593  -117807093.303 9 162909000.213 8
  24107040.225    24107060.040   -70830205.789 9 127070097.277 8
  21121635.335    21121645.525   -89308672.706 9  83394235.861 8
 89 11  9 17  6 59.0800000  0  3G13G12G 3
  23058850.263    23058867.021  -117751169.795 8 162952576.670 8
  24128014.072    24128034.490   -70719990.657 9 127155978.611 8
  21121907.868    21121918.290   -89307238.624 9  83395353.239 8
 89 11  9 17  7 29.0800000  0  3G13G12G 3
  23069504.524    23069522.551  -117695185.543 8 162996200.478 8
  24148990.758    24149010.904   -70609762.675 9 127241869.931 8
  21122210.273    21122220.712   -89305651.865 9  83396589.583 8
 89 11  9 17  7 59.0800000  0  3G13G12G 3
  23080169.284    23080185.683  -117639140.345 9 163039871.756 8
  24169969.086    24169988.458   -70499525.105 9 127327768.717 7
  21122541.880    21122553.140   -89303913.061 9  83397944.422 8
 89 11  9 17  8 29.0800000  0  3G13G12G 3
  23090845.861    23090863.868  -117583033.637 9 163083590.982 8
  24190947.237    24190968.174   -70389281.384 8 127413672.289 8
  21122901.384    21122911.717   -89302021.535 9  83399418.264 8
 89 11  9 17  8 59.0800000  0  3G13G12G 3
  23101535.063    23101552.169  -117526864.889 9 163127358.532 8
  24211926.898    24211947.551   -70279034.762 8 127499578.115 8
  21123291.121    21123301.022   -89299976.766 9  83401011.502 8
 89 11  9 17  9 29.0800000  0  3G13G12G 3
  23112234.279    23112253.090  -117470633.932 9 163171174.573 8
  24232906.873    24232927.946   -70168788.479 8 127585483.656 8
  21123709.407    21123719.145   -89297778.650 9  83402724.237 8
 89 11  9 17  9 59.0800000  0  3G13G12G 3
  23122946.458    23122966.000  -117414340.651 8 163215039.183 8
  24253886.093    24253906.539   -70058545.795 9 127671386.385 9
  21124156.100    21124166.319   -89295427.384 9  83404556.307 8
 89 11  9 17 10 29.0800000  0  3G13G12G 3
  23133671.990    23133689.303  -117357984.310 9 163258952.933 8
  24274863.315    24274886.652   -69948309.855 9 127757283.857 7
  21124632.716    21124643.780   -89292922.145 9  83406508.347 9
 89 11  9 17 10 59.0800000  0  3G13G12G 3
  23144408.100    23144427.454  -117301564.387 9 163302916.230 7
  24295839.350    24295860.632   -69838083.684 9 127843173.697 8
  21125139.388    21125151.009   -89290262.572 8  83408580.649 9
 89 11  9 17 11 29.0800000  0  3G13G12G 3
  23155156.548    23155176.257  -117245080.991 8 163346928.980 8
  24316812.952    24316835.778   -69727870.614 9 127929053.318 8
  21125674.660    21125686.242   -89287448.582 9  83410773.264 8
 89 11  9 17 11 59.0800000  0  3G13G12G 3
  23165917.955    23165936.101  -117188533.667 9 163390991.540 8
  24337782.536    24337805.200   -69617673.786 9 128014920.270 8
  21126239.507    21126250.567   -89284479.921 9  83413086.404 8
 89 11  9 17 12 29.0800000  0  3G13G12G 3
  23176690.991    23176710.210  -117131921.805 9 163435104.372 8
  24358750.047    24358772.617   -69507495.849 8 128100772.493 8
  21126835.620    21126844.995   -89281355.872 8  83415520.606 9
